[[{"header":{"parameterUnit":"m.s-1","parameterCategory":1,"la1":30.6,"la2":29.2853,"lo1":-89.7004,"lo2":-87.6739,"dy":0.0162,"dx":0.0183,"nx":112,"ny":82,"refTime":"2024-06-04T18:00:00:Z","depth":0,"parameterNumber":2,"parameterNumberName":"U-component_of_WINDS"},"data":[0.0,0.0,0.0,0.0,0.0,0.0,0.0,0.0,0.0,0.0,0.0,0.0,0.0,0.0,0.0,0.0,0.0,0.0,0.0,0.0,0.0,0.0,0.0,0.0,0.0,0.0,0.0,0.0,0.0,0.0,0.0,0.0,0.0,0.0,0.0,0.0,0.0,0.0,0.0,0.0,0.0,0.0,0.0,0.0,0.0,0.0,0.0,0.0,0.0,0.0,0.0,0.0,0.0,0.0,0.0,0.0,0.0,0.0,0.0,0.0,0.0,0.0,0.0,0.0,0.0,0.0,0.0,0.0,0.0,0.0,0.0,0.0,0.0,0.0,0.0,0.0,0.0,0.0,0.0,0.0,0.0,0.0,0.0,0.0,0.0,0.0,0.0,0.0,0.0,0.0,0.9141,0.9538,1.1284,1.2088,1.1365,1.1903,1.1565,0.9799,0.0,0.0,0.0,0.0,0.0,0.0,0.0,0.0,0.0,0.0,0.0,0.0,0.0,0.0,0.0,0.0,0.0,0.0,0.0,0.0,0.0,0.0,0.0,0.0,0.0,0.0,0.0,0.0,0.0,0.0,0.0,0.0,0.0,0.0,0.0,0.0,0.0,0.0,0.0,0.0,0.0,0.0,0.0,0.0,0.0,0.0,0.0,0.0,0.0,0.0,0.0,0.0,0.0,0.0,0.0,0.0,0.0,0.0,0.0,0.0,0.0,0.0,0.0,0.0,0.0,0.0,0.0,0.0,0.0,0.0,0.0,0.0,0.0,0.0,0.0,0.0,0.0,0.0,0.0,0.0,0.0,0.0,0.0,0.0,0.0,0.0,0.0,0.0,0.0,0.0,0.0,0.0,0.0,0.0,0.0,0.0,0.0,0.0,0.0,0.0,0.0,0.0,0.0,0.0,0.939,1.0707,1.1495,1.1725,1.1324,1.1421,1.1056,1.0112,0.0,0.0,0.0,0.0,0.0,0.0,0.0,0.0,0.0,0.0,0.0,0.0,0.0,0.0,0.0,0.0,0.0,0.0,0.0,0.0,0.0,0.0,0.0,0.0,0.0,0.0,0.0,0.0,0.0,0.0,0.0,0.0,0.0,0.0,0.0,0.0,0.0,0.0,0.0,0.0,0.0,0.0,0.0,0.0,0.0,0.0,0.0,0.0,0.0,0.0,0.0,0.0,0.0,0.0,0.0,0.0,0.0,0.0,0.0,0.0,0.0,0.0,0.0,0.0,0.0,0.0,0.0,0.0,0.0,0.0,0.0,0.0,0.0,0.0,0.0,0.0,0.0,0.0,0.0,0.0,0.0,0.0,0.0,0.0,0.0,0.0,0.0,0.0,0.0,0.0,0.0,0.0,0.0,0.0,0.0,0.0,0.0,0.0,0.0,0.0,0.0,0.0,0.0,0.9249,0.9943,1.1243,1.1717,1.1783,1.1457,1.1435,1.1063,1.0164,0.9976,0.0,0.0,0.0,0.0,0.0,0.0,0.0,0.0,0.0,0.0,0.0,0.0,0.0,0.0,0.0,0.0,0.0,0.0,0.0,0.0,0.0,0.0,0.0,0.0,0.0,0.0,0.0,0.0,0.0,0.0,0.0,0.0,0.0,0.0,0.0,0.0,0.0,0.0,0.0,0.0,0.0,0.0,0.0,0.0,0.0,0.0,0.0,0.0,0.0,0.0,0.0,0.0,0.0,0.0,0.0,0.0,0.0,0.0,0.0,0.0,0.0,0.0,0.0,0.0,0.0,0.0,0.0,0.0,0.0,0.0,0.0,0.0,0.0,0.0,0.0,0.0,0.0,0.0,0.0,0.0,0.0,0.0,0.0,0.0,0.0,0.0,0.0,0.0,0.0,0.0,0.0,0.0,0.0,0.0,0.0,0.0,0.0,0.0,0.0,0.0,0.0,0.0,1.0284,1.0908,1.177,1.221,1.2239,1.1903,1.1729,1.13,1.0275,1.001,0.0,0.0,0.0,0.0,0.0,0.0,0.0,0.0,0.0,0.0,0.0,0.0,0.0,0.0,0.0,0.0,0.0,0.0,0.0,0.0,0.0,0.0,0.0,0.0,0.0,0.0,0.0,0.0,0.0,0.0,0.0,0.0,0.0,0.0,0.0,0.0,0.0,0.0,0.0,0.0,0.0,0.0,0.0,0.0,0.0,0.0,0.0,0.0,0.0,0.0,0.0,0.0,0.0,0.0,0.0,0.0,0.0,0.0,0.0,0.0,0.0,0.0,0.0,0.0,0.0,0.0,0.0,0.0,0.0,0.0,0.0,0.0,0.0,0.0,0.0,0.0,0.0,0.0,0.0,0.0,0.0,0.0,0.0,0.0,0.0,0.0,0.0,0.0,0.0,0.0,0.0,0.0,0.0,0.0,0.0,0.0,0.0,0.0,0.0,0.0,0.0,0.0,1.1427,1.2654,1.2721,1.3172,1.3248,1.2592,1.2241,1.1603,1.055,0.9695,0.0,0.0,0.0,0.0,0.0,0.0,0.0,0.0,0.0,0.0,0.0,0.0,0.0,0.0,0.0,0.0,0.0,0.0,0.0,0.0,0.0,0.0,0.0,0.0,0.0,0.0,0.0,0.0,0.0,0.0,0.0,0.0,0.0,0.0,0.0,0.0,0.0,0.0,0.0,0.0,0.0,0.0,0.0,0.0,0.0,0.0,0.0,0.0,0.0,0.0,0.0,0.0,0.0,0.0,0.0,0.0,0.0,0.0,0.0,0.0,0.0,0.0,0.0,0.0,0.0,0.0,0.0,0.0,0.0,0.0,0.0,0.0,0.0,0.0,0.0,0.0,0.0,0.0,0.0,0.0,0.0,0.0,0.0,0.0,0.0,0.0,0.0,0.0,0.0,0.0,0.0,0.0,0.0,0.0,0.0,0.0,0.0,0.0,0.0,0.0,0.0,0.0,1.1517,1.2542,1.296,1.3378,1.3309,1.263,1.2262,1.1707,1.0669,0.0,0.0,0.0,0.0,0.0,0.0,0.0,0.0,0.0,0.0,0.0,0.0,0.0,0.0,0.0,0.0,0.0,0.0,0.0,0.0,0.0,0.0,0.0,0.0,0.0,0.0,0.0,0.0,0.0,0.0,0.0,0.0,0.0,0.0,0.0,0.0,0.0,0.0,0.0,0.0,0.0,0.0,0.0,0.0,0.0,0.0,0.0,0.0,0.0,0.0,0.0,0.0,0.0,0.0,0.0,0.0,0.0,0.0,0.0,0.0,0.0,0.0,0.0,0.0,0.0,0.0,0.0,0.0,0.0,0.0,0.0,0.0,0.0,0.0,0.0,0.0,0.0,0.0,0.0,0.0,0.0,0.0,0.0,0.0,0.0,0.0,0.0,0.0,0.0,0.0,0.0,0.0,0.0,0.0,0.0,0.0,0.0,0.0,0.0,0.0,0.0,0.0,1.081,1.1871,1.2775,1.3454,1.3739,1.36,1.2841,1.2435,1.1783,1.0677,0.0,0.0,0.0,0.0,0.0,0.0,0.0,0.0,0.0,0.0,0.0,0.0,0.0,0.0,0.0,0.0,0.0,0.0,0.0,0.0,0.0,0.0,0.0,0.0,0.0,0.0,0.0,0.0,0.0,0.0,0.0,0.0,0.0,0.0,0.0,0.0,0.0,0.0,0.0,0.0,0.0,0.0,0.0,0.0,0.0,0.0,0.0,0.0,0.0,0.0,0.0,0.0,0.0,0.0,0.0,0.0,0.0,0.0,0.0,0.0,0.0,0.0,0.0,0.0,0.0,0.0,0.0,0.0,0.0,0.0,0.0,0.0,0.0,0.0,0.0,0.0,0.0,0.0,0.0,0.0,0.0,0.0,0.0,0.0,0.0,0.0,0.0,0.0,0.0,0.0,0.0,0.0,0.0,0.0,0.0,0.0,0.0,0.0,0.0,0.0,0.0,0.0,1.1304,1.2563,1.3682,1.4363,1.4497,1.4206,1.3171,1.2818,1.1973,0.0,0.0,0.0,0.0,0.0,0.0,0.0,0.0,0.0,0.0,0.0,0.0,0.0,0.0,0.0,0.0,0.0,0.0,0.0,0.0,0.0,0.0,0.0,0.0,0.0,0.0,0.0,0.0,0.0,0.0,0.0,0.0,0.0,0.0,0.0,0.0,0.0,0.0,0.0,0.0,0.0,0.0,0.0,0.0,0.0,0.0,0.0,0.0,0.0,0.0,0.0,0.0,0.0,0.0,0.0,0.0,0.0,0.0,0.0,0.0,0.0,0.0,0.0,0.0,0.0,0.0,0.0,0.0,0.0,0.0,0.0,0.0,0.0,0.0,0.0,0.0,0.0,0.0,0.0,0.0,0.0,0.0,0.0,0.0,0.0,0.0,0.0,0.0,0.0,0.0,0.0,0.0,0.0,0.0,0.0,0.0,0.0,0.0,0.0,0.0,0.0,0.0,0.0,1.1583,1.2789,1.3726,1.4132,1.4353,1.4002,1.2983,1.2714,1.1979,1.0478,0.0,0.0,0.0,0.0,0.0,0.0,0.0,0.0,0.0,0.0,0.0,0.0,0.0,0.0,0.0,0.0,0.0,0.0,0.0,0.0,0.0,0.0,0.0,0.0,0.0,0.0,0.0,0.0,0.0,0.0,0.0,0.0,0.0,0.0,0.0,0.0,0.0,0.0,0.0,0.0,0.0,0.0,0.0,0.0,0.0,0.0,0.0,0.0,0.0,0.0,0.0,0.0,0.0,0.0,0.0,0.0,0.0,0.0,0.0,0.0,0.0,0.0,0.0,0.0,0.0,0.0,0.0,0.0,0.0,0.0,0.0,0.0,0.0,0.0,0.0,0.0,0.0,0.0,0.0,0.0,0.0,0.0,0.0,0.0,0.0,0.0,0.0,0.0,0.0,0.0,0.0,0.0,0.0,0.0,0.0,0.0,0.0,0.0,0.0,0.0,0.0,0.0,1.1527,1.272,1.36,1.3939,1.4072,1.3787,1.2974,1.2606,1.1936,1.0655,0.0,0.0,0.0,0.0,0.0,0.0,0.0,0.0,0.0,0.0,0.0,0.0,0.0,0.0,0.0,0.0,0.0,0.0,0.0,0.0,0.0,0.0,0.0,0.0,0.0,0.0,0.0,0.0,0.0,0.0,0.0,0.0,0.0,0.0,0.0,0.0,0.0,0.0,0.0,0.0,0.0,0.0,0.0,0.0,0.0,0.0,0.0,0.0,0.0,0.0,0.0,0.0,0.0,0.0,0.0,0.0,0.0,0.0,0.0,0.0,0.0,0.0,0.0,0.0,0.0,0.0,0.0,0.0,0.0,0.0,0.0,0.0,0.0,0.0,0.0,0.0,0.0,0.0,0.0,0.0,0.0,0.0,0.0,0.0,0.0,0.0,0.0,0.0,0.0,0.0,0.0,0.0,0.0,0.0,0.0,0.0,0.0,0.0,0.0,0.0,0.0,0.0,1.1375,1.2516,1.3424,1.376,1.379,1.3598,1.3082,1.2593,1.1869,1.0922,0.0,0.0,0.0,0.0,0.0,0.0,0.0,0.0,0.0,0.0,0.0,0.0,0.0,0.0,0.0,0.0,0.0,0.0,0.0,0.0,0.0,0.0,0.0,0.0,0.0,0.0,0.0,0.0,0.0,0.0,0.0,0.0,0.0,0.0,0.0,0.0,0.0,0.0,0.0,0.0,0.0,0.0,0.0,0.0,0.0,0.0,0.0,0.0,0.0,0.0,0.0,0.0,0.0,0.0,0.0,0.0,0.0,0.0,0.0,0.0,0.8573,0.7964,0.0,0.0,0.0,0.0,0.0,0.0,0.0,0.0,0.0,0.0,0.0,0.0,0.0,0.0,0.0,0.0,0.0,0.0,0.0,0.0,0.0,0.0,0.0,0.0,0.0,0.0,0.0,0.0,0.0,0.0,0.0,0.0,0.0,0.0,0.0,0.0,0.0,0.0,0.0,0.0,1.1551,1.2708,1.3487,1.3535,1.3572,1.347,1.3172,1.2577,1.1984,1.1468,1.0161,0.0,0.0,0.0,0.0,0.0,0.0,0.0,0.0,0.0,0.0,0.0,0.0,0.0,0.0,0.0,0.0,0.0,0.0,0.0,0.0,0.0,0.0,0.0,0.0,0.0,0.0,0.0,0.0,0.0,0.0,0.0,0.0,0.0,0.0,0.0,0.0,0.0,0.0,0.0,0.0,0.0,0.0,0.0,0.0,0.0,0.0,0.0,0.0,0.0,0.0,0.0,0.0,0.0,0.0,0.0,0.0,0.0,0.0,0.0,1.01,0.9489,0.0,0.0,0.0,0.0,0.0,0.0,0.0,0.0,0.0,0.0,0.0,0.0,0.0,0.0,0.0,0.0,0.0,0.0,0.0,0.0,0.0,0.0,0.0,0.0,0.0,0.0,0.0,0.0,0.0,0.0,0.0,0.0,0.0,0.0,0.0,0.0,0.0,0.0,0.0,0.0,1.1628,1.2694,1.3381,1.3331,1.3346,1.3411,1.3563,1.2913,1.2337,1.205,1.0842,0.0,0.0,0.0,0.0,0.0,0.0,0.0,0.0,0.0,0.0,0.0,0.0,0.0,0.0,0.0,0.0,0.0,0.0,0.0,0.0,0.0,0.0,0.0,0.0,0.0,0.0,0.0,0.0,0.0,0.0,0.0,0.0,0.0,0.0,0.0,0.0,0.0,0.0,0.0,0.0,0.0,0.0,0.0,0.0,0.0,0.0,0.0,0.0,0.0,0.0,0.0,0.0,0.0,1.1468,1.1637,1.1645,1.2,1.2275,1.252,1.1797,1.1364,1.1077,0.9806,0.0,0.0,0.0,0.0,0.0,0.0,0.0,0.0,0.0,0.0,0.0,0.0,0.0,0.0,0.0,0.0,0.0,0.0,0.0,0.0,0.0,0.0,0.9223,0.9436,1.0474,1.138,1.1169,0.0,0.0,0.0,0.0,0.0,0.0,0.0,0.0,0.0,0.0,0.0,1.1704,1.2654,1.3273,1.3273,1.3193,1.3424,1.4033,1.3317,1.2762,1.2709,1.178,1.0805,0.0,0.0,0.0,0.0,0.0,0.0,0.0,0.0,0.0,0.0,0.0,0.0,0.0,0.0,0.0,0.0,0.0,0.0,0.0,0.0,0.0,0.0,0.0,0.0,0.0,0.0,0.0,0.0,0.0,0.0,0.0,0.0,0.7325,0.7285,0.0,0.0,0.0,0.0,0.0,0.0,0.0,0.0,0.0,0.0,0.0,0.0,0.0,1.0658,1.1004,1.187,1.2476,1.2701,1.3309,1.3741,1.3865,1.3833,1.3621,1.34,1.3448,0.0,1.1406,1.0927,0.0,0.0,0.0,0.0,0.0,0.0,0.0,0.0,0.0,0.0,0.0,0.0,0.0,0.0,0.0,0.0,0.0,0.0,0.0,0.0,0.0,0.0,1.0725,1.0243,1.1027,1.1774,1.151,1.1396,1.113,1.0547,1.0249,0.9971,0.0,0.0,0.0,0.0,0.0,0.0,1.2012,1.287,1.3492,1.3492,1.3273,1.351,1.4355,1.3657,1.3194,1.3367,1.2445,1.145,1.0497,0.9855,0.0,0.0,0.0,0.0,0.0,0.0,0.0,0.0,0.0,0.0,0.0,0.0,0.0,0.0,0.0,0.0,0.0,0.0,0.0,0.0,0.0,0.0,0.0,0.0,0.0,0.0,0.0,0.0,0.0,0.7649,0.8139,0.7646,0.7839,0.7829,0.0,0.0,0.0,0.0,0.0,0.0,0.0,0.0,0.0,1.1618,1.1611,1.1891,1.2684,1.2999,1.3134,1.3071,1.4212,1.4259,1.3286,1.4059,1.3826,1.2725,1.3137,1.2681,1.1598,1.0842,1.0011,0.903,0.0,0.0,0.0,0.0,0.7365,0.7426,0.8088,0.8149,0.7957,0.7986,0.0,0.0,0.0,0.0,0.0,0.0,0.0,0.809,0.8513,0.9134,0.9661,0.9678,1.0355,1.1022,1.0912,1.123,1.1414,1.1194,1.1049,1.0723,0.9806,0.9993,0.0,0.0,0.0,1.2056,1.277,1.3242,1.3492,1.3492,1.3419,1.3608,1.4157,1.3855,1.3615,1.3506,1.3097,1.2402,1.13,1.074,1.0046,0.0,0.0,0.0,0.0,0.0,0.0,0.0,0.0,0.0,0.0,0.0,0.0,0.0,0.0,0.0,0.0,0.0,0.0,0.0,0.0,0.0,0.0,0.0,0.0,0.0,0.0,0.0,0.0,0.8346,0.8889,0.8086,0.8746,0.8859,0.0,0.0,0.0,0.0,0.0,0.0,1.116,1.1301,1.1833,1.2999,1.267,1.2924,1.377,1.354,1.3299,1.3202,1.4062,1.383,1.2649,1.3633,1.3269,1.1815,1.2328,1.2132,1.1311,1.061,1.0076,0.9537,0.8113,0.7472,0.7449,0.7656,0.7665,0.7674,0.8407,0.8609,0.8454,0.8368,0.8212,0.7915,0.7409,0.0,0.0,0.0,0.0,0.778,0.8323,0.8522,0.8736,0.9128,0.9883,1.0455,1.0455,1.1133,1.1703,1.1536,1.1477,1.1084,0.9971,1.0166,0.0,1.0831,1.1365,1.2172,1.3215,1.3503,1.3651,1.3872,1.3792,1.3843,1.4084,1.4106,1.3967,1.3638,1.3623,1.3182,1.2163,1.152,1.0938,1.0294,0.0,0.0,0.0,0.0,0.0,0.0,0.0,0.0,0.0,0.0,0.0,0.0,0.0,0.0,0.0,0.0,0.0,0.0,0.0,0.0,0.0,0.0,0.0,0.0,0.0,0.0,0.0,0.0,0.0,0.8919,0.9991,0.0,0.0,0.0,0.0,1.0563,1.0484,1.0753,1.1546,1.1607,1.1998,1.2616,1.3247,1.3561,1.3621,1.3182,1.318,1.3449,1.2593,1.2347,1.2756,1.2519,1.198,1.13,1.1386,1.0875,1.0159,1.0418,1.0256,0.9595,0.8567,0.801,0.7797,0.8206,0.8403,0.8533,0.8911,0.9066,0.9051,0.9042,0.8716,0.8264,0.8269,0.7897,0.0,0.0,0.8338,0.8485,0.883,0.8906,0.8926,0.9135,0.9933,1.0647,1.0741,1.1287,1.1663,1.1324,1.1141,1.097,1.0644,0.0,1.045,1.0663,1.1199,1.1889,1.2981,1.3532,1.4124,1.4735,1.4604,1.4428,1.4443,1.4443,1.4304,1.3982,1.396,1.3653,1.2965,1.2036,1.1431,1.1071,1.0075,0.0,0.0,0.0,0.0,0.0,0.0,0.0,0.0,0.0,0.0,0.0,0.0,0.0,0.0,0.0,0.0,0.0,0.0,0.0,0.0,0.0,0.0,0.0,0.0,0.0,0.0,0.0,0.0,1.0141,1.1093,0.0,1.0746,1.1149,1.1454,1.1518,1.171,1.2143,1.2886,1.2899,1.3034,1.3175,1.2974,1.2807,1.2777,1.2357,1.2093,1.2124,1.2412,1.207,1.1076,1.17,1.122,0.9885,1.0157,0.9981,0.9436,0.9558,0.9525,0.9405,0.8687,0.8374,0.8324,0.847,0.8538,0.861,0.8759,0.878,0.8759,0.8634,0.8371,0.8117,0.8102,0.7952,0.7979,0.8395,0.8521,0.8647,0.8807,0.9065,0.9131,0.9208,0.9624,1.0021,1.0159,1.0605,1.0923,1.0617,1.0779,1.1038,1.1088,1.1196,1.1479,1.2186,1.2753,1.3441,1.4497,1.4734,1.4956,1.5187,1.4962,1.4692,1.4487,1.4655,1.4372,1.334,1.3675,1.345,1.2253,1.1655,1.1279,1.1138,1.0425,0.9824,0.0,0.0,0.0,0.0,0.0,0.0,0.0,0.0,0.0,0.0,0.0,0.0,0.0,0.0,0.0,0.0,0.0,0.0,0.0,0.0,0.0,0.0,0.0,0.0,0.0,0.0,1.0967,1.0744,1.1862,1.2337,1.1603,1.219,1.2569,1.2535,1.2643,1.2987,1.3741,1.3342,1.312,1.3206,1.244,1.1969,1.1885,1.1482,1.1154,1.1072,1.1546,1.1096,0.9929,1.0726,1.035,0.919,0.9626,0.9556,0.9275,0.9275,0.9324,0.9366,0.8972,0.8718,0.8678,0.8662,0.8617,0.8568,0.8568,0.8568,0.8548,0.8426,0.8385,0.8283,0.8283,0.8283,0.8392,0.8768,0.8807,0.8751,0.8965,0.9174,0.9306,0.9409,0.9543,0.9781,1.0071,1.0314,1.0462,1.0324,1.0651,1.09,1.0988,1.1036,1.1388,1.2135,1.276,1.361,1.4843,1.5127,1.5416,1.5576,1.5183,1.476,1.4338,1.4381,1.3945,1.294,1.3265,1.3127,1.2178,1.1597,1.1295,1.1206,1.0616,1.0075,0.9652,0.0,0.0,0.0,0.0,0.0,0.0,0.0,0.0,0.0,0.0,0.0,0.0,0.0,0.0,0.0,0.0,0.0,0.0,0.0,0.0,0.0,0.0,0.0,0.9632,1.0604,1.1175,1.0644,1.229,1.3006,1.1939,1.3016,1.3746,1.3647,1.3175,1.3252,1.4167,1.2768,1.2165,1.2683,1.1763,1.1216,1.1139,1.0603,1.0428,1.0341,0.9853,0.9547,0.9368,0.9551,0.9539,0.938,0.9559,0.964,0.9644,0.9644,0.9644,0.9608,0.9246,0.9027,0.8818,0.8852,0.8727,0.8584,0.8584,0.858,0.8576,0.8576,0.8748,0.892,0.892,0.8924,0.9016,0.9279,0.9104,0.9016,0.9279,0.9279,0.9416,0.9795,0.9935,1.0076,1.0551,1.0594,1.0589,1.0584,1.0584,1.0518,1.0319,1.019,1.0154,1.0537,1.1248,0.0,1.3774,1.4628,1.5308,1.6028,1.5273,1.459,1.4001,1.3563,1.3134,1.2822,1.2777,1.2817,1.2719,1.1908,1.1404,1.12,1.0608,1.0242,1.0127,0.0,0.0,0.0,0.0,0.0,0.0,0.0,0.0,0.0,0.0,0.0,0.0,0.0,0.0,0.0,0.0,0.0,0.0,0.0,0.0,0.0,0.0,1.1249,1.1101,1.1888,1.2538,1.2732,1.3529,1.3897,1.3474,1.3631,1.3749,1.3748,1.3511,1.3601,1.4226,1.3695,1.3065,1.2285,1.1841,1.1076,1.0052,0.9917,0.9912,1.0042,1.003,0.9851,0.9559,0.9734,0.9786,0.9742,0.9795,0.9892,1.0014,1.0014,1.0014,0.9965,0.9474,0.9263,0.9214,0.9072,0.8991,0.895,0.895,0.8865,0.8751,0.8751,0.8751,0.8837,0.8837,0.9022,0.9404,0.9583,0.9583,0.9583,0.9857,0.9766,0.9819,1.0206,1.035,1.0495,1.0885,1.0927,1.0789,1.0834,1.0522,1.0269,1.0527,1.077,1.1191,1.2004,1.3065,1.3958,1.4334,1.4943,1.5304,1.5062,1.4575,1.4196,1.3988,1.3021,1.2245,1.2056,1.1578,1.1335,1.1377,1.0978,1.0766,1.0765,1.0528,1.0358,0.0,0.0,0.0,0.0,0.0,0.0,0.0,0.0,0.0,0.0,0.0,0.0,0.0,0.0,0.0,0.0,0.0,0.0,0.0,0.0,0.0,0.0,1.091,1.1866,1.215,1.2645,1.3131,1.3336,1.3576,1.3761,1.3728,1.3716,1.3768,1.3711,1.3603,1.3866,1.4628,1.3914,1.3473,1.3154,1.2447,1.1502,1.0301,1.0285,1.0184,0.9888,1.0071,1.0014,0.9742,0.992,0.9961,0.9892,1.0046,1.0176,1.0282,1.0355,1.0383,1.0339,0.0,0.0,0.0,0.0,0.926,0.9214,0.9291,0.925,0.9157,0.9251,0.9345,0.9332,0.9343,0.9495,0.9759,0.9762,0.9833,0.9833,1.0019,0.9926,0.9864,1.0166,1.0198,1.0319,1.0528,1.0455,1.0423,1.0594,1.0386,0.0,1.0222,1.0471,1.0859,1.1525,1.2444,1.2997,1.3003,1.3543,1.3701,1.3189,1.282,1.2472,1.2206,1.1764,0.0,0.0,0.0,1.0871,1.0652,1.0498,0.0,0.0,0.0,0.0,0.0,1.0125,0.0,0.0,0.8766,0.8392,0.0,0.0,0.0,0.0,0.0,0.0,0.0,0.0,0.0,0.0,0.0,0.0,0.0,0.0,0.0,0.0,1.1439,1.2049,1.2789,1.308,1.3188,1.3029,1.3018,1.3096,1.3061,1.3504,1.3735,1.3532,1.358,1.4013,1.5019,1.3939,0.0,0.0,0.0,1.2242,1.117,1.1183,1.0777,0.986,1.0063,1.0054,0.986,1.0046,1.0042,0.9904,1.0233,1.0383,1.042,1.059,1.0676,1.066,1.0322,1.0115,0.9903,0.969,0.9562,0.947,0.9632,0.0,0.0,0.9954,1.0053,1.0019,1.0039,1.0105,1.0097,0.9918,0.987,0.9866,0.9938,0.9836,0.9831,0.9903,0.9805,0.9805,0.9899,0.9805,0.9899,1.0086,1.0086,0.9992,0.9805,0.9859,0.9956,0.9958,1.0529,1.0909,1.077,1.1236,1.1381,1.0948,1.0556,0.0,0.9543,1.0098,1.0282,0.9831,1.0784,1.1077,1.0661,1.0502,1.0545,1.0858,1.0943,1.0674,1.0121,1.0358,0.9901,0.899,0.8764,0.8659,0.0,0.0,0.0,0.0,0.0,0.0,0.0,0.0,0.0,0.0,0.0,0.0,0.0,0.0,0.0,1.0717,1.186,1.28,1.2959,1.324,1.3206,1.2802,1.3299,1.3492,1.3176,1.3566,1.3841,1.3829,1.399,1.4406,1.5091,1.4832,1.46,1.4335,1.3327,1.2242,1.117,1.0488,1.0012,0.9681,1.0006,0.0,0.9685,0.986,0.992,0.9888,0.9961,1.0075,1.0229,1.0412,1.0566,1.0672,1.0465,1.0278,1.0128,1.0128,1.0075,1.001,1.0046,0.9961,0.9835,0.9936,0.9936,0.9928,0.9891,1.0188,0.0,1.0472,1.0463,1.0429,1.048,1.0237,0.9991,1.024,1.0108,1.0006,1.0201,1.0104,1.0006,1.0011,0.9718,0.9327,0.9331,1.0035,1.0454,1.0035,1.0782,1.114,1.0527,1.0653,1.0553,0.9814,0.9511,0.9289,0.9235,0.9105,0.9292,0.9878,1.08,1.1406,1.1618,1.1612,1.1558,1.1455,1.1461,1.0965,0.9877,0.9877,0.9572,0.8835,0.8315,0.8028,0.0,0.0,0.0,0.0,0.0,0.0,0.0,0.0,0.0,0.0,0.0,0.9029,0.0,0.0,1.0861,1.1307,1.2043,1.2692,1.2828,1.3076,1.3286,1.3241,1.3354,1.3417,1.3485,1.3773,1.4001,1.4121,1.4201,1.4576,1.507,1.4942,1.4863,1.4857,1.3831,1.2889,1.1924,1.1038,1.0391,0.9896,1.0075,1.0067,0.9896,0.9985,1.0022,1.0026,1.0119,1.0213,1.031,1.0597,1.0941,1.1122,1.0812,1.0564,1.031,1.0396,1.0375,1.031,1.0396,1.0367,1.029,1.0497,1.0391,1.0274,1.0393,1.054,1.0699,1.0498,1.0577,1.0763,1.0467,1.0335,1.0182,1.0201,1.0054,0.9929,0.9842,0.9727,0.9628,0.9628,0.943,0.9133,0.9031,0.9466,0.9627,0.924,0.9602,0.9786,0.9135,0.9111,0.8913,0.8197,0.8005,0.7834,0.7566,0.8107,0.9114,1.0548,1.0952,1.0996,1.0702,1.1192,1.1,1.0038,1.0624,1.0181,0.8687,0.8772,0.8353,0.7566,0.732,0.7498,0.0,0.0,0.0,0.0,0.0,0.0,0.0,0.0,0.8262,0.8516,0.9276,0.9976,1.0242,1.0906,1.1533,1.1998,1.2272,1.2463,1.2674,1.2958,1.3267,1.3719,1.3454,1.3404,1.3823,1.397,1.405,1.4268,1.4298,1.4508,1.4936,1.4808,1.4889,1.531,1.4455,1.3584,1.2988,1.2133,1.1337,1.0573,1.0573,1.0369,1.016,1.016,1.016,1.0172,1.0318,1.051,1.0551,1.1016,1.1315,1.1459,1.124,1.082,1.0501,1.0639,1.0603,1.0505,1.0643,1.0692,1.0692,1.0911,1.0911,1.0668,1.0854,1.0808,1.0667,1.0412,1.0577,1.0779,1.033,1.0422,1.0481,1.0084,0.9908,0.9746,0.931,0.926,0.9133,0.9034,0.9034,0.8931,0.873,0.8627,0.8531,0.8333,0.8333,0.8192,0.7872,0.7734,0.7478,0.689,0.6948,0.6979,0.686,0.8065,0.9579,1.1302,1.1248,1.071,0.9766,1.0598,1.0367,0.8614,0.9691,0.928,0.7488,0.7631,0.7165,0.6221,0.6403,0.6948,0.644,0.705,0.798,0.7253,0.8003,0.8871,0.0,0.0,0.9331,1.0009,1.0633,1.1087,1.1294,1.1793,1.2161,1.2294,1.2506,1.2674,1.2699,1.2919,1.3237,1.3513,1.3658,1.3803,1.3862,1.4106,1.4238,1.4292,1.4298,1.4298,1.44,1.4598,1.4706,1.4833,1.4234,1.3958,1.4086,1.3404,1.2602,1.17,1.17,1.1187,1.016,1.016,1.016,1.0164,1.0494,1.0809,1.1185,1.1313,1.1203,1.1126,1.1126,1.0899,1.0668,1.0684,1.068,1.0668,1.0684,1.0692,1.0692,1.0692,1.0692,1.0688,1.0668,1.0773,1.066,1.0639,1.074,1.0707,1.0444,1.0404,1.0359,1.0176,1.0006,0.9778,0.956,0.9338,0.9034,0.8535,0.8531,0.8435,0.8137,0.8137,0.8038,0.8038,0.8038,0.8035,0.8018,0.7703,0.7324,0.7112,0.7567,0.8501,0.996,1.0058,1.0652,1.1877,1.1684,1.1284,1.054,1.1337,1.1013,0.9089,0.9818,0.9385,0.7529,0.7394,0.6952,0.6158,0.6161,0.6441,0.8281,0.8057,0.0,0.0,0.8871,0.9087,0.9135,0.9447,0.9942,1.0381,1.0993,1.1484,1.1742,1.2075,1.2361,0.0,1.2771,1.2952,1.2952,1.3338,1.3592,1.3489,1.3833,1.4135,1.4172,1.4196,1.4298,1.4298,1.4298,1.4298,1.4298,1.4394,1.4569,1.4735,1.4045,1.3836,1.4236,1.3511,1.2995,1.2694,1.2167,1.1745,1.122,1.0683,1.0469,1.0469,1.0576,1.0837,1.1233,1.1233,1.1281,1.135,1.1126,1.1021,1.0911,1.0802,1.0692,1.0692,1.0692,1.0692,1.0692,1.0692,1.0692,1.0692,1.0692,1.0692,1.0692,1.0692,1.0802,1.0891,1.0603,1.0691,1.0617,0.9906,0.9653,0.9484,0.8585,0.8348,0.824,0.7753,0.7736,0.7637,0.7537,0.7537,0.7537,0.7537,0.7839,0.8038,0.8038,0.769,0.7356,0.6958,0.6937,0.7521,0.8847,0.9343,1.0067,1.1076,1.1081,1.0666,0.975,1.0025,0.9332,0.7389,0.8246,0.8004,0.6646,0.659,0.65,0.6367,0.6441,0.6765,0.9157,0.0,0.0,1.0002,1.0334,1.0378,0.9939,1.0324,1.0686,1.0815,1.1272,1.1721,1.2064,1.2265,1.2454,1.2807,1.2988,1.3151,1.3224,1.3556,1.3713,1.3658,1.3981,1.422,1.4292,1.4389,1.4407,1.4304,1.437,1.4377,1.4298,1.4298,1.4425,1.4708,1.4178,1.4225,1.4659,1.4201,1.3885,1.3722,1.3078,1.2649,1.2436,1.1559,1.1017,1.0802,1.0802,1.1017,1.1236,1.1236,1.1345,1.1459,1.1236,1.1017,1.1017,1.0802,1.0692,1.0692,1.0692,1.0692,1.0692,1.0692,1.0692,1.0692,1.0692,1.0692,1.0692,1.0692,1.0802,1.0911,1.0802,1.0798,1.072,0.9663,0.944,0.9184,0.8021,0.7801,0.7715,0.7311,0.7293,0.7381,0.764,0.7434,0.7335,0.7633,0.7736,0.7739,0.7739,0.7842,0.7839,0.8028,0.7831,0.7962,0.8639,0.925,0.9712,1.0086,1.0129,0.9634,0.8703,0.8792,0.8067,0.623,0.7039,0.7058,0.6181,0.6247,0.6342,0.6565,0.6757,0.7095,0.0,0.0,1.0816,1.1261,1.2579,1.3426,1.1866,1.1866,1.2075,1.1443,1.1494,1.1849,1.2266,1.2357,1.2537,1.2979,1.3115,1.3212,1.3465,1.3519,1.3616,1.3857,1.3906,1.4014,0.0,1.4514,1.4574,1.4322,1.4552,1.4582,1.431,1.4298,1.4425,1.4708,1.4962,1.533,1.5817,1.6076,1.5773,1.4905,1.49,1.4476,1.3619,1.2743,1.1878,1.1126,1.1126,1.1236,1.1568,1.1568,1.135,1.1126,1.1126,1.0911,1.0692,1.0692,1.0692,1.0692,1.0692,1.0692,1.0692,1.0692,1.0692,1.0692,1.0692,1.0692,1.0692,1.0692,1.0692,1.0692,1.0692,1.0692,1.0534,0.9812,0.9542,0.9108,0.8262,0.7946,0.7744,0.7437,0.7437,0.7699,0.8553,0.7932,0.7534,0.8627,0.7832,0.7238,0.7238,0.7935,0.9019,1.0877,1.1068,1.1063,1.1063,1.088,1.0278,0.9319,0.9067,0.8509,0.758,0.8415,0.8121,0.6357,0.7089,0.7149,0.6426,0.6606,0.6709,0.6833,0.7033,0.7335,0.0,0.0,1.2055,1.3182,1.3326,1.3185,1.316,1.3292,1.3431,1.3526,1.3039,1.2531,1.2447,1.2,1.1863,1.2379,1.2861,1.3296,1.3737,1.3924,1.4002,1.3918,1.4057,0.0,0.0,0.0,0.0,1.4304,1.4383,1.4395,1.4304,1.4473,1.4795,1.5257,1.554,1.5811,1.6187,1.628,1.6105,1.5559,1.4369,1.3506,1.2852,1.1773,1.1122,1.0802,1.0802,1.0911,1.1021,1.1021,1.0911,1.0802,1.0802,1.0802,1.0692,1.0692,1.0692,1.0692,1.0692,1.0692,1.0692,1.0692,1.0692,1.0692,1.0692,1.0692,1.0692,1.0692,1.0692,1.0582,1.0253,1.0058,0.9715,0.8587,0.8302,0.8004,0.7205,0.6998,0.6927,0.6927,0.7363,0.7915,0.8369,0.8592,0.8718,0.8322,0.763,0.7138,0.6942,0.7141,0.7832,0.8909,0.8411,0.8315,0.9008,0.8958,0.8826,0.8434,0.8387,0.8164,0.7875,0.7482,0.692,0.638,0.6631,0.6651,0.6437,0.6498,0.66,0.6845,0.6942,0.7042,0.0,1.2976,1.3237,1.4539,1.4435,1.412,1.4497,1.4646,1.4648,1.4728,1.3512,1.2486,1.239,1.1664,1.1255,1.2017,1.2573,1.3117,1.3653,1.3872,1.4026,1.3956,1.4022,1.4129,0.0,0.0,0.0,1.4298,1.4389,1.4443,1.4443,1.4618,1.4977,1.5528,1.5719,1.5842,1.6105,1.6111,1.6105,1.5891,1.4905,1.4148,1.328,1.2743,1.2309,1.1878,1.1446,1.1341,1.1232,1.0907,1.0692,1.0692,1.0692,1.0692,1.0692,1.0692,1.0692,1.0692,1.0692,1.0692,1.0692,1.0692,1.0692,1.0692,1.0692,1.0692,1.0692,1.0692,1.0582,1.0253,0.9926,0.9584,0.8987,0.7986,0.7706,0.7416,0.6636,0.6562,0.6722,0.7129,0.7668,0.8317,0.9164,0.9776,0.9702,0.8219,0.7726,0.7431,0.7238,0.7235,0.7534,0.8517,0.7922,0.7624,0.8021,0.8021,0.7822,0.7428,0.7428,0.7428,0.7428,0.6734,0.6437,0.6437,0.6437,0.6437,0.6437,0.6537,0.6639,0.6845,0.6942,0.7039,1.3233,1.3978,1.4487,1.5433,1.607,1.6365,1.5853,1.5848,1.5674,1.4924,1.3182,1.1866,0.0,0.0,1.0858,1.1846,1.2199,1.2668,1.3438,1.354,1.3576,0.0,0.0,0.0,0.0,0.0,0.0,1.434,0.0,1.4702,1.4714,1.4733,1.4974,1.5487,1.5511,1.5638,1.5891,1.5891,1.5891,1.5891,1.6418,1.598,1.5007,1.5541,1.5102,1.4024,1.2955,1.2417,1.2309,1.1232,1.0802,1.0802,1.0692,1.0692,1.0692,1.0692,1.0692,1.0802,1.0802,1.0692,1.0692,1.0692,1.0692,1.0692,1.0692,1.0692,1.0692,1.0692,1.0253,0.9812,0.9695,0.9138,0.8444,0.7765,0.7528,0.7331,0.6713,0.6611,0.7018,0.8044,0.8248,0.9008,1.0913,1.1268,1.0485,0.8517,0.8021,0.8021,0.7922,0.7925,0.8319,0.941,0.9505,0.9011,0.812,0.7922,0.7528,0.6437,0.6437,0.6437,0.6437,0.6437,0.6437,0.6437,0.6437,0.6437,0.6437,0.6642,0.6745,0.6745,0.7039,0.7138,1.584,1.6146,1.6223,1.6766,1.666,1.6451,1.6517,1.6888,1.6902,1.569,1.3948,1.2262,0.0,0.0,0.0,1.0687,1.164,0.0,1.3362,1.3642,0.0,1.39,0.0,1.4272,1.4577,1.4612,0.0,0.0,1.4594,1.4491,1.4708,1.4902,1.5263,1.5811,1.6014,1.615,1.6217,1.5998,1.5998,1.6217,1.5458,1.5125,1.5013,1.4256,1.3825,1.3501,1.3176,1.3073,1.2965,1.2105,1.1678,1.1564,1.0911,1.0692,1.0692,1.0692,1.1131,1.1678,1.1678,1.1236,1.0692,1.0476,1.0582,1.0692,1.0692,1.0692,1.0582,1.0143,0.9923,0.9567,0.8682,0.822,0.7762,0.7004,0.6777,0.6684,0.6483,0.708,0.7711,0.8126,0.9466,1.092,1.2206,1.1765,1.0974,1.0485,0.9008,0.7723,0.693,0.6833,0.7229,0.8319,0.7726,0.7428,0.7922,0.7229,0.6734,0.6437,0.6437,0.6437,0.6437,0.6437,0.6437,0.6437,0.6437,0.6437,0.6437,0.6437,0.6537,0.6537,0.6137,0.6039,1.6924,1.7261,1.7359,1.739,1.7162,1.6836,1.6475,1.6563,1.6232,1.4718,1.2909,0.0,0.0,0.0,0.0,0.0,0.0,0.0,1.3117,1.3419,1.3659,0.0,1.4044,0.0,1.4671,1.468,1.48,0.0,1.4823,1.4769,1.5046,1.5197,1.5506,1.5878,1.6031,1.6105,1.6105,1.5998,1.5998,1.6111,1.5571,1.5458,1.5559,1.5013,1.4793,1.4793,1.4261,1.4051,1.3948,1.2994,1.2574,1.2574,1.2023,1.1791,1.1882,1.1882,1.2105,1.254,1.2432,1.2105,1.1778,1.1669,1.1664,1.1882,1.1882,1.1607,1.1233,1.055,0.9975,0.9251,0.8081,0.7529,0.7185,0.6546,0.6726,0.7129,0.7129,0.7922,0.884,0.943,1.0852,1.2216,1.2683,1.2262,1.1765,1.1272,0.9797,0.8319,0.7229,0.6734,0.6634,0.7229,0.6734,0.6634,0.7229,0.6734,0.6437,0.6437,0.6437,0.6437,0.6437,0.6437,0.6437,0.6437,0.6437,0.6437,0.6437,0.6137,0.6034,0.6037,0.5534,0.5236,1.7252,1.7775,1.7853,1.7463,1.7539,1.7321,1.6012,1.5573,1.4844,1.2911,0.0,0.9651,0.9098,0.0,0.9544,0.9748,0.0,1.2681,1.3074,1.3252,1.3515,1.3998,1.3985,1.4211,1.4669,1.48,1.4903,1.5209,1.5215,1.5294,1.5487,1.5499,1.562,1.5879,1.5891,1.5891,1.5891,1.5891,1.5891,1.5891,1.6111,1.6217,1.6217,1.6524,1.6624,1.6518,1.5553,1.5131,1.5035,1.3888,1.3464,1.3464,1.3355,1.333,1.329,1.329,1.3398,1.3403,1.3186,1.3398,1.3614,1.329,1.329,1.329,1.329,1.271,1.194,1.1354,1.0189,0.899,0.7794,0.7172,0.6747,0.6215,0.7018,0.7925,0.7925,0.8817,1.0002,1.1175,1.2068,1.2662,1.2565,1.2565,1.2262,1.137,1.0293,0.9308,0.8517,0.7325,0.6534,0.6437,0.6634,0.6734,0.6437,0.6537,0.6534,0.6437,0.6437,0.6437,0.6437,0.6437,0.6437,0.6437,0.6337,0.6337,0.6334,0.5734,0.5534,0.5434,0.4935,0.4734,1.8294,1.8149,1.7705,1.7471,1.7422,1.7013,1.5288,1.5128,0.0,0.0,0.0,0.9228,0.818,0.8068,0.0,1.017,0.0,0.0,0.0,0.0,1.4457,0.0,0.0,0.0,0.0,0.0,0.0,0.0,1.5753,1.568,1.5511,1.5499,1.562,1.5879,1.5891,1.5891,1.5891,1.5891,1.5891,1.5891,1.5998,1.5998,1.5998,1.5998,1.5992,1.5992,1.5779,1.5779,1.5678,1.4719,1.4396,1.4288,1.363,1.33,1.329,1.329,1.3727,1.4385,1.4277,1.4815,1.5131,1.3506,1.3073,1.329,1.329,1.271,1.2018,1.1411,1.0547,0.9537,0.7843,0.7379,0.7024,0.5992,0.655,0.7335,0.7335,0.8924,1.0605,1.1975,1.237,1.2268,1.157,1.1468,1.137,1.1268,1.0293,0.9899,1.0583,0.8909,0.7428,0.6534,0.8021,0.8319,0.6534,0.7229,0.7329,0.6437,0.6437,0.6437,0.6437,0.6437,0.6437,0.6437,0.5934,0.5734,0.5734,0.5236,0.4935,0.4935,0.4433,0.4133,1.8101,1.8125,1.8017,1.7952,1.755,1.6642,1.4586,0.0,0.0,0.0,0.0,0.8044,0.7154,0.0,0.0,0.0,0.0,0.0,0.0,0.0,0.0,0.0,0.0,0.0,0.0,0.0,0.0,0.0,1.5891,1.5831,1.571,1.5698,1.5759,1.5885,1.5891,1.5891,1.5891,1.5891,1.5891,1.5891,1.5891,1.5891,1.5891,1.5891,1.5891,1.5891,1.5891,1.5891,1.5891,1.5464,1.5244,1.5244,1.4809,1.4696,1.4696,1.4696,1.4917,1.5244,1.5244,1.5571,1.5648,1.4333,1.4163,1.4567,1.412,1.3493,1.2581,1.1631,1.0768,0.9784,0.8364,0.8146,0.8008,0.7256,0.8024,0.9019,0.9608,1.0502,1.1389,1.2078,1.2175,1.2073,1.1868,1.177,1.1868,1.1965,1.1077,1.0587,1.117,1.0288,0.9304,0.8219,0.8517,0.8319,0.7329,0.7229,0.6933,0.6434,0.6437,0.6437,0.6437,0.6134,0.5934,0.5934,0.5436,0.5135,0.5135,0.4634,0.4433,0.4332,0.3831,0.3632,1.7674,1.7995,1.8329,1.8175,1.7525,1.6316,1.3915,1.2636,0.0,0.0,0.0,0.7139,0.6619,0.0,0.0,0.0,0.0,0.0,0.0,0.0,0.0,0.0,0.0,0.0,0.0,0.0,0.0,0.0,1.5891,1.5891,1.5891,1.5891,1.5891,1.5891,1.5891,1.5891,1.5891,1.5891,1.5891,1.5891,1.5891,1.5891,1.5891,1.5891,1.5891,1.5891,1.5891,1.5891,1.5891,1.5891,1.5891,1.5891,1.5891,1.5891,1.5891,1.5891,1.5891,1.5879,1.5719,1.5589,1.5547,1.4647,1.4949,1.5541,1.4647,1.3876,1.3067,1.1937,1.1078,1.0121,0.9109,0.9015,0.9086,0.8744,0.9509,1.0507,1.1585,1.178,1.1883,1.1878,1.1878,1.1883,1.198,1.198,1.2073,1.2365,1.1668,1.1175,1.1468,1.157,1.1179,1.0395,0.9505,0.8814,0.8418,0.7528,0.7033,0.6734,0.6434,0.6237,0.6237,0.5737,0.5434,0.5434,0.4935,0.4634,0.4634,0.4133,0.3831,0.3831,0.3432,0.323,1.7364,1.7749,1.794,1.7438,1.7098,1.6202,1.3407,0.0,0.0,0.0,0.7989,0.7433,0.7324,0.7141,0.0,0.0,0.0,0.0,0.0,0.0,0.0,0.0,0.0,0.0,0.0,0.0,0.0,1.5891,1.5891,1.5891,1.5891,1.5891,1.5891,1.5891,1.5891,1.5891,1.5891,1.5891,1.5891,1.5891,1.5891,1.5891,1.5891,1.5891,1.5891,1.5891,1.5891,1.5891,1.5891,1.5891,1.5891,1.5891,1.5891,1.5891,1.5891,1.5891,1.5891,1.5749,1.5077,1.4786,1.4641,1.387,1.4166,1.4636,1.387,1.3116,1.2435,1.2334,1.1781,1.0824,0.983,0.9533,0.9529,0.9513,0.9608,1.0002,1.0998,1.1292,1.1389,1.1585,1.1683,1.1389,1.0703,1.0605,1.0699,1.0979,1.0881,1.1272,1.2467,1.2662,1.2662,1.2565,1.2462,1.1575,0.9608,0.9406,0.8913,0.7925,0.6431,0.5634,0.5634,0.5135,0.4834,0.4834,0.4334,0.4033,0.4033,0.3531,0.323,0.323,0.323,0.323,1.6644,1.7064,1.7235,1.6928,1.6085,1.478,1.2915,0.0,0.0,0.8826,0.7953,0.7517,0.7553,0.7429,0.7695,0.0,1.0068,1.1638,0.0,0.0,0.0,0.0,0.0,0.0,0.0,0.0,0.0,1.5891,1.5891,1.5891,1.5891,1.5891,1.5891,1.5891,1.5891,1.5891,1.5891,1.5891,1.5891,1.5891,1.5891,1.5891,1.5891,1.5891,1.5891,1.5891,1.5891,1.5891,1.5891,1.5891,1.5891,1.5891,1.5891,1.5678,1.5357,1.5357,1.5157,1.4907,1.4384,1.4244,1.4076,1.3324,1.3308,1.3469,1.2967,1.2777,1.2479,1.1845,1.1457,1.1096,1.0699,1.06,1.06,1.06,1.06,1.0699,1.1096,1.1194,1.1194,1.1296,1.1389,1.1292,1.1194,1.1096,1.1194,1.1477,1.1477,1.1678,1.2273,1.2273,1.2273,1.2273,1.2068,1.1473,1.0685,0.9998,0.9011,0.7621,0.6924,0.6129,0.5133,0.4634,0.4334,0.4334,0.3833,0.3531,0.3531,0.3331,0.323,0.323,0.323,0.323,1.5973,1.6619,1.6995,1.6759,1.5581,1.4061,0.0,0.0,0.9597,0.8588,0.8036,0.769,0.7682,0.7702,0.7875,0.834,0.9357,1.0766,1.256,0.0,0.0,0.0,0.0,0.0,0.0,0.0,0.0,1.5891,1.5891,1.5891,1.5891,1.5891,1.5891,1.5891,1.5891,1.5891,1.5891,1.5891,1.5891,1.5891,1.5891,1.5891,1.5891,1.5891,1.5891,1.5891,1.5891,1.5785,1.5678,1.5785,1.5672,1.5458,1.5565,1.525,1.4809,1.4742,1.4501,1.4124,1.3663,1.3502,1.3313,1.2578,1.2407,1.2412,1.2109,1.2208,1.2277,1.1433,1.1194,1.1194,1.1194,1.1194,1.1194,1.1194,1.1194,1.1194,1.1194,1.1194,1.1194,1.1194,1.1194,1.1296,1.1487,1.1487,1.159,1.1883,1.1883,1.1878,1.198,1.198,1.198,1.198,1.1272,1.0877,1.1277,1.0391,0.9308,0.8018,0.7123,0.6229,0.5033,0.4234,0.3732,0.3732,0.3432,0.323,0.323,0.323,0.323,0.323,0.323,0.323,1.5382,1.6619,1.7372,1.7004,1.599,1.4603,0.0,1.1058,0.977,0.863,0.8291,0.8085,0.7765,0.7848,0.7909,0.7547,0.9006,1.0487,1.1431,0.0,0.0,0.0,0.0,0.0,0.0,0.0,1.5891,1.5891,1.5891,0.0,1.5891,1.5891,1.5891,1.5891,1.5891,1.5891,1.5891,1.5891,1.5891,1.5891,1.5891,1.5891,1.5891,1.5891,1.5891,1.5891,1.5891,1.5571,1.5035,1.5678,1.5244,1.4277,1.4821,1.4713,1.4137,1.4017,1.3935,1.376,1.277,1.2414,1.2274,1.1461,1.1394,1.159,1.1296,1.1394,1.159,1.1292,1.1194,1.1194,1.1194,1.1194,1.1194,1.1194,1.1194,1.1194,1.1194,1.1194,1.1194,1.1194,1.1194,1.1194,1.1194,1.1194,1.1296,1.1585,1.1585,1.1683,1.198,1.198,1.198,1.198,1.0583,1.0186,1.1487,1.0886,1.0194,0.9608,0.7126,0.5636,0.5634,0.4033,0.323,0.323,0.323,0.323,0.323,0.323,0.323,0.323,0.323,0.323,1.3012,1.3573,1.3798,1.3768,1.2663,1.1383,1.0699,0.9702,0.8788,0.8224,0.8238,0.8291,0.8201,0.8275,0.8384,0.8566,0.9248,0.0,0.0,0.0,0.0,0.0,0.0,0.0,0.0,0.0,1.5891,1.5891,1.5891,1.5891,1.5891,1.5891,1.5891,1.5891,1.5891,1.5891,1.5891,1.5891,1.5891,1.5891,1.5891,1.5678,1.525,1.525,1.5035,1.4708,1.4708,1.46,1.4493,1.4708,1.4493,1.4169,1.4385,1.396,1.3386,1.3319,1.2992,1.2511,1.1961,1.1815,1.1771,1.1609,1.1492,1.1585,1.1492,1.1492,1.1585,1.1292,1.1194,1.1194,1.1194,1.1194,1.1194,1.1194,1.1194,1.1194,1.1194,1.1194,1.1194,1.1194,1.1194,1.1194,1.1194,1.1194,1.1194,1.1292,1.1292,1.1389,1.1487,1.1487,1.1292,1.0998,1.06,1.0391,1.0284,0.9686,0.8492,0.6407,0.6213,0.5322,0.3527,0.2925,0.2623,0.2623,0.2623,0.2623,0.2623,0.2623,0.2623,0.2623,0.2623,0.2623,0.0,1.1776,1.1934,1.2132,1.117,1.0061,0.9813,0.904,0.8322,0.8105,0.8265,0.8414,0.8455,0.8521,0.8665,0.9003,0.9277,0.0,0.0,0.0,0.0,0.0,0.0,0.0,0.0,1.5921,1.5891,1.5891,1.5891,1.5891,1.5891,1.5891,1.5891,1.5891,1.5891,1.5891,1.5891,1.5891,1.5785,1.5571,1.5571,1.525,1.4713,1.4713,1.4493,1.4169,1.4169,1.4008,0.0,1.404,1.3773,1.3371,1.3588,1.3182,1.2526,1.2442,1.2142,1.1707,1.1425,1.1406,1.1487,1.1487,1.1487,1.1487,1.159,1.1492,1.1389,1.1292,1.1194,1.1194,1.1194,1.1194,1.1194,1.1194,1.1194,1.1194,1.1194,1.1194,1.1194,1.1194,1.1194,1.1194,1.1194,1.1194,1.1194,1.1194,1.1194,1.1096,1.09,1.0904,1.0708,1.0117,0.971,0.9103,0.8202,0.8696,0.81,0.5815,0.5914,0.5118,0.3123,0.2622,0.2422,0.2422,0.2422,0.2422,0.2422,0.2422,0.2422,0.2422,0.2422,0.2422,0.0,0.0,0.0,0.0,0.0,1.0034,0.9473,0.8825,0.0,0.8142,0.8222,0.834,0.8503,0.861,0.877,0.9051,0.0,0.0,0.0,0.0,0.0,0.0,0.0,0.0,0.0,1.584,1.5891,1.5891,1.5891,1.5891,1.5891,1.5891,1.5879,1.5861,1.5861,1.5861,1.5861,1.5737,1.5405,1.4877,1.4877,1.4657,1.4116,1.4116,1.4116,1.4008,1.4008,1.3565,1.2946,1.3483,1.2934,1.1817,1.2442,1.2329,1.1775,1.1586,1.151,1.1468,1.1264,1.1194,1.1194,1.1194,1.1194,1.1292,1.1487,1.1389,1.1194,1.1194,1.1194,1.1194,1.1194,1.1194,1.1194,1.1194,1.1194,1.1194,1.1194,1.1194,1.1194,1.1194,1.1194,1.1194,1.1194,1.1194,1.1194,1.1194,1.1194,1.0998,1.0507,1.0413,1.0117,0.9624,0.8223,0.6822,0.5724,0.7912,0.851,0.6921,0.5924,0.4924,0.3825,0.2822,0.2321,0.2321,0.2321,0.2321,0.2321,0.2321,0.2321,0.2321,0.2321,0.2321,0.6984,0.0,0.7914,0.8034,0.765,0.7218,0.0,0.7116,0.0,0.0,0.0,0.0,0.0,0.0,0.0,0.0,0.0,0.0,0.0,0.0,0.0,0.0,0.0,0.0,0.0,1.5646,1.5891,1.5891,1.5891,1.5891,1.5891,1.5891,1.5583,1.4954,1.4949,1.4949,1.4949,1.4337,1.4034,1.3827,1.3827,1.3522,1.3013,1.3013,1.2799,1.2377,1.2377,1.2248,1.2096,1.22,1.2067,1.1817,1.1921,1.1825,1.1581,1.1534,1.1416,1.1264,1.1212,1.1194,1.1194,1.1194,1.1194,1.1292,1.1487,1.1389,1.1194,1.1487,1.1389,1.1194,1.1194,1.1194,1.1194,1.1194,1.1194,1.1194,1.1194,1.1194,1.1194,1.1194,1.1194,1.1194,1.1194,1.1194,1.1194,1.1194,1.0806,1.0507,1.0413,1.0019,0.9624,0.9027,0.8623,0.7826,0.6331,0.6024,0.5022,0.3022,0.3423,0.3324,0.222,0.1919,0.1818,0.1818,0.1818,0.1818,0.1818,0.1818,0.1818,0.1818,0.1818,0.1818,0.583,0.6255,0.6693,0.691,0.674,0.6591,0.0,0.0,0.0,0.0,0.0,0.0,0.0,0.0,0.0,0.0,0.0,0.0,0.0,0.0,0.0,0.0,0.0,0.0,0.0,1.5722,1.5891,1.5891,1.5891,1.5731,1.5394,1.5388,1.4949,1.4171,1.3848,1.3848,1.4166,1.3724,1.3356,1.3157,1.3157,1.2848,1.2339,1.2339,1.2127,1.1817,1.1817,1.1765,1.168,1.168,1.1619,1.1529,1.1529,1.1468,1.1368,1.1368,1.1293,1.1194,1.1194,1.1194,1.1194,1.1194,1.1194,1.1292,1.1487,1.1492,1.1389,1.1585,1.1492,1.1389,1.1194,1.1194,1.1194,1.1194,1.1194,1.1194,1.1194,1.1194,1.1194,1.1194,1.1194,1.1194,1.1194,1.0998,1.0801,1.0801,1.0413,0.992,0.9715,0.9422,0.8829,0.7829,0.773,0.693,0.5131,0.4425,0.3524,0.2422,0.2923,0.2722,0.1617,0.1617,0.1617,0.1617,0.1617,0.1617,0.1617,0.1617,0.1617,0.1617,0.1617,0.1617,0.5581,0.6165,0.6766,0.6845,0.6873,0.6884,0.0,0.0,0.0,0.0,0.0,0.0,0.0,0.0,0.0,0.0,0.0,0.0,0.0,0.0,0.0,0.0,0.0,0.0,1.5728,1.5807,1.5831,1.5831,1.5795,1.5352,1.4711,1.459,1.4166,1.3405,1.2703,1.2677,1.3137,1.3143,1.2944,1.2444,1.2444,1.224,1.1723,1.1723,1.1723,1.1723,1.1723,1.1624,1.1468,1.1468,1.1359,1.1194,1.1194,1.1194,1.1194,1.1194,1.1194,1.1194,1.1194,1.1194,1.1194,1.1194,1.1194,1.1292,1.1487,1.1585,1.1585,1.1585,1.1585,1.1585,1.1292,1.1292,1.1292,1.1194,1.1194,1.1194,1.1194,1.1194,1.1194,1.1194,1.1194,1.1194,1.1096,1.0703,1.0413,1.0314,0.9821,0.9225,0.8726,0.8524,0.7928,0.6334,0.6234,0.5432,0.3324,0.3224,0.3123,0.2923,0.2923,0.2521,0.1617,0.1617,0.1617,0.1617,0.1617,0.1617,0.1617,0.1617,0.1617,0.1617,0.1617,0.1617,0.6012,0.6662,0.7095,0.6418,0.6266,0.6363,0.0,0.0,0.0,0.0,0.0,0.0,0.0,0.0,0.0,0.0,0.0,0.0,0.0,0.0,0.0,0.0,0.0,1.5597,1.5246,1.564,1.567,1.524,1.5039,1.4686,1.4339,1.3918,1.34,1.2968,1.2625,1.2134,1.1584,1.1584,1.1486,1.1392,1.1392,1.1387,1.1288,1.1288,1.1288,1.1288,1.1288,1.1274,1.1246,1.1246,1.1227,1.1194,1.1194,1.1194,1.1194,1.1194,1.1194,1.1194,1.1194,1.1194,1.1194,1.1194,1.1194,1.1292,1.1487,1.1585,1.1585,1.1585,1.178,1.1883,1.159,1.159,1.1487,1.1292,1.1194,1.1194,1.1194,1.1194,1.1194,1.1194,1.1194,1.11,1.0609,1.0413,1.0216,0.9821,0.9225,0.8627,0.7928,0.7428,0.6628,0.5529,0.5429,0.4828,0.3324,0.3224,0.2822,0.1919,0.1818,0.1818,0.1617,0.1617,0.1617,0.1617,0.1617,0.1617,0.1617,0.1617,0.1617,0.1617,0.1617,0.1617,0.6287,0.6597,0.6894,0.6935,0.7145,0.7361,0.0,0.0,0.0,0.0,0.0,0.0,0.0,0.0,0.0,0.0,0.0,0.0,0.0,0.0,0.0,0.0,0.0,1.502,1.4886,1.48,1.4659,1.4241,1.4134,1.3914,1.3478,1.3265,1.2857,1.2335,1.2231,1.1983,1.1394,1.1394,1.1292,1.1194,1.1194,1.1194,1.1194,1.1194,1.1194,1.1194,1.1194,1.1194,1.1194,1.1194,1.1194,1.1194,1.1194,1.1194,1.1194,1.1194,1.1194,1.1194,1.1194,1.1194,1.1194,1.1194,1.1194,1.1194,1.1389,1.1487,1.1585,1.1585,1.1688,1.1683,1.1487,1.1389,1.1389,1.1194,1.1194,1.1194,1.1194,1.1194,1.1194,1.1194,1.0998,1.0708,1.0413,0.9916,0.9418,0.9225,0.873,0.8031,0.7229,0.693,0.6129,0.4529,0.4329,0.3827,0.2422,0.2321,0.2119,0.1617,0.1617,0.1617,0.1617,0.1617,0.1617,0.1617,0.1617,0.1617,0.1617,0.1617,0.1617,0.1617,0.1617,0.1617,0.6514,0.6639,0.6819,0.7579,0.0,0.0,0.0,0.0,0.0,0.0,0.0,0.0,0.0,0.0,0.0,0.0,0.0,0.0,0.0,0.0,1.3945,1.4874,1.4551,1.438,1.4546,1.4225,1.3886,1.3474,1.3319,1.3116,1.2636,1.2527,1.2251,1.1888,1.1878,1.1785,1.1585,1.1683,1.1585,1.1292,1.1292,1.1292,1.1292,1.1292,1.1296,1.1194,1.1194,1.1194,1.1194,1.1194,1.1194,1.1194,1.1194,1.1194,1.1194,1.1194,1.1194,1.1194,1.1194,1.1194,1.1194,1.1194,1.1194,1.1194,1.1194,1.1292,1.1487,1.1487,1.1487,1.1487,1.1292,1.1292,1.1292,1.1194,1.1194,1.1194,1.1194,1.1194,1.1194,1.0998,1.0703,1.031,1.0113,0.9118,0.8425,0.8627,0.7829,0.7033,0.6528,0.6229,0.5529,0.3828,0.3629,0.3226,0.212,0.1717,0.1617,0.1617,0.1617,0.1617,0.1617,0.1617,0.1617,0.1617,0.1617,0.1617,0.1617,0.1617,0.1617,0.1617,0.1617,0.1617,0.6779,0.7148,0.7477,0.7822,0.0,0.0,0.0,0.0,0.0,0.0,0.0,0.0,0.0,0.0,0.0,0.0,0.0,0.0,0.0,0.0,1.431,1.4644,1.443,1.429,1.4355,1.4277,1.3939,1.3236,1.3035,1.2607,1.2103,1.1609,1.1404,1.159,1.1585,1.159,1.1585,1.1883,1.1883,1.159,1.159,1.159,1.159,1.159,1.1487,1.1194,1.1194,1.1194,1.1194,1.1194,1.1194,1.1194,1.1194,1.1194,1.1194,1.1194,1.1194,1.1194,1.1194,1.1194,1.1194,1.1194,1.1194,1.1194,1.1194,1.1194,1.1194,1.1194,1.1194,1.1292,1.1487,1.159,1.1487,1.1296,1.1194,1.1194,1.1194,1.1194,1.1096,1.0507,1.0413,1.0113,0.9122,0.8021,0.7524,0.7939,0.6329,0.5127,0.5329,0.4632,0.4031,0.3629,0.383,0.3729,0.3123,0.2221,0.1617,0.1617,0.1617,0.1617,0.1617,0.1617,0.1617,0.1617,0.1617,0.1617,0.1617,0.1617,0.1617,0.1617,0.1617,0.1617,0.6823,0.7094,0.0,0.0,0.0,0.0,0.0,0.0,0.0,0.0,0.0,0.0,0.0,0.0,0.0,0.0,0.0,0.0,1.3578,1.3785,1.4022,1.419,1.3862,1.3636,1.3594,1.3243,1.2894,1.2501,1.2319,1.2273,1.2273,1.2078,1.198,1.2078,1.2078,1.198,1.1585,1.1683,1.178,1.1883,1.1883,1.1883,1.1883,1.1683,1.1585,1.1487,1.1292,1.1194,1.1194,1.1194,1.1194,1.1194,1.1194,1.1194,1.1194,1.1194,1.1194,1.1194,1.1194,1.1194,1.1194,1.1194,1.1194,1.1194,1.1194,1.1194,1.1194,1.1194,1.1194,1.1194,1.1292,1.1389,1.1292,1.1194,1.1194,1.1194,1.1194,1.0904,1.0609,1.0413,0.9817,0.932,0.8825,0.823,0.7733,0.7939,0.7335,0.6631,0.6229,0.5932,0.5432,0.463,0.4529,0.3927,0.2523,0.2522,0.2422,0.192,0.1718,0.1617,0.1617,0.1617,0.1617,0.1617,0.1617,0.1617,0.1617,0.1617,0.1617,0.1617,0.1617,0.1617,0.7009,0.7154,0.0,0.0,0.0,0.0,0.0,0.0,0.0,0.0,0.0,0.0,0.0,0.0,0.0,0.0,0.0,1.3678,1.315,1.3317,1.3539,1.354,1.3199,1.297,1.3028,1.2662,1.237,1.2175,1.2175,1.2175,1.2273,1.2273,1.2273,1.2273,1.237,1.2175,1.1883,1.198,1.2078,1.2273,1.2273,1.2175,1.2078,1.198,1.1785,1.1683,1.1487,1.1389,1.1487,1.1292,1.1194,1.1194,1.1194,1.1194,1.1194,1.1194,1.1194,1.1194,1.1194,1.1194,1.1194,1.1194,1.1194,1.1194,1.1194,1.1194,1.1194,1.1194,1.1194,1.1194,1.1194,1.1194,1.1194,1.1194,1.1194,1.1194,1.0998,1.0708,1.0314,0.9916,0.932,0.8726,0.8531,0.7935,0.764,0.7939,0.7434,0.693,0.6731,0.6431,0.6129,0.5729,0.4926,0.4026,0.3127,0.2925,0.2623,0.2021,0.1718,0.1617,0.1617,0.1617,0.1617,0.1617,0.1617,0.1617,0.1617,0.1617,0.1617,0.1617,0.1617,0.1617,0.7334,0.7385,0.0,0.0,0.0,0.0,0.0,0.0,0.0,0.0,0.0,0.0,0.0,0.0,0.0,1.2435,1.3029,1.3222,1.279,1.2946,1.2945,1.274,1.2538,1.2501,1.2737,1.2764,1.2667,1.2467,1.237,1.2273,1.1975,1.198,1.198,1.198,1.2273,1.237,1.237,1.2667,1.2764,1.2764,1.2764,1.2667,1.237,1.237,1.2273,1.198,1.1683,1.178,1.198,1.1389,1.1194,1.1194,1.1194,1.1194,1.1194,1.1194,1.1194,1.1194,1.1194,1.1194,1.1194,1.1194,1.1194,1.1194,1.1194,1.1194,1.1194,1.1194,1.1198,1.1198,1.1198,1.1198,1.1198,1.1194,1.1194,1.0998,1.0507,1.0413,1.0113,0.9023,0.8825,0.8627,0.8038,0.7135,0.6736,0.7839,0.6229,0.5227,0.6234,0.5732,0.5629,0.6728,0.4931,0.4028,0.5129,0.3226,0.2021,0.2022,0.1819,0.1617,0.1617,0.1617,0.1617,0.1617,0.1617,0.1617,0.1617,0.1617,0.1617,0.1617,0.1617,0.1617,0.7111,0.0,0.0,0.0,0.0,0.0,0.0,0.0,0.0,0.0,0.0,0.0,0.0,0.0,0.0,1.2338,1.2609,1.2705,1.2106,1.2083,1.2057,1.1774,1.2011,1.2253,1.2495,1.2667,1.2764,1.2667,1.2667,1.2667,1.257,1.2565,1.2467,1.2273,1.237,1.2273,1.2078,1.2175,1.237,1.2565,1.2565,1.257,1.2662,1.2467,1.237,1.2273,1.1785,1.178,1.198,1.1585,1.1389,1.1194,1.1194,1.1194,1.1194,1.1194,1.1194,1.1194,1.1194,1.1194,1.1194,1.1194,1.1194,1.1194,1.1194,1.1194,1.1096,1.0703,1.1005,1.1188,1.0349,1.0509,1.0771,1.0641,1.0314,1.0019,0.9821,0.9521,0.9221,0.8825,0.7928,0.7033,0.6936,0.6637,0.6537,0.6836,0.6933,0.7132,0.7437,0.7434,0.7329,0.6828,0.7027,0.6825,0.5829,0.5727,0.5325,0.4626,0.3522,0.2621,0.1617,0.1617,0.1617,0.1617,0.1617,0.1617,0.1617,0.1617,0.1617,0.1617,0.1617,0.1617,0.7491,0.0,0.0,0.0,0.0,0.0,0.0,0.0,0.0,0.0,0.0,0.0,0.0,1.2529,0.0,1.2322,1.2331,1.21,1.1499,1.1499,1.1505,1.1227,1.1557,1.1914,1.2056,1.2484,1.2624,1.2624,1.2711,1.2764,1.2764,1.2764,1.2764,1.2565,1.2565,1.2467,1.2273,1.2273,1.237,1.2565,1.2565,1.2662,1.2764,1.2662,1.2467,1.237,1.2078,1.1883,1.1883,1.178,1.159,1.1194,1.1194,1.1194,1.1194,1.1194,1.1349,1.1411,1.1227,1.1406,1.1615,1.1349,1.125,1.1326,1.1326,1.1326,1.1227,1.083,1.102,1.1066,1.0069,0.99,1.0054,1.0044,0.9821,0.9529,0.9327,0.9023,0.8726,0.8531,0.7332,0.6437,0.6437,0.6134,0.6032,0.6534,0.7235,0.7836,0.8233,0.7332,0.693,0.7528,0.6924,0.6426,0.6628,0.5927,0.5325,0.5127,0.3823,0.272,0.1919,0.1718,0.1617,0.1617,0.1617,0.1617,0.1617,0.1617,0.1617,0.1617,0.1617,0.1617,0.0,0.0,0.0,0.0,0.0,0.0,0.0,0.0,0.0,0.0,0.0,0.0,0.0,1.2422,1.2003,1.2242,1.1929,1.1413,1.0982,1.1068,1.1147,1.1018,1.1242,1.1515,1.172,1.2144,1.2382,1.2382,1.2576,1.27,1.27,1.2721,1.2732,1.2732,1.2754,1.2764,1.2764,1.2764,1.2764,1.2764,1.2764,1.2764,1.2764,1.2764,1.2667,1.237,1.237,1.2078,1.159,1.1878,1.1683,1.1198,1.1217,1.1227,1.1227,1.1344,1.1577,1.1922,1.1519,1.1807,1.2172,1.1577,1.1383,1.1543,1.1524,1.1419,1.1414,1.1093,1.0997,1.0865,1.0069,0.9541,0.9256,0.9434,0.943,0.9327,0.8829,0.8627,0.8428,0.7935,0.6936,0.6134,0.6134,0.5532,0.5429,0.6531,0.6933,0.7434,0.8425,0.5929,0.5331,0.8223,0.5427,0.4429,0.7428,0.5029,0.3828,0.463,0.3425,0.2723,0.2522,0.1919,0.1617,0.1617,0.1617,0.1617,0.1617,0.1617,0.1617,0.1617,0.1617,0.1819,0.0,0.0,0.0,0.0,0.0,0.0,0.0,0.0,0.0,0.0,0.0,0.0,1.2301,1.206,1.1866,1.1574,1.1154,1.0809,1.0722,1.0549,1.0574,1.0712,1.1144,1.1452,1.1679,1.1989,1.2124,1.2124,1.2265,1.2297,1.2297,1.2388,1.249,1.249,1.2667,1.2764,1.2764,1.2764,1.2764,1.2764,1.2764,1.2764,1.2764,1.2764,1.2667,1.237,1.237,1.2078,1.1585,1.1683,1.1487,1.1212,1.1582,1.1749,1.1768,1.2238,1.2434,1.247,1.2419,1.2464,1.253,1.223,1.2128,1.2035,1.1364,1.1217,1.0979,1.0124,1.0184,1.0247,0.9069,0.8929,0.8993,0.8468,0.8336,0.8336,0.8237,0.7534,0.6833,0.6736,0.5231,0.3927,0.3927,0.3927,0.4429,0.5634,0.5934,0.6034,0.6234,0.5832,0.5829,0.6528,0.6725,0.7123,0.7826,0.8024,0.7826,0.693,0.5829,0.473,0.3729,0.2524,0.1921,0.1921,0.1921,0.1819,0.1617,0.2019,0.212,0.1921,0.2121,0.222,0.0,0.0,0.0,0.0,0.0,0.0,0.0,0.0,0.0,0.0,0.0,0.0,1.1866,1.1585,1.1322,1.1154,1.0722,1.0463,1.0463,1.0467,1.0554,1.0641,1.1014,1.1273,1.1361,1.1652,1.1881,1.1881,1.2075,1.214,1.214,1.2167,1.2296,1.2414,1.2533,1.2651,1.2764,1.2764,1.2764,1.2764,1.2764,1.2764,1.2764,1.2662,1.2565,1.257,1.2273,1.2078,1.178,1.178,1.1585,1.1413,1.1734,1.2023,1.2148,1.2362,1.2713,1.2997,1.2791,1.2893,1.3146,1.2615,1.2343,1.201,1.1592,1.1189,1.0791,1.0079,1.0016,0.9738,0.8368,0.8089,0.7928,0.7054,0.7135,0.7434,0.7434,0.6634,0.5832,0.5832,0.4427,0.3224,0.3224,0.3525,0.4028,0.4931,0.5033,0.5231,0.5732,0.4929,0.4728,0.5829,0.5625,0.5824,0.6924,0.6523,0.6124,0.6029,0.5029,0.423,0.3632,0.2826,0.2323,0.2222,0.2222,0.212,0.2019,0.222,0.2321,0.2222,0.2321,0.2422,0.0,0.0,0.0,0.0,0.0,0.0,0.0,0.0,0.0,0.0,0.0,1.1327,1.1499,1.1068,1.0722,1.0895,1.0641,1.0381,1.0381,1.0554,1.0727,1.0733,1.0916,1.1008,1.1008,1.1438,1.1639,1.1639,1.1817,1.193,1.193,1.1968,1.2081,1.2285,1.2328,1.2463,1.27,1.27,1.2721,1.2764,1.2764,1.2764,1.2764,1.257,1.2565,1.2764,1.2273,1.2078,1.2078,1.198,1.1878,1.1707,1.1929,1.2219,1.2344,1.2464,1.2868,1.332,1.2967,1.3136,1.3469,1.2919,1.2265,1.1817,1.1676,1.1137,1.0597,1.0255,0.994,0.94,0.8161,0.7431,0.6936,0.6034,0.6132,0.6429,0.6531,0.5729,0.4929,0.4929,0.3825,0.2923,0.3024,0.3324,0.3726,0.4028,0.4028,0.4327,0.5227,0.3626,0.3123,0.5127,0.3726,0.3525,0.5527,0.4026,0.3324,0.4228,0.3527,0.3026,0.3029,0.2927,0.2724,0.2522,0.2422,0.2422,0.2422,0.2522,0.2522,0.2422,0.2522,0.2623,0.0,0.0,0.0,0.0,0.0,0.0,0.0,0.0,0.0,0.0,0.0,1.1241,1.1154,1.0982,1.0895,1.0727,1.0727,1.0641,1.0641,1.0641,1.0733,1.0916,1.1008,1.1094,1.1267,1.1294,1.131,1.131,1.1429,1.1445,1.1445,1.1634,1.1758,1.1795,1.1989,1.2215,1.2457,1.2463,1.2565,1.2764,1.2764,1.2764,1.2764,1.2764,1.2764,1.2759,1.2467,1.237,1.237,1.2078,1.198,1.2001,1.2417,1.2604,1.2736,1.318,1.3394,1.3545,1.3613,1.3268,1.2759,1.2675,1.2173,1.1376,1.0684,1.0412,1.026,0.9805,0.9359,0.8851,0.873,0.7726,0.683,0.6631,0.5629,0.4931,0.5634,0.4732,0.3828,0.3828,0.2724,0.1919,0.2122,0.2223,0.2323,0.2622,0.2622,0.2723,0.2822,0.2622,0.2521,0.2822,0.3423,0.3924,0.4225,0.4824,0.4824,0.4124,0.3925,0.3425,0.2522,0.2724,0.2826,0.2725,0.2725,0.2623,0.2422,0.2826,0.2927,0.2725,0.3027,0.313,0.0,0.0,0.0,0.0,0.0,0.0,0.0,0.0,0.0,0.0,1.0362,1.0516,1.059,1.0636,1.0641,1.0727,1.0819,1.0911,1.0911,1.0997,1.1084,1.1176,1.1181,1.1181,1.1262,1.1262,1.1262,1.1262,1.1262,1.1262,1.1262,1.1276,1.1388,1.152,1.1531,1.1603,1.1838,1.2068,1.2437,1.2764,1.2764,1.2764,1.2764,1.2764,1.2764,1.2764,1.2565,1.237,1.237,1.2273,1.2175,1.2294,1.2626,1.2809,1.2931,1.318,1.3372,1.3491,1.3278,1.2941,1.2668,1.2343,1.1709,1.1012,1.072,1.0318,0.9821,0.9454,0.913,0.8524,0.7528,0.6731,0.5932,0.5033,0.4232,0.383,0.4031,0.3426,0.2823,0.2522,0.202,0.1617,0.1718,0.1921,0.2021,0.2121,0.2222,0.2222,0.2222,0.202,0.202,0.2121,0.2422,0.2723,0.2823,0.3224,0.3225,0.2924,0.2924,0.2724,0.2422,0.2522,0.2623,0.2623,0.2826,0.2927,0.2826,0.313,0.313,0.3029,0.313,0.323,0.0,0.0,0.0,0.0,0.0,0.0,0.0,0.0,0.0,0.0,0.9936,0.9938,1.0149,1.0262,1.0403,1.0631,1.0911,1.1008,1.1008,1.1181,1.1262,1.1262,1.1267,1.1181,1.1181,1.1176,1.1176,1.1176,1.1176,1.1176,1.1181,1.1003,1.0999,1.1258,1.1076,1.1005,1.1319,1.1796,1.2316,1.2576,1.2737,1.2764,1.2764,1.2764,1.2764,1.2764,1.2565,1.2467,1.2467,1.2467,1.2467,1.2489,1.2667,1.283,1.3039,1.3021,1.2988,1.31,1.2746,1.2424,1.2079,1.1723,1.1087,1.0523,1.0523,1.0029,0.943,0.9236,0.8931,0.8326,0.6731,0.5934,0.5236,0.3732,0.323,0.3029,0.2725,0.2522,0.212,0.1718,0.1617,0.1617,0.1617,0.1718,0.1921,0.1921,0.1921,0.1921,0.1921,0.1718,0.1718,0.1921,0.1718,0.1718,0.1921,0.1718,0.1718,0.1921,0.1921,0.2021,0.2221,0.2221,0.2322,0.2322,0.2725,0.3027,0.3027,0.3029,0.313,0.313,0.313,0.3029,0.0,0.0,0.0,0.0,0.0,0.0,0.0,0.0,0.0,0.0,0.9886,0.9889,0.9897,1.0108,1.0403,1.0697,1.0911,1.1008,1.1008,1.1181,1.1262,1.1262,1.1094,1.1008,1.1008,1.0824,1.0727,1.0727,1.0727,1.0819,1.1008,1.0824,1.0829,1.1024,1.084,1.0767,1.1,1.1719,1.2141,1.2157,1.2566,1.2764,1.2764,1.2764,1.2764,1.2764,1.2764,1.2764,1.2764,1.2764,1.2764,1.2764,1.278,1.278,1.2786,1.2797,1.2504,1.2139,1.2248,1.1487,1.0573,1.0751,1.0284,0.964,0.964,0.9438,0.9236,0.9236,0.8832,0.8233,0.7335,0.6337,0.5334,0.4234,0.3328,0.2725,0.2522,0.2222,0.1921,0.1617,0.1617,0.1617,0.1617,0.1617,0.1617,0.1617,0.1617,0.1617,0.1617,0.1617,0.1617,0.1617,0.1617,0.1617,0.1617,0.1617,0.1617,0.1617,0.1617,0.1617,0.1617,0.192,0.2021,0.2021,0.2322,0.2422,0.2422,0.2724,0.2826,0.2826,0.313,0.2623,0.0,0.0,0.0,0.0,0.0,0.0,0.0,0.0,0.0,0.951,0.9716,0.9885,0.9726,1.0034,1.0341,1.0398,1.0603,1.074,1.0804,1.0906,1.0906,1.0906,1.0824,1.0824,1.0824,1.0733,1.0727,1.0727,1.0727,1.0733,1.0824,1.0559,1.0467,1.0559,1.0386,1.0406,1.0811,1.1061,1.1466,1.2136,1.231,1.2523,1.2764,1.2764,1.2764,1.2764,1.2764,1.2764,1.2764,1.2764,1.2764,1.2764,1.2764,1.2764,1.2764,1.237,1.2175,1.1893,1.1279,1.0762,1.0323,1.0095,0.9875,0.9628,0.9628,0.943,0.9133,0.9031,0.8333,0.7335,0.6232,0.5233,0.4332,0.3226,0.2624,0.2222,0.2121,0.2021,0.1921,0.1617,0.1617,0.1617,0.1617,0.1617,0.1617,0.1617,0.1617,0.1617,0.1617,0.1617,0.1617,0.1617,0.1617,0.1617,0.1617,0.1617,0.1617,0.1617,0.1617,0.1617,0.1617,0.1718,0.1718,0.1718,0.1515,0.1716,0.2422,0.2118,0.232,0.2725,0.3031,0.3031,0.0,0.0,0.0,0.0,0.0,0.0,0.0,0.0,0.0,0.9456,0.9627,0.9728,0.9725,0.9896,1.0103,1.0156,1.035,1.0531,1.06,1.0682,1.0727,1.0727,1.0641,1.0554,1.0554,1.0467,1.0472,1.0472,1.0472,1.0467,1.0554,1.0294,1.0207,1.0207,1.0038,1.0109,1.043,1.0597,1.1051,1.1621,1.1963,1.2215,1.2555,1.2727,1.2764,1.2764,1.2764,1.2764,1.2764,1.2764,1.2764,1.2764,1.2764,1.2764,1.2764,1.2175,1.1883,1.1585,1.0703,1.0314,1.0117,0.9727,0.9628,0.9529,0.9126,0.8829,0.8531,0.7922,0.7129,0.6234,0.5029,0.4031,0.3128,0.2423,0.202,0.1819,0.1819,0.1819,0.1819,0.1617,0.1617,0.1617,0.1617,0.1617,0.1617,0.1617,0.1617,0.1617,0.1617,0.1617,0.1617,0.1617,0.1617,0.1617,0.1617,0.1617,0.1617,0.1617,0.1617,0.1617,0.1617,0.1617,0.1516,0.1314,0.101,0.1111,0.1716,0.1412,0.1513,0.2221,0.2527,0.2427,0.0,0.0,0.0,0.0,0.0,0.0,0.0,0.0,0.0,0.9537,0.9556,0.9422,0.9793,0.969,0.9689,0.9898,1.0068,1.0297,1.0302,1.0494,1.0722,1.0717,1.0463,1.0294,1.0294,1.012,1.0038,1.0038,1.0038,1.0125,1.0294,1.012,1.0038,1.0038,1.0043,1.0047,1.0038,1.0435,1.0721,1.0731,1.1621,1.2026,1.2141,1.2555,1.2754,1.2764,1.2759,1.2764,1.2764,1.2764,1.2764,1.2764,1.2759,1.2764,1.2662,1.2175,1.1585,1.11,1.0609,1.0019,0.9628,0.9628,0.9628,0.9426,0.8322,0.7826,0.7329,0.6024,0.5425,0.4929,0.3828,0.2725,0.2022,0.2022,0.1819,0.1617,0.1617,0.1617,0.1617,0.1617,0.1617,0.1617,0.1617,0.1617,0.1617,0.1617,0.1617,0.1617,0.1617,0.1617,0.1617,0.1617,0.1617,0.1617,0.1617,0.1617,0.1617,0.1617,0.1617,0.1617,0.1617,0.1617,0.1314,0.0808,0.0808,0.0707,0.0505,0.0404,0.0606,0.1111,0.1415,0.101,0.4144,0.0,0.0,0.0,0.0,0.0,0.0,0.0,0.0,0.7954,0.8374,0.8734,0.9338,0.9515,0.959,0.9638,0.9843,1.0049,0.9973,1.0267,1.0319,1.0149,1.0201,1.0207,1.0125,1.0038,1.0038,1.0038,1.0038,1.0038,1.0125,1.0038,1.0038,1.0038,1.0102,1.0112,1.0043,1.0257,1.0546,1.0726,1.0935,1.1349,1.1852,1.1913,1.2123,1.2273,1.2467,1.2467,1.2565,1.2764,1.2764,1.2764,1.237,1.2175,1.2078,1.1194,1.0703,1.0507,1.0019,0.9727,0.9628,0.9628,0.9628,0.9529,0.9225,0.8928,0.8432,0.7123,0.6124,0.5027,0.2925,0.2121,0.1718,0.1718,0.1617,0.1617,0.1617,0.1617,0.1617,0.1617,0.1617,0.1617,0.1617,0.1617,0.1617,0.1617,0.1617,0.1617,0.1617,0.1617,0.1617,0.1617,0.1617,0.1617,0.1617,0.1617,0.1617,0.1617,0.1617,0.1617,0.1617,0.1617,0.1314,0.0808,0.0404,0.0101,-0.0202,-0.0202,0.0303,0.1415,0.0808,0.0303,0.3972,0.3928,0.0,0.0,0.0,0.0,0.6072,0.6281,0.0,0.0,0.8388,0.8638,0.9164,0.9322,0.9324,0.9324,0.9514,0.9662,0.9732,0.9953,1.0128,1.005,1.0169,1.0282,1.0289,1.0207,1.0125,1.0125,1.0038,1.0038,1.0038,1.0038,1.0081,1.0083,1.0211,1.0216,1.0088,1.0211,1.0362,1.0546,1.0719,1.1037,1.1567,1.1753,1.1859,1.198,1.2175,1.2273,1.2273,1.2273,1.237,1.237,1.1883,1.1683,1.1585,1.0703,1.0413,1.0314,0.9821,0.9628,0.9628,0.9628,0.9628,0.9426,0.8524,0.8124,0.7627,0.5827,0.4826,0.3924,0.2523,0.192,0.1718,0.1718,0.1718,0.1617,0.1617,0.1617,0.1617,0.1617,0.1617,0.1617,0.1617,0.1617,0.1617,0.1617,0.1617,0.1617,0.1617,0.1617,0.1617,0.1617,0.1617,0.1617,0.1617,0.1617,0.1617,0.1617,0.1617,0.1617,0.1617,0.1415,0.101,0.0505,-0.0101,-0.0404,-0.0606,-0.0808,-0.0505,0.0303,0.0101,-0.0,0.3962,0.4058,0.4159,0.4264,0.405,0.0,0.5996,0.6124,0.6458,0.0,0.8723,0.8564,0.8864,0.8841,0.8794,0.8794,0.8931,0.918,0.9496,0.9802,1.0034,1.0252,1.0302,1.0403,1.0707,1.0467,1.0294,1.0381,1.0207,1.0038,1.0038,1.0062,1.0162,1.0357,1.0319,1.0334,1.0305,1.0334,1.0334,1.031,1.0765,1.1062,1.1282,1.1661,1.1858,1.1878,1.1975,1.1883,1.1883,1.159,1.1688,1.1883,1.1292,1.1096,1.1096,1.0507,1.0314,1.0216,0.9727,0.9628,0.9628,0.9529,0.9529,0.9027,0.7123,0.6423,0.5924,0.3627,0.2724,0.2422,0.2422,0.2221,0.2021,0.2021,0.1819,0.1718,0.1718,0.1617,0.1617,0.1617,0.1617,0.1617,0.1617,0.1617,0.1617,0.1617,0.1617,0.1617,0.1617,0.1617,0.1617,0.1617,0.1617,0.1617,0.1617,0.1617,0.1617,0.1617,0.1516,0.1516,0.1516,0.1111,0.0606,-0.0101,-0.0606,-0.0909,-0.0808,-0.1212,-0.1415,-0.1415,-0.0404,-0.0,0.4381,0.4313,0.4334,0.4384,0.4222,0.0,0.4513,0.4515,0.4746,0.0,0.6301,0.6584,0.7286,0.745,0.744,0.744,0.746,0.7888,0.9175,0.973,1.0036,1.0029,1.0211,1.0403,1.0707,1.0467,1.0381,1.0641,1.0554,1.0554,1.0554,1.0465,1.0493,1.0537,1.0691,1.0693,1.0518,1.0688,1.0688,1.0518,1.0648,1.0782,1.0991,1.1034,1.1236,1.1389,1.1585,1.1389,1.0998,1.0703,1.1096,1.1585,1.0806,1.0609,1.0511,0.992,0.9727,0.9723,0.9628,0.9628,0.9529,0.9331,0.8829,0.8223,0.7528,0.6924,0.6124,0.4529,0.3225,0.2422,0.2422,0.2321,0.2321,0.2321,0.2321,0.222,0.222,0.2121,0.1921,0.1921,0.1718,0.1617,0.1617,0.1617,0.1617,0.1617,0.1617,0.1617,0.1617,0.1617,0.1617,0.1617,0.1617,0.1617,0.1617,0.1617,0.1617,0.1617,0.1212,0.0909,0.0909,0.1313,0.0808,-0.0606,-0.1212,-0.1212,-0.0808,-0.0505,-0.0303,-0.0303,-0.0101,-0.0,0.4471,0.442,0.4438,0.4486,0.4405,0.0,0.0,0.484,0.4992,0.5894,0.6142,0.6318,0.6643,0.6754,0.6773,0.6773,0.6726,0.694,0.7735,0.8608,0.9413,1.0041,1.016,1.0315,1.0627,1.0413,1.0353,1.0458,1.0467,1.0554,1.0727,1.0577,1.0514,1.0626,1.0662,1.0683,1.0575,1.0787,1.0839,1.0735,1.0735,1.0844,1.1047,1.1047,1.1099,1.1189,1.0988,1.0807,1.0502,0.9917,0.9934,1.0314,0.9817,0.9719,0.9727,0.9529,0.9529,0.9628,0.9628,0.9628,0.9529,0.8829,0.8326,0.7822,0.6531,0.5532,0.463,0.4031,0.3328,0.2826,0.2826,0.2724,0.2623,0.2623,0.2522,0.2422,0.2422,0.2322,0.2121,0.2021,0.1921,0.1718,0.1617,0.1617,0.1617,0.1617,0.1617,0.1617,0.1617,0.1617,0.1617,0.1617,0.1617,0.1617,0.1617,0.1617,0.1617,0.1617,0.1111,0.0808,0.0808,0.0606,-0.0,-0.1212,-0.1415,-0.1516,-0.1212,-0.0404,-0.0,-0.0,-0.0,-0.0,0.4609,0.4577,0.4632,0.4638,0.4586,0.465,0.0,0.0,0.0,0.6208,0.6355,0.0,0.0,0.0,0.0,0.618,0.0,0.0,0.0,0.7098,0.0,0.9499,0.988,1.0032,1.0305,1.0248,1.0186,1.0238,1.0183,1.0274,1.0661,1.0487,1.0441,1.0711,1.0649,1.0594,1.0636,1.0811,1.0915,1.0953,1.0953,1.1038,1.1194,1.1194,1.1194,1.1184,1.0491,1.0228,1.0203,0.9332,0.8979,0.8935,0.8928,0.9031,0.9236,0.9236,0.943,0.9628,0.9628,0.9628,0.9426,0.8322,0.7624,0.6924,0.5033,0.3932,0.323,0.323,0.323,0.323,0.323,0.3029,0.2927,0.2927,0.2725,0.2522,0.2522,0.2522,0.2423,0.2122,0.2021,0.1921,0.1617,0.1617,0.1617,0.1617,0.1617,0.1617,0.1617,0.1617,0.1617,0.1617,0.1617,0.1617,0.1617,0.1516,0.1415,0.1415,0.0808,0.0505,0.0505,-0.0303,-0.0909,-0.1415,-0.1516,-0.1617,-0.1617,-0.1313,-0.1212,-0.1212,-0.1212,-0.101,0.5183,0.5037,0.5009,0.4889,0.486,0.4804,0.4719,0.0,0.474,0.4997,0.0,0.0,0.0,0.0,0.0,0.0,0.0,0.0,0.5408,0.5545,0.6011,0.7254,0.8893,0.9729,0.936,0.9423,0.9621,1.0019,0.9701,0.9815,1.0658,1.0644,1.0691,1.0985,1.074,1.0664,1.0858,1.0882,1.0986,1.1161,1.1161,1.1175,1.1194,1.1194,1.1194,1.1184,1.0491,1.0035,0.9612,0.8949,0.8492,0.824,0.8935,0.9133,0.9236,0.943,0.9529,0.9628,0.9628,0.9628,0.9426,0.8028,0.6329,0.463,0.363,0.3331,0.323,0.323,0.323,0.323,0.323,0.313,0.313,0.313,0.313,0.313,0.313,0.2927,0.2724,0.2422,0.2121,0.1921,0.1617,0.1617,0.1617,0.1617,0.1617,0.1617,0.1617,0.1617,0.1617,0.1617,0.1617,0.1617,0.1617,0.1212,0.0909,0.0909,-0.0101,-0.0606,-0.0606,-0.1212,-0.1313,-0.0909,-0.1314,-0.1617,-0.1617,-0.4351,-0.5675,-0.5675,-0.5675,-0.4649,0.506,0.5144,0.5197,0.4962,0.5064,0.5078,0.4631,0.4519,0.4509,0.4692,0.0,0.0,0.0,0.0,0.0,0.0,0.4475,0.0,0.0,0.0,0.5739,0.6561,0.7384,0.8003,0.8494,0.8981,0.9479,0.9781,0.9612,0.9825,1.0454,1.0409,1.0569,1.0782,1.0826,1.0861,1.0889,1.1019,1.1091,1.1194,1.1194,1.1194,1.1194,1.1194,1.103,1.0614,0.9936,0.9337,0.8829,0.8288,0.7969,0.7916,0.8499,0.8832,0.9031,0.9126,0.9327,0.9628,0.9628,0.9628,0.9327,0.7524,0.5429,0.363,0.333,0.313,0.2927,0.2927,0.2826,0.2725,0.2725,0.2725,0.2725,0.2725,0.2725,0.2826,0.2927,0.2927,0.2725,0.2623,0.2423,0.2121,0.192,0.1718,0.1617,0.1617,0.1617,0.1617,0.1617,0.1617,0.1617,0.1617,0.1617,0.1516,0.1212,0.1212,0.1111,0.0606,-0.0,-0.0606,-0.1212,-0.1516,-0.1212,-0.0303,-0.3031,-0.4351,-0.4351,-0.4446,-0.5153,-0.6374,-0.638,-0.5869,0.5195,0.5329,0.5329,0.4958,0.5103,0.5184,0.4646,0.4544,0.4599,0.4728,0.4702,0.0,0.0,0.0,0.4625,0.4616,0.0,0.4198,0.0,0.4707,0.0,0.0,0.6019,0.6511,0.7539,0.8031,0.8549,0.9174,0.9066,0.9296,1.0023,1.0168,1.0304,1.0545,1.0772,1.0816,1.0943,1.1013,1.1104,1.112,1.1085,1.1104,1.0983,1.1002,1.0633,1.0083,0.9287,0.8598,0.7925,0.7419,0.7127,0.7098,0.739,0.773,0.8024,0.8326,0.8627,0.8722,0.8722,0.8528,0.8028,0.6426,0.473,0.323,0.313,0.2927,0.2826,0.2725,0.2522,0.2422,0.2422,0.2422,0.2422,0.2422,0.2422,0.2422,0.2623,0.2725,0.2826,0.2724,0.2623,0.2423,0.2021,0.1819,0.1617,0.1617,0.1617,0.1617,0.1617,0.1617,0.1516,0.1415,0.1415,0.1212,0.0606,0.0808,0.0606,-0.0,-0.0202,-0.0606,-0.1516,-0.2021,-0.2121,-0.1717,-0.4246,-0.5773,-0.6385,-0.4847,-0.4841,-0.6364,-0.6369,-0.6369,0.5903,0.5734,0.5434,0.4862,0.4918,0.5029,0.4617,0.4695,0.4869,0.4875,0.4914,0.4916,0.4919,0.4713,0.4608,0.471,0.4402,0.0,0.0,0.0,0.0,0.0,0.0,0.0,0.6745,0.6112,0.6267,0.7913,0.7619,0.796,0.9394,0.9756,1.0065,1.0327,1.0277,1.0499,1.0995,1.0736,1.0754,1.0867,1.0896,1.0772,1.0612,1.0387,1.0096,0.9832,0.8678,0.7805,0.7,0.6306,0.5726,0.5325,0.5329,0.5629,0.6229,0.7229,0.7126,0.6523,0.6523,0.5827,0.4935,0.4834,0.4133,0.313,0.2927,0.2826,0.2725,0.2522,0.2422,0.2422,0.2422,0.2422,0.2422,0.2422,0.2422,0.2422,0.2422,0.2623,0.2725,0.2422,0.2623,0.2624,0.2122,0.1819,0.1617,0.1617,0.1617,0.1617,0.1617,0.1617,0.1415,0.0909,0.0808,0.0606,0.0101,-0.0404,-0.0909,-0.1516,-0.101,-0.101,-0.1617,-0.3132,-0.4651,-0.6183,-0.4241,-0.4338,-0.6377,-0.6366,-0.6361,-0.6364,-0.6364,-0.6353,0.5702,0.5928,0.5986,0.5352,0.5224,0.5153,0.4734,0.4654,0.4668,0.489,0.489,0.4912,0.5019,0.4823,0.4682,0.468,0.4502,0.4295,0.0,0.4098,0.0,0.0,0.0,0.0,0.0,0.6132,0.6858,0.7667,0.7969,0.85,0.9296,0.9604,0.9912,1.006,1.0358,1.0665,1.0985,1.0895,1.0915,1.0939,1.092,1.081,1.0594,1.0148,0.9405,0.8188,0.7502,0.6438,0.5158,0.5104,0.5014,0.5048,0.5205,0.5075,0.5029,0.6129,0.6526,0.6423,0.6423,0.5627,0.4531,0.4531,0.3728,0.2623,0.2522,0.2423,0.2223,0.2122,0.202,0.1919,0.1919,0.1919,0.1919,0.1919,0.1919,0.1919,0.2121,0.2223,0.2323,0.2624,0.2623,0.2523,0.2524,0.2122,0.1819,0.1617,0.1617,0.1617,0.1617,0.1313,0.101,0.0808,0.0505,0.0101,-0.0505,-0.101,-0.1111,-0.0606,-0.0404,-0.1616,-0.4655,-0.5264,-0.5874,-0.638,-0.5658,-0.5653,-0.6366,-0.6353,-0.6445,-0.6445,-0.6445,-0.6442,0.5874,0.6029,0.6086,0.5518,0.5463,0.5321,0.4841,0.4697,0.4773,0.4883,0.4852,0.4917,0.514,0.4905,0.4668,0.478,0.4563,0.4389,0.0,0.4062,0.0,0.0,0.0,0.0,0.0,0.5175,0.6042,0.6869,0.7232,0.7655,0.8234,0.8613,0.881,0.8928,0.9634,1.0014,0.9869,1.0233,1.0211,0.9795,0.9841,0.9591,0.9238,0.8765,0.7859,0.6509,0.602,0.5084,0.3803,0.3855,0.3923,0.391,0.408,0.3944,0.3791,0.5016,0.5329,0.5227,0.5227,0.4628,0.3828,0.3828,0.3225,0.2422,0.2322,0.2122,0.2022,0.1921,0.1718,0.1617,0.1617,0.1617,0.1617,0.1617,0.1617,0.1617,0.1819,0.2021,0.2222,0.2624,0.2623,0.2725,0.2826,0.2524,0.2122,0.1819,0.1617,0.1617,0.1617,0.1111,0.0707,0.0505,-0.0,-0.0505,-0.101,-0.1415,-0.1414,-0.101,-0.111,-0.2423,-0.5159,-0.5972,-0.6377,-0.6372,-0.6361,-0.6353,-0.6353,-0.6442,-0.6437,-0.6437,-0.6437,-0.6437]},{"header":{"parameterUnit":"m.s-1","parameterCategory":1,"la1":30.6,"la2":29.2853,"lo1":-89.7004,"lo2":-87.6739,"dy":0.0162,"dx":0.0183,"nx":112,"ny":82,"refTime":"2024-06-04T18:00:00:Z","depth":0,"parameterNumber":3,"parameterNumberName":"V-component_of_WINDS"},"data":[0.0,0.0,0.0,0.0,0.0,0.0,0.0,0.0,0.0,0.0,0.0,0.0,0.0,0.0,0.0,0.0,0.0,0.0,0.0,0.0,0.0,0.0,0.0,0.0,0.0,0.0,0.0,0.0,0.0,0.0,0.0,0.0,0.0,0.0,0.0,0.0,0.0,0.0,0.0,0.0,0.0,0.0,0.0,0.0,0.0,0.0,0.0,0.0,0.0,0.0,0.0,0.0,0.0,0.0,0.0,0.0,0.0,0.0,0.0,0.0,0.0,0.0,0.0,0.0,0.0,0.0,0.0,0.0,0.0,0.0,0.0,0.0,0.0,0.0,0.0,0.0,0.0,0.0,0.0,0.0,0.0,0.0,0.0,0.0,0.0,0.0,0.0,0.0,0.0,0.0,-2.4127,-2.4686,-2.6909,-2.8478,-2.8669,-2.8386,-2.6918,-2.3952,0.0,0.0,0.0,0.0,0.0,0.0,0.0,0.0,0.0,0.0,0.0,0.0,0.0,0.0,0.0,0.0,0.0,0.0,0.0,0.0,0.0,0.0,0.0,0.0,0.0,0.0,0.0,0.0,0.0,0.0,0.0,0.0,0.0,0.0,0.0,0.0,0.0,0.0,0.0,0.0,0.0,0.0,0.0,0.0,0.0,0.0,0.0,0.0,0.0,0.0,0.0,0.0,0.0,0.0,0.0,0.0,0.0,0.0,0.0,0.0,0.0,0.0,0.0,0.0,0.0,0.0,0.0,0.0,0.0,0.0,0.0,0.0,0.0,0.0,0.0,0.0,0.0,0.0,0.0,0.0,0.0,0.0,0.0,0.0,0.0,0.0,0.0,0.0,0.0,0.0,0.0,0.0,0.0,0.0,0.0,0.0,0.0,0.0,0.0,0.0,0.0,0.0,0.0,0.0,-2.4304,-2.7711,-2.8996,-2.9388,-2.8748,-2.8626,-2.7194,-2.3822,0.0,0.0,0.0,0.0,0.0,0.0,0.0,0.0,0.0,0.0,0.0,0.0,0.0,0.0,0.0,0.0,0.0,0.0,0.0,0.0,0.0,0.0,0.0,0.0,0.0,0.0,0.0,0.0,0.0,0.0,0.0,0.0,0.0,0.0,0.0,0.0,0.0,0.0,0.0,0.0,0.0,0.0,0.0,0.0,0.0,0.0,0.0,0.0,0.0,0.0,0.0,0.0,0.0,0.0,0.0,0.0,0.0,0.0,0.0,0.0,0.0,0.0,0.0,0.0,0.0,0.0,0.0,0.0,0.0,0.0,0.0,0.0,0.0,0.0,0.0,0.0,0.0,0.0,0.0,0.0,0.0,0.0,0.0,0.0,0.0,0.0,0.0,0.0,0.0,0.0,0.0,0.0,0.0,0.0,0.0,0.0,0.0,0.0,0.0,0.0,0.0,0.0,0.0,-2.3331,-2.5241,-2.836,-2.937,-2.9533,-2.8717,-2.8662,-2.7212,-2.3799,-2.3646,0.0,0.0,0.0,0.0,0.0,0.0,0.0,0.0,0.0,0.0,0.0,0.0,0.0,0.0,0.0,0.0,0.0,0.0,0.0,0.0,0.0,0.0,0.0,0.0,0.0,0.0,0.0,0.0,0.0,0.0,0.0,0.0,0.0,0.0,0.0,0.0,0.0,0.0,0.0,0.0,0.0,0.0,0.0,0.0,0.0,0.0,0.0,0.0,0.0,0.0,0.0,0.0,0.0,0.0,0.0,0.0,0.0,0.0,0.0,0.0,0.0,0.0,0.0,0.0,0.0,0.0,0.0,0.0,0.0,0.0,0.0,0.0,0.0,0.0,0.0,0.0,0.0,0.0,0.0,0.0,0.0,0.0,0.0,0.0,0.0,0.0,0.0,0.0,0.0,0.0,0.0,0.0,0.0,0.0,0.0,0.0,0.0,0.0,0.0,0.0,0.0,0.0,-2.5778,-2.7169,-2.8949,-2.9845,-2.9917,-2.8915,-2.867,-2.7114,-2.3773,-2.344,0.0,0.0,0.0,0.0,0.0,0.0,0.0,0.0,0.0,0.0,0.0,0.0,0.0,0.0,0.0,0.0,0.0,0.0,0.0,0.0,0.0,0.0,0.0,0.0,0.0,0.0,0.0,0.0,0.0,0.0,0.0,0.0,0.0,0.0,0.0,0.0,0.0,0.0,0.0,0.0,0.0,0.0,0.0,0.0,0.0,0.0,0.0,0.0,0.0,0.0,0.0,0.0,0.0,0.0,0.0,0.0,0.0,0.0,0.0,0.0,0.0,0.0,0.0,0.0,0.0,0.0,0.0,0.0,0.0,0.0,0.0,0.0,0.0,0.0,0.0,0.0,0.0,0.0,0.0,0.0,0.0,0.0,0.0,0.0,0.0,0.0,0.0,0.0,0.0,0.0,0.0,0.0,0.0,0.0,0.0,0.0,0.0,0.0,0.0,0.0,0.0,0.0,-2.7759,-3.0549,-3.0712,-3.1412,-3.1211,-2.9665,-2.8838,-2.7007,-2.3695,-2.298,0.0,0.0,0.0,0.0,0.0,0.0,0.0,0.0,0.0,0.0,0.0,0.0,0.0,0.0,0.0,0.0,0.0,0.0,0.0,0.0,0.0,0.0,0.0,0.0,0.0,0.0,0.0,0.0,0.0,0.0,0.0,0.0,0.0,0.0,0.0,0.0,0.0,0.0,0.0,0.0,0.0,0.0,0.0,0.0,0.0,0.0,0.0,0.0,0.0,0.0,0.0,0.0,0.0,0.0,0.0,0.0,0.0,0.0,0.0,0.0,0.0,0.0,0.0,0.0,0.0,0.0,0.0,0.0,0.0,0.0,0.0,0.0,0.0,0.0,0.0,0.0,0.0,0.0,0.0,0.0,0.0,0.0,0.0,0.0,0.0,0.0,0.0,0.0,0.0,0.0,0.0,0.0,0.0,0.0,0.0,0.0,0.0,0.0,0.0,0.0,0.0,0.0,-2.7299,-2.9728,-3.0718,-3.1516,-3.1355,-2.9755,-2.9422,-2.7579,-2.3684,0.0,0.0,0.0,0.0,0.0,0.0,0.0,0.0,0.0,0.0,0.0,0.0,0.0,0.0,0.0,0.0,0.0,0.0,0.0,0.0,0.0,0.0,0.0,0.0,0.0,0.0,0.0,0.0,0.0,0.0,0.0,0.0,0.0,0.0,0.0,0.0,0.0,0.0,0.0,0.0,0.0,0.0,0.0,0.0,0.0,0.0,0.0,0.0,0.0,0.0,0.0,0.0,0.0,0.0,0.0,0.0,0.0,0.0,0.0,0.0,0.0,0.0,0.0,0.0,0.0,0.0,0.0,0.0,0.0,0.0,0.0,0.0,0.0,0.0,0.0,0.0,0.0,0.0,0.0,0.0,0.0,0.0,0.0,0.0,0.0,0.0,0.0,0.0,0.0,0.0,0.0,0.0,0.0,0.0,0.0,0.0,0.0,0.0,0.0,0.0,0.0,0.0,-2.4861,-2.7466,-2.9735,-3.1314,-3.1978,-3.1655,-3.0068,-2.9837,-2.7929,-2.3702,0.0,0.0,0.0,0.0,0.0,0.0,0.0,0.0,0.0,0.0,0.0,0.0,0.0,0.0,0.0,0.0,0.0,0.0,0.0,0.0,0.0,0.0,0.0,0.0,0.0,0.0,0.0,0.0,0.0,0.0,0.0,0.0,0.0,0.0,0.0,0.0,0.0,0.0,0.0,0.0,0.0,0.0,0.0,0.0,0.0,0.0,0.0,0.0,0.0,0.0,0.0,0.0,0.0,0.0,0.0,0.0,0.0,0.0,0.0,0.0,0.0,0.0,0.0,0.0,0.0,0.0,0.0,0.0,0.0,0.0,0.0,0.0,0.0,0.0,0.0,0.0,0.0,0.0,0.0,0.0,0.0,0.0,0.0,0.0,0.0,0.0,0.0,0.0,0.0,0.0,0.0,0.0,0.0,0.0,0.0,0.0,0.0,0.0,0.0,0.0,0.0,0.0,-2.5689,-2.872,-3.1279,-3.2836,-3.2948,-3.2286,-3.0841,-3.0014,-2.7869,0.0,0.0,0.0,0.0,0.0,0.0,0.0,0.0,0.0,0.0,0.0,0.0,0.0,0.0,0.0,0.0,0.0,0.0,0.0,0.0,0.0,0.0,0.0,0.0,0.0,0.0,0.0,0.0,0.0,0.0,0.0,0.0,0.0,0.0,0.0,0.0,0.0,0.0,0.0,0.0,0.0,0.0,0.0,0.0,0.0,0.0,0.0,0.0,0.0,0.0,0.0,0.0,0.0,0.0,0.0,0.0,0.0,0.0,0.0,0.0,0.0,0.0,0.0,0.0,0.0,0.0,0.0,0.0,0.0,0.0,0.0,0.0,0.0,0.0,0.0,0.0,0.0,0.0,0.0,0.0,0.0,0.0,0.0,0.0,0.0,0.0,0.0,0.0,0.0,0.0,0.0,0.0,0.0,0.0,0.0,0.0,0.0,0.0,0.0,0.0,0.0,0.0,0.0,-2.5565,-2.8556,-3.1196,-3.2893,-3.3011,-3.2396,-3.0962,-3.0694,-2.8567,-2.3812,0.0,0.0,0.0,0.0,0.0,0.0,0.0,0.0,0.0,0.0,0.0,0.0,0.0,0.0,0.0,0.0,0.0,0.0,0.0,0.0,0.0,0.0,0.0,0.0,0.0,0.0,0.0,0.0,0.0,0.0,0.0,0.0,0.0,0.0,0.0,0.0,0.0,0.0,0.0,0.0,0.0,0.0,0.0,0.0,0.0,0.0,0.0,0.0,0.0,0.0,0.0,0.0,0.0,0.0,0.0,0.0,0.0,0.0,0.0,0.0,0.0,0.0,0.0,0.0,0.0,0.0,0.0,0.0,0.0,0.0,0.0,0.0,0.0,0.0,0.0,0.0,0.0,0.0,0.0,0.0,0.0,0.0,0.0,0.0,0.0,0.0,0.0,0.0,0.0,0.0,0.0,0.0,0.0,0.0,0.0,0.0,0.0,0.0,0.0,0.0,0.0,0.0,-2.559,-2.8907,-3.1655,-3.3039,-3.3152,-3.2679,-3.1516,-3.1202,-2.9176,-2.48,0.0,0.0,0.0,0.0,0.0,0.0,0.0,0.0,0.0,0.0,0.0,0.0,0.0,0.0,0.0,0.0,0.0,0.0,0.0,0.0,0.0,0.0,0.0,0.0,0.0,0.0,0.0,0.0,0.0,0.0,0.0,0.0,0.0,0.0,0.0,0.0,0.0,0.0,0.0,0.0,0.0,0.0,0.0,0.0,0.0,0.0,0.0,0.0,0.0,0.0,0.0,0.0,0.0,0.0,0.0,0.0,0.0,0.0,0.0,0.0,0.0,0.0,0.0,0.0,0.0,0.0,0.0,0.0,0.0,0.0,0.0,0.0,0.0,0.0,0.0,0.0,0.0,0.0,0.0,0.0,0.0,0.0,0.0,0.0,0.0,0.0,0.0,0.0,0.0,0.0,0.0,0.0,0.0,0.0,0.0,0.0,0.0,0.0,0.0,0.0,0.0,0.0,-2.57,-2.9485,-3.2408,-3.322,-3.3292,-3.3033,-3.2379,-3.1565,-2.9751,-2.6531,0.0,0.0,0.0,0.0,0.0,0.0,0.0,0.0,0.0,0.0,0.0,0.0,0.0,0.0,0.0,0.0,0.0,0.0,0.0,0.0,0.0,0.0,0.0,0.0,0.0,0.0,0.0,0.0,0.0,0.0,0.0,0.0,0.0,0.0,0.0,0.0,0.0,0.0,0.0,0.0,0.0,0.0,0.0,0.0,0.0,0.0,0.0,0.0,0.0,0.0,0.0,0.0,0.0,0.0,0.0,0.0,0.0,0.0,0.0,0.0,-2.0443,-1.911,0.0,0.0,0.0,0.0,0.0,0.0,0.0,0.0,0.0,0.0,0.0,0.0,0.0,0.0,0.0,0.0,0.0,0.0,0.0,0.0,0.0,0.0,0.0,0.0,0.0,0.0,0.0,0.0,0.0,0.0,0.0,0.0,0.0,0.0,0.0,0.0,0.0,0.0,0.0,0.0,-2.5643,-2.9402,-3.236,-3.3291,-3.3382,-3.3339,-3.3226,-3.1929,-3.0231,-2.8207,-2.547,0.0,0.0,0.0,0.0,0.0,0.0,0.0,0.0,0.0,0.0,0.0,0.0,0.0,0.0,0.0,0.0,0.0,0.0,0.0,0.0,0.0,0.0,0.0,0.0,0.0,0.0,0.0,0.0,0.0,0.0,0.0,0.0,0.0,0.0,0.0,0.0,0.0,0.0,0.0,0.0,0.0,0.0,0.0,0.0,0.0,0.0,0.0,0.0,0.0,0.0,0.0,0.0,0.0,0.0,0.0,0.0,0.0,0.0,0.0,-2.3508,-2.2219,0.0,0.0,0.0,0.0,0.0,0.0,0.0,0.0,0.0,0.0,0.0,0.0,0.0,0.0,0.0,0.0,0.0,0.0,0.0,0.0,0.0,0.0,0.0,0.0,0.0,0.0,0.0,0.0,0.0,0.0,0.0,0.0,0.0,0.0,0.0,0.0,0.0,0.0,0.0,0.0,-2.6272,-3.0088,-3.2911,-3.3415,-3.3452,-3.3615,-3.3996,-3.2573,-3.112,-2.9826,-2.7175,0.0,0.0,0.0,0.0,0.0,0.0,0.0,0.0,0.0,0.0,0.0,0.0,0.0,0.0,0.0,0.0,0.0,0.0,0.0,0.0,0.0,0.0,0.0,0.0,0.0,0.0,0.0,0.0,0.0,0.0,0.0,0.0,0.0,0.0,0.0,0.0,0.0,0.0,0.0,0.0,0.0,0.0,0.0,0.0,0.0,0.0,0.0,0.0,0.0,0.0,0.0,0.0,0.0,-2.8207,-2.8623,-2.8641,-2.915,-2.9818,-3.0414,-2.7625,-2.6451,-2.6255,-2.3674,0.0,0.0,0.0,0.0,0.0,0.0,0.0,0.0,0.0,0.0,0.0,0.0,0.0,0.0,0.0,0.0,0.0,0.0,0.0,0.0,0.0,0.0,-2.7169,-2.7798,-2.8778,-2.8705,-2.5535,0.0,0.0,0.0,0.0,0.0,0.0,0.0,0.0,0.0,0.0,0.0,-2.7241,-3.093,-3.3481,-3.3481,-3.3491,-3.3862,-3.4733,-3.3379,-3.2192,-3.1455,-2.9156,-2.641,0.0,0.0,0.0,0.0,0.0,0.0,0.0,0.0,0.0,0.0,0.0,0.0,0.0,0.0,0.0,0.0,0.0,0.0,0.0,0.0,0.0,0.0,0.0,0.0,0.0,0.0,0.0,0.0,0.0,0.0,0.0,0.0,-1.8715,-1.8856,0.0,0.0,0.0,0.0,0.0,0.0,0.0,0.0,0.0,0.0,0.0,0.0,0.0,-2.5731,-2.6898,-2.9013,-3.0496,-3.1437,-3.294,-3.3587,-3.3473,-3.2787,-3.3087,-3.4018,-3.3495,0.0,-2.8232,-2.7918,0.0,0.0,0.0,0.0,0.0,0.0,0.0,0.0,0.0,0.0,0.0,0.0,0.0,0.0,0.0,0.0,0.0,0.0,0.0,0.0,0.0,0.0,-3.3008,-3.3243,-3.3197,-3.2794,-3.1623,-2.8384,-2.5446,-2.4549,-2.4442,-2.3923,0.0,0.0,0.0,0.0,0.0,0.0,-2.8128,-3.1263,-3.3393,-3.3393,-3.3481,-3.408,-3.553,-3.4232,-3.3281,-3.3085,-3.0803,-2.8341,-2.5819,-2.4393,0.0,0.0,0.0,0.0,0.0,0.0,0.0,0.0,0.0,0.0,0.0,0.0,0.0,0.0,0.0,0.0,0.0,0.0,0.0,0.0,0.0,0.0,0.0,0.0,0.0,0.0,0.0,0.0,0.0,-1.8353,-1.9291,-1.846,-1.9162,-1.9377,0.0,0.0,0.0,0.0,0.0,0.0,0.0,0.0,0.0,-2.8399,-2.8739,-2.9995,-3.2201,-3.2791,-3.3556,-3.4501,-3.5398,-3.5968,-3.6256,-3.6152,-3.6492,-3.7221,-3.7098,-3.5809,-3.3684,-3.194,-3.0139,-2.8424,0.0,0.0,0.0,0.0,-2.773,-2.7956,-3.0185,-3.0411,-2.9695,-2.9545,0.0,0.0,0.0,0.0,0.0,0.0,0.0,-2.9172,-3.177,-3.3504,-3.4837,-3.5805,-3.5818,-3.5496,-3.5142,-3.3809,-3.1574,-2.7707,-2.7007,-2.6212,-2.3674,-2.3977,0.0,0.0,0.0,-2.9106,-3.0268,-3.2166,-3.3393,-3.3393,-3.3422,-3.3894,-3.5041,-3.451,-3.3912,-3.3429,-3.2415,-3.0505,-2.7622,-2.6416,-2.4864,0.0,0.0,0.0,0.0,0.0,0.0,0.0,0.0,0.0,0.0,0.0,0.0,0.0,0.0,0.0,0.0,0.0,0.0,0.0,0.0,0.0,0.0,0.0,0.0,0.0,0.0,0.0,0.0,-1.9543,-2.0691,-1.9165,-2.073,-2.1255,0.0,0.0,0.0,0.0,0.0,0.0,-2.7973,-2.8506,-3.0039,-3.2791,-3.2794,-3.3889,-3.6346,-3.5974,-3.6292,-3.7282,-3.7363,-3.7741,-3.8359,-3.8497,-3.881,-3.9257,-3.9099,-3.8771,-3.8184,-3.5254,-3.3478,-3.2456,-3.137,-3.0826,-3.0731,-3.1585,-3.1623,-3.1661,-3.4357,-3.4851,-3.4225,-3.3562,-3.2937,-3.2045,-2.9715,0.0,0.0,0.0,0.0,-3.1796,-3.4338,-3.5495,-3.6388,-3.8021,-3.8215,-3.8022,-3.8022,-3.8196,-3.6838,-3.1696,-3.0698,-2.9844,-2.7028,-2.7372,0.0,-2.7851,-2.9801,-3.1709,-3.2915,-3.4062,-3.4654,-3.4335,-3.4135,-3.4262,-3.486,-3.4914,-3.457,-3.3755,-3.3719,-3.2423,-2.9547,-2.8334,-2.6736,-2.4699,0.0,0.0,0.0,0.0,0.0,0.0,0.0,0.0,0.0,0.0,0.0,0.0,0.0,0.0,0.0,0.0,0.0,0.0,0.0,0.0,0.0,0.0,0.0,0.0,0.0,0.0,0.0,0.0,0.0,-2.2643,-2.5201,0.0,0.0,0.0,0.0,-2.5982,-2.6959,-2.8195,-2.9689,-3.1462,-3.3191,-3.4899,-3.6395,-3.7257,-3.7422,-3.8282,-3.9108,-3.9904,-3.9342,-3.9461,-4.0151,-3.9407,-3.9186,-3.9408,-3.9383,-3.9548,-3.9637,-3.7566,-3.5766,-3.4308,-3.3734,-3.3047,-3.2476,-3.322,-3.4017,-3.487,-3.5742,-3.6025,-3.5968,-3.593,-3.4321,-3.2541,-3.3164,-3.227,0.0,0.0,-3.4073,-3.5343,-3.7871,-3.8575,-3.9051,-4.0786,-4.0981,-4.0802,-4.0797,-4.0021,-3.8752,-3.6752,-3.644,-3.588,-3.4018,0.0,-3.2646,-3.2576,-3.3963,-3.5277,-3.5909,-3.7434,-3.8028,-3.6935,-3.6146,-3.5711,-3.5747,-3.5747,-3.5403,-3.4606,-3.4552,-3.3791,-3.2089,-2.9789,-2.8117,-2.723,-2.4936,0.0,0.0,0.0,0.0,0.0,0.0,0.0,0.0,0.0,0.0,0.0,0.0,0.0,0.0,0.0,0.0,0.0,0.0,0.0,0.0,0.0,0.0,0.0,0.0,0.0,0.0,0.0,0.0,-2.5099,-2.7284,0.0,-2.6266,-2.8124,-2.9453,-2.9428,-3.132,-3.3138,-3.4696,-3.544,-3.6554,-3.8264,-3.8497,-3.9417,-4.1148,-4.0419,-4.0825,-4.228,-4.1239,-4.1076,-4.1699,-4.1142,-4.1154,-4.1575,-4.151,-4.1573,-4.17,-4.099,-3.9673,-3.8074,-3.8004,-3.7774,-3.7545,-3.7813,-3.8118,-3.8442,-3.8709,-3.8804,-3.8709,-3.8156,-3.6994,-3.587,-3.6174,-3.5867,-3.5621,-3.6728,-3.7281,-3.7833,-3.9319,-3.9661,-3.9946,-4.111,-4.1276,-4.1342,-4.1911,-4.2143,-4.186,-4.0688,-3.8541,-3.6676,-3.5987,-3.6056,-3.6131,-3.5898,-3.6777,-3.7695,-3.8264,-3.8382,-3.8212,-3.7827,-3.7033,-3.6363,-3.5856,-3.6272,-3.5797,-3.4084,-3.4939,-3.4586,-3.2556,-3.1174,-2.9771,-2.8276,-2.6982,-2.5099,0.0,0.0,0.0,0.0,0.0,0.0,0.0,0.0,0.0,0.0,0.0,0.0,0.0,0.0,0.0,0.0,0.0,0.0,0.0,0.0,0.0,0.0,0.0,0.0,0.0,0.0,-2.8385,-2.7276,-2.9922,-3.112,-2.9268,-3.1346,-3.2958,-3.3305,-3.4972,-3.6675,-3.8272,-3.8475,-3.9211,-4.0643,-4.0373,-4.1065,-4.2855,-4.2115,-4.2365,-4.3596,-4.3089,-4.2905,-4.3009,-4.3019,-4.3111,-4.3233,-4.3418,-4.3554,-4.3634,-4.3634,-4.2945,-4.1815,-4.1322,-4.1017,-4.0826,-4.075,-4.054,-4.031,-4.031,-4.031,-4.0215,-3.9642,-3.9031,-3.8554,-3.8554,-3.8554,-3.865,-3.9147,-3.9319,-3.9471,-4.0024,-4.0137,-4.0307,-4.1165,-4.1335,-4.154,-4.2354,-4.2959,-4.3164,-4.2595,-4.0457,-3.8649,-3.8319,-3.8488,-3.8446,-3.791,-3.898,-3.9808,-3.9699,-3.9926,-3.9899,-3.9543,-3.8543,-3.7471,-3.6399,-3.6277,-3.563,-3.4154,-3.4783,-3.4647,-3.3458,-3.1861,-3.0412,-2.9193,-2.8205,-2.6593,-2.4348,0.0,0.0,0.0,0.0,0.0,0.0,0.0,0.0,0.0,0.0,0.0,0.0,0.0,0.0,0.0,0.0,0.0,0.0,0.0,0.0,0.0,0.0,0.0,-2.5591,-2.8938,-3.0913,-2.9444,-3.3313,-3.5255,-3.3025,-3.4814,-3.6522,-3.7496,-3.7727,-3.8485,-4.0007,-4.0496,-4.1068,-4.181,-4.2058,-4.2227,-4.2308,-4.3331,-4.3855,-4.3916,-4.4908,-4.4914,-4.4074,-4.4934,-4.4876,-4.4131,-4.4972,-4.5354,-4.5373,-4.5373,-4.5373,-4.5201,-4.3501,-4.2469,-4.1934,-4.1648,-4.1055,-4.0387,-4.0387,-4.0368,-4.0348,-4.0348,-4.0292,-4.0234,-4.0234,-4.0253,-4.0253,-4.0193,-4.0233,-4.0253,-4.0193,-4.0193,-4.0382,-4.1195,-4.1383,-4.157,-4.2318,-4.2488,-4.2469,-4.245,-4.245,-4.2185,-4.1389,-4.0495,-3.9618,-3.8648,-4.0559,0.0,-4.0288,-4.2184,-4.3229,-4.2028,-4.058,-3.9022,-3.7449,-3.5798,-3.4895,-3.499,-3.4174,-3.4054,-3.4945,-3.185,-3.01,-3.0155,-2.8562,-2.7761,-2.7824,0.0,0.0,0.0,0.0,0.0,0.0,0.0,0.0,0.0,0.0,0.0,0.0,0.0,0.0,0.0,0.0,0.0,0.0,0.0,0.0,0.0,0.0,-2.9887,-2.9692,-3.1587,-3.3534,-3.4981,-3.6186,-3.6924,-3.7019,-3.8228,-3.9098,-3.9368,-4.0089,-4.0945,-4.1909,-4.1531,-4.1754,-4.2844,-4.234,-4.2829,-4.4424,-4.4734,-4.5175,-4.5767,-4.6688,-4.6347,-4.4972,-4.5793,-4.6042,-4.5831,-4.608,-4.6538,-4.7111,-4.7111,-4.7111,-4.6882,-4.4571,-4.3577,-4.3348,-4.2679,-4.2297,-4.2106,-4.2106,-4.1705,-4.117,-4.117,-4.117,-4.1132,-4.1132,-4.1551,-4.1987,-4.1926,-4.1926,-4.1926,-4.1863,-4.1884,-4.2112,-4.2924,-4.3111,-4.3297,-4.4066,-4.4237,-4.409,-4.3455,-4.3411,-4.319,-4.2223,-4.1274,-4.0696,-4.0851,-4.1754,-4.202,-4.1046,-4.1908,-4.2047,-4.0555,-3.9507,-3.848,-3.7412,-3.6517,-3.5816,-3.5262,-3.5113,-3.4884,-3.4501,-3.3049,-3.1945,-3.1265,-2.9527,-2.8654,0.0,0.0,0.0,0.0,0.0,0.0,0.0,0.0,0.0,0.0,0.0,0.0,0.0,0.0,0.0,0.0,0.0,0.0,0.0,0.0,0.0,0.0,-3.0178,-3.2823,-3.3842,-3.4743,-3.5834,-3.74,-3.7812,-3.8327,-3.9312,-3.9834,-4.027,-4.0681,-4.1252,-4.205,-4.3093,-4.2507,-4.2731,-4.4055,-4.3407,-4.3687,-4.5068,-4.5452,-4.5935,-4.6519,-4.7379,-4.7111,-4.5831,-4.6672,-4.6863,-4.6538,-4.7264,-4.7876,-4.8372,-4.8716,-4.885,-4.864,0.0,0.0,0.0,0.0,-4.4037,-4.3348,-4.3711,-4.352,-4.308,-4.306,-4.304,-4.2983,-4.2581,-4.2827,-4.3128,-4.2707,-4.2591,-4.2591,-4.2547,-4.2569,-4.2724,-4.3175,-4.3308,-4.3399,-4.3852,-4.3969,-4.3836,-4.3293,-4.3263,0.0,-4.2579,-4.1996,-4.1614,-4.1556,-4.235,-4.2511,-4.1241,-4.1991,-4.2166,-4.0894,-4.0049,-3.9258,-3.842,-3.731,0.0,0.0,0.0,-3.4479,-3.3278,-3.2794,0.0,0.0,0.0,0.0,0.0,-3.1396,0.0,0.0,-3.0321,-2.9757,0.0,0.0,0.0,0.0,0.0,0.0,0.0,0.0,0.0,0.0,0.0,0.0,0.0,0.0,0.0,0.0,-3.3222,-3.5243,-3.7405,-3.7718,-3.7763,-3.7839,-3.8627,-3.9425,-4.0197,-4.0359,-4.0755,-4.1646,-4.1794,-4.2495,-4.3929,-4.3546,0.0,0.0,0.0,-4.4519,-4.48,-4.5702,-4.6221,-4.6385,-4.7341,-4.7302,-4.6385,-4.7264,-4.7245,-4.6596,-4.8143,-4.885,-4.9022,-4.9824,-5.0225,-5.0149,-4.8563,-4.7589,-4.7095,-4.7099,-4.5969,-4.4551,-4.5316,0.0,0.0,-4.5366,-4.5344,-4.5192,-4.4367,-4.4211,-4.4173,-4.3393,-4.3183,-4.3164,-4.3047,-4.3031,-4.3012,-4.2895,-4.2897,-4.2897,-4.2876,-4.2897,-4.2876,-4.2832,-4.2832,-4.2854,-4.2897,-4.2705,-4.2281,-4.1478,-4.2625,-4.2953,-4.1274,-4.2303,-4.285,-4.1954,-4.1188,0.0,-3.9749,-3.8018,-3.7077,-3.7341,-3.5549,-3.3839,-3.2331,-3.2321,-3.2697,-3.3417,-3.343,-3.4643,-3.7122,-3.7036,-3.7605,-3.8556,-3.2147,-3.096,0.0,0.0,0.0,0.0,0.0,0.0,0.0,0.0,0.0,0.0,0.0,0.0,0.0,0.0,0.0,-3.157,-3.4689,-3.7174,-3.7636,-3.818,-3.8625,-3.8823,-3.946,-3.9745,-3.9378,-4.1141,-4.2284,-4.2247,-4.3058,-4.4011,-4.5101,-4.4981,-4.4934,-4.5121,-4.4635,-4.4519,-4.48,-4.5887,-4.6113,-4.5545,-4.7073,0.0,-4.5564,-4.6385,-4.6672,-4.6519,-4.6863,-4.7398,-4.8124,-4.8984,-4.971,-5.0206,-4.9232,-4.8353,-4.7646,-4.7646,-4.7398,-4.7092,-4.7264,-4.6863,-4.6271,-4.6249,-4.6249,-4.6211,-4.6039,-4.6434,0.0,-4.6752,-4.6714,-4.6561,-4.5849,-4.5703,-4.5538,-4.4801,-4.4671,-4.4674,-4.463,-4.4652,-4.4674,-4.4693,-4.4758,-4.4841,-4.486,-4.3466,-4.2322,-4.2202,-4.2844,-4.3075,-4.2223,-4.2332,-4.1935,-4.0488,-3.9616,-3.9067,-3.8839,-3.7926,-3.7619,-3.8196,-3.7052,-3.6174,-3.5757,-3.5739,-3.5838,-3.6056,-3.6075,-3.6433,-3.7187,-3.7187,-3.769,-3.8652,-3.6747,-3.659,0.0,0.0,0.0,0.0,0.0,0.0,0.0,0.0,0.0,0.0,0.0,-2.6409,0.0,0.0,-3.2696,-3.4544,-3.6523,-3.7933,-3.834,-3.9081,-3.9423,-3.9005,-3.9338,-3.9811,-4.0304,-4.1464,-4.2458,-4.3138,-4.3708,-4.4202,-4.4716,-4.4656,-4.4744,-4.5055,-4.4543,-4.458,-4.5292,-4.5979,-4.639,-4.6557,-4.7398,-4.736,-4.6557,-4.6978,-4.715,-4.7169,-4.7608,-4.8048,-4.8506,-4.9324,-4.9868,-5.0169,-4.9797,-4.9171,-4.8506,-4.8907,-4.8812,-4.8506,-4.8907,-4.8774,-4.8411,-4.8346,-4.8369,-4.8334,-4.7869,-4.8037,-4.8262,-4.7846,-4.7709,-4.7567,-4.7213,-4.7102,-4.6896,-4.6012,-4.5824,-4.5731,-4.533,-4.5275,-4.5297,-4.5297,-4.5338,-4.5399,-4.54,-4.4532,-4.3878,-4.3941,-4.4223,-4.4143,-4.3444,-4.333,-4.2852,-4.1682,-4.1182,-4.0778,-4.0332,-3.9409,-3.8707,-3.8361,-3.7882,-3.7422,-3.7019,-3.6894,-3.7135,-3.7791,-3.7671,-3.7996,-3.8785,-3.8766,-3.9298,-4.0332,-3.998,-3.9967,0.0,0.0,0.0,0.0,0.0,0.0,0.0,0.0,-2.6004,-2.701,-2.7522,-2.8769,-3.1994,-3.3072,-3.4469,-3.7482,-3.805,-3.8358,-3.9008,-3.9881,-4.0232,-3.9564,-3.9634,-4.0352,-4.192,-4.2057,-4.2607,-4.3912,-4.4005,-4.3998,-4.3999,-4.3939,-4.4179,-4.4779,-4.4488,-4.4782,-4.5669,-4.6086,-4.6771,-4.769,-4.769,-4.7754,-4.7799,-4.7799,-4.7799,-4.7857,-4.8544,-4.8923,-4.9114,-4.9692,-5.0005,-5.0133,-5.0182,-4.9835,-4.9404,-5.0054,-4.9882,-4.9423,-5.0073,-5.0302,-5.0302,-5.0255,-5.0255,-5.0187,-4.9468,-4.9258,-4.9129,-4.8464,-4.8209,-4.8124,-4.8082,-4.8003,-4.777,-4.6937,-4.6615,-4.635,-4.5762,-4.5513,-4.5399,-4.5419,-4.5419,-4.5419,-4.5438,-4.5438,-4.5476,-4.5513,-4.5513,-4.53,-4.4643,-4.4429,-4.4097,-4.3501,-4.3254,-4.2853,-4.2121,-4.1011,-3.9901,-3.8777,-3.8589,-3.8296,-3.7761,-3.7577,-3.8026,-3.9261,-3.8869,-3.941,-4.0902,-4.0677,-4.1158,-4.2259,-4.2212,-4.2086,-2.0742,-2.186,-2.3176,-2.4292,-2.4816,-2.5947,0.0,0.0,-3.0519,-3.1986,-3.3469,-3.4636,-3.5021,-3.6296,-3.7429,-3.7838,-3.8488,-3.9008,-3.9082,-4.0058,-4.1043,-4.1898,-4.2036,-4.2482,-4.3632,-4.3739,-4.3819,-4.3986,-4.4005,-4.4005,-4.3992,-4.3947,-4.3952,-4.4013,-4.4805,-4.5301,-4.5363,-4.6363,-4.7032,-4.7365,-4.7365,-4.7509,-4.7799,-4.7799,-4.7799,-4.7818,-4.7827,-4.8257,-4.8933,-4.9004,-4.951,-5.0188,-5.0188,-5.0197,-5.0187,-5.0264,-5.0245,-5.0187,-5.0264,-5.0302,-5.0302,-5.0302,-5.0302,-5.0283,-5.0187,-5.0145,-5.0149,-5.0054,-4.9992,-4.9839,-4.9137,-4.8945,-4.8735,-4.7876,-4.7073,-4.6502,-4.6468,-4.5896,-4.5419,-4.5495,-4.5476,-4.5514,-4.5568,-4.5568,-4.5586,-4.5586,-4.5586,-4.5566,-4.547,-4.4831,-4.436,-4.4276,-4.3467,-4.2737,-4.23,-4.1494,-4.082,-4.042,-3.9764,-3.9352,-3.9335,-3.9214,-3.9712,-4.0997,-4.0125,-4.0649,-4.2701,-4.1931,-4.2106,-4.3137,-4.3156,-4.3095,-2.3713,-2.4798,0.0,0.0,-2.7922,-2.9041,-3.1088,-3.1892,-3.2518,-3.3691,-3.5403,-3.6702,-3.6682,-3.7724,-3.8617,0.0,-3.9305,-3.9863,-3.9863,-4.1051,-4.1832,-4.1516,-4.2575,-4.3503,-4.3943,-4.4017,-4.4005,-4.4005,-4.4005,-4.4005,-4.4005,-4.3974,-4.4183,-4.4684,-4.5233,-4.5971,-4.6931,-4.7511,-4.8079,-4.8644,-4.8799,-4.8922,-4.9086,-4.9205,-4.9251,-4.9251,-4.9228,-4.9391,-4.9643,-4.9643,-4.9853,-5.0158,-5.0188,-5.0231,-5.0255,-5.0278,-5.0302,-5.0302,-5.0302,-5.0302,-5.0302,-5.0302,-5.0302,-5.0302,-5.0302,-5.0302,-5.0302,-5.0302,-5.0278,-5.0159,-4.9882,-4.9763,-4.9419,-4.8152,-4.7984,-4.7679,-4.632,-4.6165,-4.6145,-4.5714,-4.5618,-4.5635,-4.5651,-4.5651,-4.5651,-4.5651,-4.562,-4.5586,-4.5586,-4.5349,-4.5167,-4.521,-4.4423,-4.3772,-4.3484,-4.2581,-4.1933,-4.1699,-4.1354,-4.1241,-4.1407,-4.1361,-4.1663,-4.2447,-4.1931,-4.2157,-4.3183,-4.2816,-4.285,-4.3245,-4.3747,-4.3955,-2.5329,0.0,0.0,-2.9049,-3.0442,-3.1704,-3.2764,-3.3769,-3.468,-3.5376,-3.687,-3.804,-3.7973,-3.8606,-3.9202,-3.9417,-3.9974,-4.0476,-4.0698,-4.172,-4.2203,-4.1419,-4.2711,-4.3763,-4.3986,-4.4283,-4.4339,-4.4023,-4.4228,-4.4246,-4.4005,-4.4005,-4.4395,-4.5268,-4.5662,-4.6526,-4.7946,-4.8328,-4.8826,-4.948,-4.9674,-4.9805,-4.9879,-5.007,-5.0212,-5.0278,-5.0278,-5.0212,-5.0163,-5.0163,-5.0139,-5.0133,-5.0163,-5.0212,-5.0212,-5.0278,-5.0302,-5.0302,-5.0302,-5.0302,-5.0302,-5.0302,-5.0302,-5.0302,-5.0302,-5.0302,-5.0302,-5.0302,-5.0278,-5.0255,-5.0278,-5.0259,-4.9897,-4.8579,-4.8564,-4.8374,-4.6679,-4.6617,-4.6731,-4.6163,-4.6047,-4.5954,-4.5654,-4.5648,-4.5665,-4.5616,-4.5618,-4.5637,-4.5637,-4.564,-4.562,-4.5528,-4.4987,-4.4587,-4.4442,-4.352,-4.2919,-4.2832,-4.2601,-4.2576,-4.2776,-4.2738,-4.3,-4.3639,-4.322,-4.3335,-4.3982,-4.3755,-4.3742,-4.3926,-4.4549,-4.4793,0.0,0.0,-2.7815,-2.9527,-3.1529,-3.3441,-3.4955,-3.6519,-3.7724,-3.8022,-3.8802,-3.9369,-3.92,-3.9192,-3.9462,-4.0244,-4.0364,-4.0661,-4.1441,-4.1609,-4.1906,-4.2649,-4.2797,-4.3132,0.0,-4.5003,-4.5188,-4.4079,-4.4785,-4.4878,-4.4042,-4.4005,-4.4395,-4.5268,-4.6048,-4.6832,-4.7617,-4.8396,-4.8906,-4.9137,-4.9118,-4.9265,-4.9529,-4.9721,-4.9955,-5.0188,-5.0188,-5.0163,-5.0108,-5.0108,-5.0158,-5.0188,-5.0188,-5.0255,-5.0302,-5.0302,-5.0302,-5.0302,-5.0302,-5.0302,-5.0302,-5.0302,-5.0302,-5.0302,-5.0302,-5.0302,-5.0302,-5.0302,-5.0302,-5.0302,-5.0302,-5.0302,-5.0096,-4.9326,-4.8524,-4.7971,-4.8084,-4.7484,-4.6904,-4.6954,-4.6954,-4.6634,-4.5591,-4.5565,-4.5632,-4.5438,-4.5582,-4.57,-4.57,-4.5584,-4.5342,-4.4872,-4.4806,-4.4787,-4.4787,-4.4047,-4.365,-4.3845,-4.3119,-4.2775,-4.2989,-4.2794,-4.3288,-4.4529,-4.3528,-4.3894,-4.5722,-4.4868,-4.4892,-4.5723,-4.5692,-4.5665,0.0,0.0,-3.1,-3.2423,-3.4047,-3.5502,-3.6405,-3.7022,-3.7408,-3.7415,-3.7339,-3.6915,-3.5643,-3.666,-3.7914,-3.8672,-4.0179,-4.1537,-4.2277,-4.2853,-4.3095,-4.2835,-4.3262,0.0,0.0,0.0,0.0,-4.4023,-4.4265,-4.4302,-4.4023,-4.4544,-4.5199,-4.5931,-4.6783,-4.7599,-4.8379,-4.8657,-4.8839,-4.8974,-4.9296,-4.9539,-4.9693,-5.0,-5.0169,-5.0278,-5.0278,-5.0255,-5.0231,-5.0231,-5.0255,-5.0278,-5.0278,-5.0278,-5.0302,-5.0302,-5.0302,-5.0302,-5.0302,-5.0302,-5.0302,-5.0302,-5.0302,-5.0302,-5.0302,-5.0302,-5.0302,-5.0302,-5.0302,-5.0325,-5.0393,-4.9994,-4.9405,-4.8702,-4.8315,-4.7831,-4.6812,-4.6824,-4.7051,-4.7051,-4.6491,-4.6063,-4.6281,-4.5802,-4.5381,-4.5455,-4.5596,-4.5715,-4.5765,-4.5735,-4.5582,-4.5304,-4.5379,-4.5417,-4.5285,-4.5036,-4.4883,-4.4958,-4.4708,-4.4591,-4.4662,-4.471,-4.4959,-4.5394,-4.5042,-4.5177,-4.58,-4.5515,-4.552,-4.58,-4.5765,-4.575,0.0,-3.0944,-3.2969,-3.4673,-3.5729,-3.6547,-3.728,-3.718,-3.6949,-3.6916,-3.638,-3.5505,-3.4274,-3.5373,-3.6814,-3.7824,-3.9574,-4.1287,-4.2653,-4.3014,-4.3169,-4.3274,-4.3478,-4.3485,0.0,0.0,0.0,-4.4005,-4.4283,-4.4451,-4.4451,-4.4989,-4.5755,-4.6746,-4.7321,-4.8041,-4.8839,-4.8857,-4.8839,-4.8909,-4.9137,-4.934,-4.956,-4.9721,-4.983,-4.9955,-5.0076,-5.012,-5.0144,-5.0236,-5.0302,-5.0302,-5.0302,-5.0302,-5.0302,-5.0302,-5.0302,-5.0302,-5.0302,-5.0302,-5.0302,-5.0302,-5.0302,-5.0302,-5.0302,-5.0302,-5.0302,-5.0302,-5.0325,-5.0393,-5.0478,-4.9888,-4.9086,-4.8369,-4.7979,-4.7491,-4.6482,-4.6689,-4.7081,-4.7001,-4.6442,-4.5992,-4.607,-4.5505,-4.5161,-4.5454,-4.556,-4.5629,-4.57,-4.568,-4.5632,-4.5399,-4.5507,-4.5558,-4.549,-4.549,-4.5524,-4.561,-4.561,-4.561,-4.561,-4.5737,-4.58,-4.58,-4.58,-4.58,-4.58,-4.5786,-4.5791,-4.58,-4.5765,-4.5731,-3.1175,-3.2534,-3.3719,-3.6139,-3.6523,-3.6542,-3.7574,-3.7109,-3.6482,-3.6479,-3.5732,-3.4955,0.0,0.0,-3.6077,-3.7571,-3.8689,-4.0179,-4.2619,-4.23,-4.2411,0.0,0.0,0.0,0.0,0.0,0.0,-4.4135,0.0,-4.5249,-4.5287,-4.5342,-4.6085,-4.7664,-4.7738,-4.8129,-4.8909,-4.8909,-4.8909,-4.8909,-4.8714,-4.8818,-4.9085,-4.8919,-4.9015,-4.9314,-4.9646,-4.9803,-4.983,-5.0144,-5.0278,-5.0278,-5.0302,-5.0302,-5.0302,-5.0302,-5.0302,-5.0278,-5.0278,-5.0302,-5.0302,-5.0302,-5.0302,-5.0302,-5.0302,-5.0302,-5.0302,-5.0302,-5.0393,-5.0481,-5.0464,-4.9912,-4.9143,-4.8345,-4.7532,-4.695,-4.7023,-4.7038,-4.6959,-4.6814,-4.6778,-4.634,-4.5024,-4.4776,-4.4966,-4.5399,-4.549,-4.549,-4.5507,-4.5526,-4.5436,-4.5243,-4.5203,-4.5304,-4.5472,-4.5507,-4.5594,-4.58,-4.58,-4.58,-4.58,-4.58,-4.58,-4.58,-4.58,-4.58,-4.58,-4.581,-4.5815,-4.5815,-4.5731,-4.5715,-3.2476,-3.4041,-3.5599,-3.6789,-3.7201,-3.7167,-3.6666,-3.6217,-3.5238,-3.2895,-3.2079,-3.1129,0.0,0.0,0.0,-3.5231,-3.8677,0.0,-4.3706,-4.4274,0.0,-4.5114,0.0,-4.5264,-4.5884,-4.6345,0.0,0.0,-4.4915,-4.4599,-4.5268,-4.5862,-4.6628,-4.7599,-4.8211,-4.8618,-4.8822,-4.8874,-4.8874,-4.8822,-4.9027,-4.909,-4.9104,-4.9309,-4.9431,-4.9521,-4.9608,-4.9655,-4.9684,-4.994,-5.0082,-5.0089,-5.0255,-5.0302,-5.0302,-5.0302,-5.0207,-5.0082,-5.0082,-5.0163,-5.0302,-5.0367,-5.0325,-5.0302,-5.0302,-5.0302,-5.0325,-5.0416,-5.0459,-5.0389,-4.9875,-4.9122,-4.8326,-4.7573,-4.6738,-4.61,-4.6129,-4.6001,-4.6078,-4.6681,-4.6527,-4.5927,-4.4772,-4.4688,-4.4849,-4.4966,-4.5285,-4.5541,-4.5688,-4.5723,-4.5642,-4.5436,-4.556,-4.561,-4.5507,-4.5642,-4.5737,-4.58,-4.58,-4.58,-4.58,-4.58,-4.58,-4.58,-4.58,-4.58,-4.58,-4.58,-4.5786,-4.5786,-4.5841,-4.5874,-3.3945,-3.539,-3.66,-3.7082,-3.7016,-3.6521,-3.5332,-3.4339,-3.2914,-3.0176,-2.9165,0.0,0.0,0.0,0.0,0.0,0.0,0.0,-4.2903,-4.3893,-4.4677,0.0,-4.5581,0.0,-4.6531,-4.6917,-4.6941,0.0,-4.5621,-4.5454,-4.6308,-4.6773,-4.737,-4.8153,-4.8616,-4.8839,-4.8839,-4.8874,-4.8874,-4.8857,-4.9012,-4.9027,-4.8974,-4.9104,-4.915,-4.915,-4.9327,-4.9408,-4.9457,-4.9797,-4.9966,-4.9966,-5.0081,-5.0076,-4.9974,-4.9974,-4.994,-4.9833,-4.986,-4.994,-5.0019,-5.0044,-5.0025,-4.9974,-4.9974,-4.9778,-4.9643,-5.0172,-5.015,-4.9912,-4.962,-4.8916,-4.8079,-4.7323,-4.639,-4.5658,-4.5658,-4.5507,-4.5477,-4.5837,-4.5641,-4.5195,-4.4599,-4.4595,-4.4688,-4.4795,-4.512,-4.5436,-4.5642,-4.5737,-4.5752,-4.5642,-4.5737,-4.5752,-4.5642,-4.5737,-4.58,-4.58,-4.58,-4.58,-4.58,-4.58,-4.58,-4.58,-4.58,-4.58,-4.58,-4.5841,-4.5835,-4.5854,-4.5898,-4.5953,-3.5372,-3.6443,-3.7013,-3.7026,-3.6362,-3.5317,-3.3758,-3.2106,-3.0267,-2.8007,0.0,-2.5813,-2.4997,0.0,-2.9593,-3.1638,0.0,-3.8739,-4.1464,-4.2677,-4.3863,-4.5431,-4.5742,-4.6122,-4.688,-4.6941,-4.6908,-4.681,-4.6828,-4.707,-4.7664,-4.7701,-4.8073,-4.8872,-4.8909,-4.8909,-4.8909,-4.8909,-4.8909,-4.8909,-4.8857,-4.8822,-4.8822,-4.8678,-4.8623,-4.866,-4.8956,-4.9108,-4.9179,-4.9657,-4.9814,-4.9814,-4.9843,-4.9749,-4.9598,-4.9598,-4.9569,-4.9588,-4.9646,-4.9569,-4.951,-4.9598,-4.9598,-4.9598,-4.9598,-4.9145,-4.8795,-4.9676,-4.9529,-4.9106,-4.9211,-4.8713,-4.8005,-4.721,-4.6268,-4.5526,-4.5526,-4.5362,-4.5115,-4.4819,-4.4648,-4.4524,-4.4551,-4.4551,-4.4595,-4.477,-4.503,-4.5244,-4.5399,-4.5607,-4.5766,-4.58,-4.5752,-4.5737,-4.58,-4.5786,-4.5766,-4.58,-4.58,-4.58,-4.58,-4.58,-4.58,-4.58,-4.5814,-4.5814,-4.5794,-4.5873,-4.5898,-4.591,-4.5986,-4.6007,-3.6295,-3.6803,-3.6911,-3.6221,-3.592,-3.5076,-3.2415,-3.0845,0.0,0.0,0.0,-2.3885,-2.2629,-2.5205,0.0,-3.1299,0.0,0.0,0.0,0.0,-4.5164,0.0,0.0,0.0,0.0,0.0,0.0,0.0,-4.8481,-4.8259,-4.7738,-4.7701,-4.8073,-4.8872,-4.8909,-4.8909,-4.8909,-4.8909,-4.8909,-4.8909,-4.8874,-4.8874,-4.8874,-4.8874,-4.8855,-4.8855,-4.8925,-4.8925,-4.8978,-4.9295,-4.939,-4.9421,-4.9566,-4.9636,-4.9598,-4.9598,-4.9499,-4.9352,-4.9384,-4.9225,-4.9108,-4.9539,-4.9655,-4.9598,-4.9598,-4.9145,-4.8655,-4.8941,-4.8575,-4.7947,-4.7501,-4.7259,-4.6997,-4.6293,-4.5882,-4.5665,-4.5665,-4.5381,-4.5038,-4.4693,-4.4605,-4.4613,-4.4739,-4.4745,-4.477,-4.4776,-4.503,-4.5118,-4.4943,-4.5304,-4.561,-4.5766,-4.549,-4.5436,-4.5766,-4.5642,-4.5626,-4.58,-4.58,-4.58,-4.58,-4.58,-4.58,-4.58,-4.5848,-4.5873,-4.5873,-4.5953,-4.5986,-4.5986,-4.6037,-4.6084,-3.6107,-3.6554,-3.6738,-3.5811,-3.5007,-3.3561,-3.024,0.0,0.0,0.0,0.0,-2.1806,-2.0776,0.0,0.0,0.0,0.0,0.0,0.0,0.0,0.0,0.0,0.0,0.0,0.0,0.0,0.0,0.0,-4.8909,-4.8723,-4.8351,-4.8314,-4.85,-4.889,-4.8909,-4.8909,-4.8909,-4.8909,-4.8909,-4.8909,-4.8909,-4.8909,-4.8909,-4.8909,-4.8909,-4.8909,-4.8909,-4.8909,-4.8909,-4.9046,-4.9094,-4.9094,-4.9206,-4.922,-4.922,-4.922,-4.9174,-4.9094,-4.9094,-4.9012,-4.8885,-4.8778,-4.899,-4.9177,-4.884,-4.8246,-4.7786,-4.7985,-4.7586,-4.704,-4.6837,-4.6796,-4.6602,-4.5816,-4.5509,-4.5342,-4.5201,-4.5042,-4.4846,-4.4685,-4.4659,-4.4667,-4.4681,-4.4707,-4.4681,-4.4655,-4.4843,-4.4962,-4.48,-4.5011,-4.5225,-4.5454,-4.5399,-4.5436,-4.5626,-4.5642,-4.5708,-4.578,-4.58,-4.58,-4.58,-4.5822,-4.5848,-4.5848,-4.5929,-4.5964,-4.5964,-4.6017,-4.6037,-4.6047,-4.6111,-4.6146,-3.5644,-3.6291,-3.6561,-3.5479,-3.421,-3.2195,-2.8373,-2.6345,0.0,0.0,0.0,-2.016,-1.9781,0.0,0.0,0.0,0.0,0.0,0.0,0.0,0.0,0.0,0.0,0.0,0.0,0.0,0.0,0.0,-4.8909,-4.8909,-4.8909,-4.8909,-4.8909,-4.8909,-4.8909,-4.8909,-4.8909,-4.8909,-4.8909,-4.8909,-4.8909,-4.8909,-4.8909,-4.8909,-4.8909,-4.8909,-4.8909,-4.8909,-4.8909,-4.8909,-4.8909,-4.8909,-4.8909,-4.8909,-4.8909,-4.8909,-4.8909,-4.8872,-4.8739,-4.8699,-4.8568,-4.7909,-4.8143,-4.855,-4.7909,-4.7222,-4.6723,-4.7004,-4.6592,-4.6129,-4.632,-4.6378,-4.6205,-4.5515,-4.5222,-4.5061,-4.4796,-4.4745,-4.4738,-4.4719,-4.4719,-4.4738,-4.4712,-4.4712,-4.4667,-4.4587,-4.4714,-4.4819,-4.4745,-4.4739,-4.4838,-4.5026,-4.5203,-4.5343,-4.5418,-4.5594,-4.5692,-4.5737,-4.578,-4.5827,-4.5827,-4.5893,-4.591,-4.591,-4.5986,-4.6017,-4.6017,-4.6084,-4.6111,-4.6111,-4.6181,-4.6196,-3.5405,-3.6391,-3.658,-3.4976,-3.3923,-3.2144,-2.7795,0.0,0.0,0.0,-1.9649,-1.949,-2.026,-2.0739,0.0,0.0,0.0,0.0,0.0,0.0,0.0,0.0,0.0,0.0,0.0,0.0,0.0,-4.8909,-4.8909,-4.8909,-4.8909,-4.8909,-4.8909,-4.8909,-4.8909,-4.8909,-4.8909,-4.8909,-4.8909,-4.8909,-4.8909,-4.8909,-4.8909,-4.8909,-4.8909,-4.8909,-4.8909,-4.8909,-4.8909,-4.8909,-4.8909,-4.8909,-4.8909,-4.8909,-4.8909,-4.8909,-4.8909,-4.8832,-4.8184,-4.7988,-4.789,-4.7203,-4.7442,-4.7871,-4.7203,-4.6506,-4.6005,-4.6032,-4.5552,-4.5086,-4.5273,-4.5337,-4.5317,-4.5241,-4.5201,-4.5115,-4.4943,-4.487,-4.4846,-4.4796,-4.477,-4.4846,-4.5014,-4.5038,-4.4995,-4.4868,-4.4891,-4.4795,-4.4578,-4.4524,-4.4524,-4.4551,-4.456,-4.4758,-4.5201,-4.5223,-4.5323,-4.5526,-4.5761,-4.5886,-4.5886,-4.5964,-4.5997,-4.5997,-4.6066,-4.6093,-4.6093,-4.6154,-4.6196,-4.6196,-4.6196,-4.6196,-3.4126,-3.4986,-3.5337,-3.4139,-3.2617,-3.0472,-2.6775,0.0,0.0,-1.9823,-1.9199,-1.9206,-1.9549,-2.0138,-2.1579,0.0,-2.6575,-2.917,0.0,0.0,0.0,0.0,0.0,0.0,0.0,0.0,0.0,-4.8909,-4.8909,-4.8909,-4.8909,-4.8909,-4.8909,-4.8909,-4.8909,-4.8909,-4.8909,-4.8909,-4.8909,-4.8909,-4.8909,-4.8909,-4.8909,-4.8909,-4.8909,-4.8909,-4.8909,-4.8909,-4.8909,-4.8909,-4.8909,-4.8909,-4.8909,-4.8978,-4.9079,-4.9079,-4.8814,-4.838,-4.8172,-4.7704,-4.7142,-4.6467,-4.6411,-4.6588,-4.6365,-4.6073,-4.5771,-4.5394,-4.5111,-4.4919,-4.4995,-4.5019,-4.5019,-4.5019,-4.5019,-4.4995,-4.4919,-4.4895,-4.4895,-4.4889,-4.4846,-4.487,-4.4895,-4.4919,-4.4895,-4.4783,-4.4783,-4.4751,-4.4632,-4.4632,-4.4632,-4.4632,-4.4648,-4.4764,-4.4938,-4.5096,-4.5304,-4.5539,-4.565,-4.5783,-4.5944,-4.6017,-4.6066,-4.6066,-4.613,-4.6154,-4.6154,-4.6189,-4.6196,-4.6196,-4.6196,-4.6196,-3.2932,-3.4073,-3.4846,-3.3983,-3.2124,-2.9647,0.0,0.0,-2.1682,-1.9288,-1.8931,-1.9033,-1.9014,-1.9553,-2.0785,-2.307,-2.486,-2.7331,-3.1284,0.0,0.0,0.0,0.0,0.0,0.0,0.0,0.0,-4.8909,-4.8909,-4.8909,-4.8909,-4.8909,-4.8909,-4.8909,-4.8909,-4.8909,-4.8909,-4.8909,-4.8909,-4.8909,-4.8909,-4.8909,-4.8909,-4.8909,-4.8909,-4.8909,-4.8909,-4.8943,-4.8978,-4.8943,-4.8959,-4.9027,-4.8993,-4.9113,-4.9206,-4.8982,-4.8565,-4.8065,-4.765,-4.7087,-4.643,-4.5743,-4.5507,-4.5526,-4.5587,-4.5561,-4.5421,-4.5016,-4.4895,-4.4895,-4.4895,-4.4895,-4.4895,-4.4895,-4.4895,-4.4895,-4.4895,-4.4895,-4.4895,-4.4895,-4.4895,-4.4889,-4.4821,-4.4821,-4.4815,-4.4738,-4.4738,-4.4719,-4.4712,-4.4712,-4.4712,-4.4712,-4.4795,-4.4872,-4.4814,-4.5007,-4.5244,-4.547,-4.5619,-4.5769,-4.5956,-4.6075,-4.6138,-4.6138,-4.6181,-4.6196,-4.6196,-4.6196,-4.6196,-4.6196,-4.6196,-4.6196,-3.2068,-3.4073,-3.5618,-3.4863,-3.2967,-3.0275,0.0,-2.385,-2.1562,-1.9269,-1.8843,-1.8932,-1.8981,-1.8947,-1.9576,-2.1611,-2.3614,-2.6454,-3.0778,0.0,0.0,0.0,0.0,0.0,0.0,0.0,-4.8909,-4.8909,-4.8909,0.0,-4.8909,-4.8909,-4.8909,-4.8909,-4.8909,-4.8909,-4.8909,-4.8909,-4.8909,-4.8909,-4.8909,-4.8909,-4.8909,-4.8909,-4.8909,-4.8909,-4.8909,-4.9012,-4.9179,-4.8978,-4.9094,-4.9384,-4.9244,-4.9276,-4.9302,-4.8483,-4.8202,-4.7988,-4.644,-4.593,-4.5806,-4.513,-4.4865,-4.4815,-4.4889,-4.4865,-4.4815,-4.487,-4.4895,-4.4895,-4.4895,-4.4895,-4.4895,-4.4895,-4.4895,-4.4895,-4.4895,-4.4895,-4.4895,-4.4895,-4.4895,-4.4895,-4.4895,-4.4895,-4.4889,-4.4796,-4.4796,-4.477,-4.4712,-4.4712,-4.4712,-4.4712,-4.4943,-4.5014,-4.4821,-4.491,-4.5052,-4.5201,-4.5638,-4.5905,-4.5886,-4.6093,-4.6196,-4.6196,-4.6196,-4.6196,-4.6196,-4.6196,-4.6196,-4.6196,-4.6196,-4.6196,-2.9055,-3.0131,-3.0629,-3.0386,-2.9124,-2.7482,-2.5672,-2.3422,-2.1348,-2.0102,-1.9291,-1.8843,-1.8861,-1.8807,-1.9993,-2.3695,-2.4734,0.0,0.0,0.0,0.0,0.0,0.0,0.0,0.0,0.0,-4.8909,-4.8909,-4.8909,-4.8909,-4.8909,-4.8909,-4.8909,-4.8909,-4.8909,-4.8909,-4.8909,-4.8909,-4.8909,-4.8909,-4.8909,-4.8978,-4.9113,-4.9113,-4.9179,-4.9257,-4.9257,-4.9289,-4.9321,-4.9257,-4.9321,-4.9415,-4.9352,-4.9089,-4.8681,-4.8436,-4.7655,-4.6693,-4.6252,-4.5684,-4.511,-4.489,-4.484,-4.4796,-4.484,-4.484,-4.4796,-4.487,-4.4895,-4.4895,-4.4895,-4.4895,-4.4895,-4.4895,-4.4895,-4.4895,-4.4895,-4.4895,-4.4895,-4.4895,-4.4895,-4.4895,-4.4895,-4.4895,-4.4895,-4.487,-4.487,-4.4846,-4.4821,-4.4821,-4.487,-4.4943,-4.5019,-4.5007,-4.4992,-4.5084,-4.5265,-4.5587,-4.5653,-4.5825,-4.6096,-4.6177,-4.6195,-4.6195,-4.6195,-4.6195,-4.6195,-4.6195,-4.6195,-4.6195,-4.6195,-4.6195,0.0,-2.7911,-2.8458,-2.8756,-2.7822,-2.6556,-2.5397,-2.3246,-2.1261,-2.0444,-1.9471,-1.8788,-1.8769,-1.8697,-1.9809,-2.3302,-2.4326,0.0,0.0,0.0,0.0,0.0,0.0,0.0,0.0,-4.8282,-4.8909,-4.8909,-4.8909,-4.8909,-4.8909,-4.8909,-4.8909,-4.8909,-4.8909,-4.8909,-4.8909,-4.8909,-4.8943,-4.9012,-4.9012,-4.9113,-4.9276,-4.9276,-4.9321,-4.9415,-4.9415,-4.9258,0.0,-4.8964,-4.8837,-4.8625,-4.8585,-4.8352,-4.8002,-4.7681,-4.6951,-4.6095,-4.5824,-4.5325,-4.4821,-4.4821,-4.4821,-4.4821,-4.4815,-4.484,-4.4846,-4.487,-4.4895,-4.4895,-4.4895,-4.4895,-4.4895,-4.4895,-4.4895,-4.4895,-4.4895,-4.4895,-4.4895,-4.4895,-4.4895,-4.4895,-4.4895,-4.4895,-4.4895,-4.4895,-4.4895,-4.4919,-4.4967,-4.4986,-4.5033,-4.517,-4.5199,-4.5246,-4.5358,-4.5266,-4.5357,-4.5706,-4.5693,-4.5809,-4.6105,-4.6176,-4.6206,-4.6206,-4.6206,-4.6206,-4.6206,-4.6206,-4.6206,-4.6206,-4.6206,-4.6206,0.0,0.0,0.0,0.0,0.0,-2.6838,-2.5338,-2.314,0.0,-2.0408,-1.9489,-1.8842,-1.8876,-1.8785,-1.9356,-2.1323,0.0,0.0,0.0,0.0,0.0,0.0,0.0,0.0,0.0,-4.7342,-4.8909,-4.8909,-4.8909,-4.8909,-4.8909,-4.8909,-4.8872,-4.8816,-4.8816,-4.8816,-4.8816,-4.8795,-4.8859,-4.9043,-4.9043,-4.9089,-4.9227,-4.9227,-4.9227,-4.9258,-4.9258,-4.8915,-4.8315,-4.8209,-4.7853,-4.7397,-4.7257,-4.7246,-4.7226,-4.6468,-4.6165,-4.5994,-4.5179,-4.4895,-4.4895,-4.4895,-4.4895,-4.487,-4.4821,-4.4846,-4.4895,-4.4895,-4.4895,-4.4895,-4.4895,-4.4895,-4.4895,-4.4895,-4.4895,-4.4895,-4.4895,-4.4895,-4.4895,-4.4895,-4.4895,-4.4895,-4.4895,-4.4895,-4.4895,-4.4895,-4.4895,-4.4943,-4.5061,-4.5103,-4.517,-4.5277,-4.5473,-4.5645,-4.5796,-4.5449,-4.5361,-4.563,-4.577,-4.5889,-4.6033,-4.6144,-4.6211,-4.6211,-4.6211,-4.6211,-4.6211,-4.6211,-4.6211,-4.6211,-4.6211,-4.6211,-2.1819,0.0,-2.3652,-2.3839,-2.3719,-2.3425,0.0,-2.19,0.0,0.0,0.0,0.0,0.0,0.0,0.0,0.0,0.0,0.0,0.0,0.0,0.0,0.0,0.0,0.0,0.0,-4.7797,-4.8909,-4.8909,-4.8909,-4.8909,-4.8909,-4.8909,-4.868,-4.8161,-4.8143,-4.8143,-4.8143,-4.7635,-4.7379,-4.744,-4.744,-4.7548,-4.773,-4.773,-4.7768,-4.7859,-4.7859,-4.7791,-4.7629,-4.7602,-4.7515,-4.7397,-4.7371,-4.6992,-4.6449,-4.6259,-4.5786,-4.5179,-4.4971,-4.4895,-4.4895,-4.4895,-4.4895,-4.487,-4.4821,-4.4846,-4.4895,-4.4821,-4.4846,-4.4895,-4.4895,-4.4895,-4.4895,-4.4895,-4.4895,-4.4895,-4.4895,-4.4895,-4.4895,-4.4895,-4.4895,-4.4895,-4.4895,-4.4895,-4.4895,-4.4895,-4.501,-4.5061,-4.5103,-4.5192,-4.5277,-4.538,-4.5419,-4.5543,-4.5775,-4.5757,-4.5859,-4.6112,-4.6064,-4.6091,-4.6216,-4.6269,-4.6273,-4.6273,-4.6273,-4.6273,-4.6273,-4.6273,-4.6273,-4.6273,-4.6273,-4.6273,-2.0333,-2.1287,-2.2237,-2.26,-2.2753,-2.2797,0.0,0.0,0.0,0.0,0.0,0.0,0.0,0.0,0.0,0.0,0.0,0.0,0.0,0.0,0.0,0.0,0.0,0.0,0.0,-4.8389,-4.8909,-4.8909,-4.8909,-4.8776,-4.8453,-4.8435,-4.8143,-4.7461,-4.7128,-4.7128,-4.7442,-4.7084,-4.6966,-4.7042,-4.7042,-4.7127,-4.7284,-4.7284,-4.7318,-4.7397,-4.7397,-4.7188,-4.6847,-4.6847,-4.6601,-4.6241,-4.6241,-4.5994,-4.5596,-4.5596,-4.5293,-4.4895,-4.4895,-4.4895,-4.4895,-4.4895,-4.4895,-4.487,-4.4821,-4.484,-4.4846,-4.4796,-4.484,-4.4846,-4.4895,-4.4895,-4.4895,-4.4895,-4.4895,-4.4895,-4.4895,-4.4895,-4.4895,-4.4895,-4.4895,-4.4895,-4.4895,-4.4943,-4.4991,-4.4991,-4.5103,-4.5213,-4.5218,-4.53,-4.5419,-4.5563,-4.558,-4.5688,-4.5925,-4.5959,-4.6057,-4.6206,-4.6138,-4.615,-4.63,-4.63,-4.63,-4.63,-4.63,-4.63,-4.63,-4.63,-4.63,-4.63,-4.63,-4.63,-1.9957,-2.1151,-2.248,-2.2926,-2.3019,-2.3057,0.0,0.0,0.0,0.0,0.0,0.0,0.0,0.0,0.0,0.0,0.0,0.0,0.0,0.0,0.0,0.0,0.0,0.0,-4.8407,-4.8649,-4.8723,-4.8723,-4.8612,-4.8323,-4.7746,-4.7722,-4.7442,-4.6749,-4.6195,-4.6101,-4.6581,-4.66,-4.6676,-4.6852,-4.6852,-4.6906,-4.7018,-4.7018,-4.7018,-4.7018,-4.7018,-4.662,-4.5994,-4.5994,-4.5558,-4.4895,-4.4895,-4.4895,-4.4895,-4.4895,-4.4895,-4.4895,-4.4895,-4.4895,-4.4895,-4.4895,-4.4895,-4.487,-4.4821,-4.4796,-4.4796,-4.4796,-4.4796,-4.4796,-4.487,-4.487,-4.487,-4.4895,-4.4895,-4.4895,-4.4895,-4.4895,-4.4895,-4.4895,-4.4895,-4.4895,-4.4919,-4.5014,-4.5103,-4.5125,-4.5235,-4.5341,-4.5419,-4.5438,-4.5545,-4.5794,-4.5808,-4.5891,-4.6091,-4.6098,-4.6105,-4.6138,-4.6138,-4.6181,-4.63,-4.63,-4.63,-4.63,-4.63,-4.63,-4.63,-4.63,-4.63,-4.63,-4.63,-4.63,-2.0626,-2.1961,-2.285,-2.1667,-2.1325,-2.148,0.0,0.0,0.0,0.0,0.0,0.0,0.0,0.0,0.0,0.0,0.0,0.0,0.0,0.0,0.0,0.0,0.0,-4.7299,-4.6921,-4.7429,-4.7872,-4.7969,-4.7336,-4.6936,-4.69,-4.6986,-4.673,-4.598,-4.5913,-4.5682,-4.5199,-4.5199,-4.5224,-4.5268,-4.5268,-4.5249,-4.5274,-4.5274,-4.5274,-4.5274,-4.5274,-4.5217,-4.5103,-4.5103,-4.5028,-4.4895,-4.4895,-4.4895,-4.4895,-4.4895,-4.4895,-4.4895,-4.4895,-4.4895,-4.4895,-4.4895,-4.4895,-4.487,-4.4821,-4.4796,-4.4796,-4.4796,-4.4745,-4.4738,-4.4815,-4.4815,-4.4821,-4.487,-4.4895,-4.4895,-4.4895,-4.4895,-4.4895,-4.4895,-4.4895,-4.4938,-4.5057,-4.5103,-4.5148,-4.5235,-4.5341,-4.5438,-4.5545,-4.561,-4.5713,-4.5859,-4.5871,-4.5938,-4.6091,-4.6098,-4.6144,-4.6269,-4.6273,-4.6273,-4.63,-4.63,-4.63,-4.63,-4.63,-4.63,-4.63,-4.63,-4.63,-4.63,-4.63,-4.63,-2.0094,-2.1082,-2.2032,-2.2163,-2.2834,-2.3708,0.0,0.0,0.0,0.0,0.0,0.0,0.0,0.0,0.0,0.0,0.0,0.0,0.0,0.0,0.0,0.0,0.0,-4.5885,-4.6504,-4.6941,-4.721,-4.7317,-4.6962,-4.66,-4.624,-4.6261,-4.597,-4.5243,-4.5251,-4.5115,-4.4865,-4.4865,-4.487,-4.4895,-4.4895,-4.4895,-4.4895,-4.4895,-4.4895,-4.4895,-4.4895,-4.4895,-4.4895,-4.4895,-4.4895,-4.4895,-4.4895,-4.4895,-4.4895,-4.4895,-4.4895,-4.4895,-4.4895,-4.4895,-4.4895,-4.4895,-4.4895,-4.4895,-4.4846,-4.4821,-4.4796,-4.4796,-4.4789,-4.477,-4.4821,-4.4846,-4.4846,-4.4895,-4.4895,-4.4895,-4.4895,-4.4895,-4.4895,-4.4895,-4.4943,-4.5033,-4.5103,-4.5194,-4.5281,-4.5341,-4.5438,-4.5547,-4.5642,-4.5688,-4.5783,-4.5988,-4.6008,-4.6052,-4.6206,-4.6211,-4.6221,-4.63,-4.63,-4.63,-4.63,-4.63,-4.63,-4.63,-4.63,-4.63,-4.63,-4.63,-4.63,-4.63,-4.63,-4.63,-1.9754,-2.0433,-2.1462,-2.2817,0.0,0.0,0.0,0.0,0.0,0.0,0.0,0.0,0.0,0.0,0.0,0.0,0.0,0.0,0.0,0.0,-4.0787,-4.3504,-4.4128,-4.4922,-4.6488,-4.6526,-4.6506,-4.6607,-4.6448,-4.612,-4.5565,-4.5555,-4.5327,-4.4757,-4.4719,-4.4764,-4.4796,-4.477,-4.4796,-4.487,-4.487,-4.487,-4.487,-4.487,-4.4889,-4.4895,-4.4895,-4.4895,-4.4895,-4.4895,-4.4895,-4.4895,-4.4895,-4.4895,-4.4895,-4.4895,-4.4895,-4.4895,-4.4895,-4.4895,-4.4895,-4.4895,-4.4895,-4.4895,-4.4895,-4.487,-4.4821,-4.4821,-4.4821,-4.4821,-4.487,-4.487,-4.487,-4.4895,-4.4895,-4.4895,-4.4895,-4.4895,-4.4895,-4.4943,-4.5014,-4.5106,-4.5151,-4.5322,-4.5456,-4.5438,-4.5563,-4.5692,-4.5728,-4.5769,-4.5859,-4.6072,-4.6107,-4.6137,-4.624,-4.6277,-4.63,-4.63,-4.63,-4.63,-4.63,-4.63,-4.63,-4.63,-4.63,-4.63,-4.63,-4.63,-4.63,-4.63,-4.63,-4.63,-2.0407,-2.1211,-2.2027,-2.2879,0.0,0.0,0.0,0.0,0.0,0.0,0.0,0.0,0.0,0.0,0.0,0.0,0.0,0.0,0.0,0.0,-4.2767,-4.3767,-4.4742,-4.5668,-4.6589,-4.5979,-4.5592,-4.5781,-4.5087,-4.4701,-4.478,-4.489,-4.4903,-4.4815,-4.4796,-4.4815,-4.4796,-4.4738,-4.4738,-4.4815,-4.4815,-4.4815,-4.4815,-4.4815,-4.4821,-4.4895,-4.4895,-4.4895,-4.4895,-4.4895,-4.4895,-4.4895,-4.4895,-4.4895,-4.4895,-4.4895,-4.4895,-4.4895,-4.4895,-4.4895,-4.4895,-4.4895,-4.4895,-4.4895,-4.4895,-4.4895,-4.4895,-4.4895,-4.4895,-4.487,-4.4821,-4.4815,-4.4821,-4.4889,-4.4895,-4.4895,-4.4895,-4.4895,-4.4919,-4.5061,-4.5103,-4.5151,-4.5341,-4.549,-4.5574,-4.5603,-4.5756,-4.5886,-4.5883,-4.5998,-4.6074,-4.6107,-4.6091,-4.6099,-4.6105,-4.6236,-4.63,-4.63,-4.63,-4.63,-4.63,-4.63,-4.63,-4.63,-4.63,-4.63,-4.63,-4.63,-4.63,-4.63,-4.63,-4.63,-1.9815,-2.0899,0.0,0.0,0.0,0.0,0.0,0.0,0.0,0.0,0.0,0.0,0.0,0.0,0.0,0.0,0.0,0.0,-4.0581,-4.0903,-4.1607,-4.3033,-4.3632,-4.4255,-4.5167,-4.5067,-4.4965,-4.5076,-4.4802,-4.4632,-4.4632,-4.4685,-4.4712,-4.4685,-4.4685,-4.4712,-4.4796,-4.477,-4.4745,-4.4738,-4.4738,-4.4738,-4.4738,-4.477,-4.4796,-4.4821,-4.487,-4.4895,-4.4895,-4.4895,-4.4895,-4.4895,-4.4895,-4.4895,-4.4895,-4.4895,-4.4895,-4.4895,-4.4895,-4.4895,-4.4895,-4.4895,-4.4895,-4.4895,-4.4895,-4.4895,-4.4895,-4.4895,-4.4895,-4.4895,-4.487,-4.4846,-4.487,-4.4895,-4.4895,-4.4895,-4.4895,-4.4986,-4.5057,-4.5103,-4.5216,-4.5301,-4.54,-4.5512,-4.5599,-4.5603,-4.5665,-4.5733,-4.5769,-4.5829,-4.5891,-4.5978,-4.5988,-4.6044,-4.622,-4.6201,-4.6206,-4.6288,-4.6296,-4.63,-4.63,-4.63,-4.63,-4.63,-4.63,-4.63,-4.63,-4.63,-4.63,-4.63,-4.63,-4.63,-1.9792,-2.0631,0.0,0.0,0.0,0.0,0.0,0.0,0.0,0.0,0.0,0.0,0.0,0.0,0.0,0.0,0.0,-3.9723,-3.988,-4.0092,-4.0759,-4.23,-4.2837,-4.3437,-4.4336,-4.4524,-4.4605,-4.4659,-4.4659,-4.4659,-4.4632,-4.4632,-4.4632,-4.4632,-4.4605,-4.4659,-4.4738,-4.4712,-4.4685,-4.4632,-4.4632,-4.4659,-4.4685,-4.4712,-4.4764,-4.477,-4.4821,-4.4846,-4.4821,-4.487,-4.4895,-4.4895,-4.4895,-4.4895,-4.4895,-4.4895,-4.4895,-4.4895,-4.4895,-4.4895,-4.4895,-4.4895,-4.4895,-4.4895,-4.4895,-4.4895,-4.4895,-4.4895,-4.4895,-4.4895,-4.4895,-4.4895,-4.4895,-4.4895,-4.4895,-4.4895,-4.4943,-4.5033,-4.5125,-4.5194,-4.5301,-4.5419,-4.5476,-4.5584,-4.5654,-4.5603,-4.5648,-4.5688,-4.5718,-4.5761,-4.5783,-4.5835,-4.5908,-4.6016,-4.6164,-4.6177,-4.6195,-4.6284,-4.6296,-4.63,-4.63,-4.63,-4.63,-4.63,-4.63,-4.63,-4.63,-4.63,-4.63,-4.63,-4.63,-4.63,-2.0567,-2.057,0.0,0.0,0.0,0.0,0.0,0.0,0.0,0.0,0.0,0.0,0.0,0.0,0.0,-3.637,-3.7839,-3.895,-3.9073,-3.9844,-4.0747,-4.167,-4.2669,-4.3595,-4.4421,-4.4515,-4.4542,-4.4578,-4.4605,-4.4632,-4.4693,-4.4712,-4.4712,-4.4712,-4.4632,-4.4605,-4.4605,-4.4542,-4.4515,-4.4515,-4.4515,-4.4542,-4.4605,-4.4605,-4.4632,-4.4712,-4.477,-4.4745,-4.4712,-4.4846,-4.4895,-4.4895,-4.4895,-4.4895,-4.4895,-4.4895,-4.4895,-4.4895,-4.4895,-4.4895,-4.4895,-4.4895,-4.4895,-4.4895,-4.4895,-4.4895,-4.4895,-4.4895,-4.4914,-4.4914,-4.4914,-4.4914,-4.4914,-4.4895,-4.4895,-4.4943,-4.5061,-4.5103,-4.5151,-4.5361,-4.54,-4.5438,-4.5586,-4.5696,-4.5757,-4.562,-4.5769,-4.5875,-4.5808,-4.5854,-4.5847,-4.5699,-4.5947,-4.6035,-4.5906,-4.6137,-4.6284,-4.6303,-4.6292,-4.63,-4.63,-4.63,-4.63,-4.63,-4.63,-4.63,-4.63,-4.63,-4.63,-4.63,-4.63,-4.63,-1.9672,0.0,0.0,0.0,0.0,0.0,0.0,0.0,0.0,0.0,0.0,0.0,0.0,0.0,0.0,-3.6609,-3.796,-3.9101,-3.929,-3.9522,-4.0061,-4.106,-4.1886,-4.2731,-4.3576,-4.4177,-4.4515,-4.4542,-4.4542,-4.4542,-4.457,-4.4551,-4.4578,-4.4632,-4.4605,-4.4632,-4.4685,-4.4659,-4.4605,-4.4551,-4.4551,-4.457,-4.4524,-4.4578,-4.4605,-4.4632,-4.4764,-4.4745,-4.4712,-4.4796,-4.4846,-4.4895,-4.4895,-4.4895,-4.4895,-4.4895,-4.4895,-4.4895,-4.4895,-4.4895,-4.4895,-4.4895,-4.4895,-4.4895,-4.4895,-4.4895,-4.4919,-4.5014,-4.5404,-4.5721,-4.5278,-4.5521,-4.5741,-4.519,-4.5125,-4.5192,-4.5235,-4.5279,-4.5321,-4.54,-4.5545,-4.5692,-4.5727,-4.5771,-4.5786,-4.5742,-4.5708,-4.5677,-4.5668,-4.5648,-4.5626,-4.5684,-4.5654,-4.5665,-4.5822,-4.5815,-4.5844,-4.5939,-4.6037,-4.6156,-4.63,-4.63,-4.63,-4.63,-4.63,-4.63,-4.63,-4.63,-4.63,-4.63,-4.63,-4.63,-2.1009,0.0,0.0,0.0,0.0,0.0,0.0,0.0,0.0,0.0,0.0,0.0,0.0,-3.7719,0.0,-3.7644,-3.8524,-3.9272,-3.9452,-3.9452,-3.9796,-4.0828,-4.1324,-4.1893,-4.2746,-4.3538,-4.4026,-4.4026,-4.4327,-4.4515,-4.4515,-4.4515,-4.4515,-4.4551,-4.4551,-4.4578,-4.4632,-4.4632,-4.4605,-4.4551,-4.4551,-4.4524,-4.4515,-4.4524,-4.4578,-4.4605,-4.4685,-4.4738,-4.4738,-4.4745,-4.4815,-4.4895,-4.4895,-4.4895,-4.4895,-4.4895,-4.5098,-4.5344,-4.5028,-4.5325,-4.5735,-4.5098,-4.5122,-4.5426,-4.5426,-4.5426,-4.545,-4.5546,-4.5903,-4.6093,-4.5421,-4.5598,-4.5824,-4.5306,-4.5235,-4.5317,-4.5339,-4.5361,-4.5419,-4.5476,-4.5645,-4.58,-4.58,-4.5822,-4.5815,-4.5766,-4.568,-4.5601,-4.5531,-4.5645,-4.5688,-4.5594,-4.565,-4.5722,-4.5713,-4.579,-4.5844,-4.5886,-4.6013,-4.6131,-4.6269,-4.6296,-4.63,-4.63,-4.63,-4.63,-4.63,-4.63,-4.63,-4.63,-4.63,-4.63,0.0,0.0,0.0,0.0,0.0,0.0,0.0,0.0,0.0,0.0,0.0,0.0,0.0,-3.8515,-3.8361,-3.9125,-3.9324,-3.9477,-3.9599,-3.9575,-3.9857,-4.0764,-4.0885,-4.1174,-4.1907,-4.2701,-4.3182,-4.3182,-4.3857,-4.4289,-4.4289,-4.4364,-4.4402,-4.4402,-4.4477,-4.4515,-4.4515,-4.4515,-4.4515,-4.4515,-4.4515,-4.4515,-4.4515,-4.4515,-4.4542,-4.4605,-4.4605,-4.4685,-4.4815,-4.4719,-4.477,-4.4914,-4.499,-4.5028,-4.5028,-4.5079,-4.5584,-4.61,-4.5357,-4.607,-4.7065,-4.5584,-4.5653,-4.6297,-4.6222,-4.6228,-4.6209,-4.6206,-4.625,-4.614,-4.5421,-4.5375,-4.5494,-4.5357,-4.5338,-4.5339,-4.5419,-4.5438,-4.5475,-4.5584,-4.5727,-4.5822,-4.5822,-4.5879,-4.5871,-4.5747,-4.5708,-4.5648,-4.5456,-4.5809,-4.5902,-4.5473,-4.5852,-4.5998,-4.561,-4.5917,-4.6072,-4.5978,-4.6084,-4.617,-4.6201,-4.6269,-4.63,-4.63,-4.63,-4.63,-4.63,-4.63,-4.63,-4.63,-4.63,-4.6292,0.0,0.0,0.0,0.0,0.0,0.0,0.0,0.0,0.0,0.0,0.0,0.0,-3.9312,-3.9141,-3.9119,-3.9389,-3.9551,-3.9647,-3.967,-3.9717,-3.9811,-3.9976,-4.0527,-4.0948,-4.1067,-4.1811,-4.228,-4.228,-4.2423,-4.2535,-4.2535,-4.32,-4.3557,-4.3557,-4.4177,-4.4515,-4.4515,-4.4515,-4.4515,-4.4515,-4.4515,-4.4515,-4.4515,-4.4515,-4.4542,-4.4605,-4.4605,-4.4685,-4.4796,-4.477,-4.4821,-4.4971,-4.5603,-4.5842,-4.5918,-4.6482,-4.6814,-4.6946,-4.6758,-4.6927,-4.7173,-4.6868,-4.6895,-4.6959,-4.6442,-4.6277,-4.6174,-4.5668,-4.5935,-4.6221,-4.5591,-4.5937,-4.6263,-4.5687,-4.5532,-4.5532,-4.555,-4.5632,-4.5723,-4.5757,-4.5914,-4.6044,-4.6044,-4.6044,-4.5998,-4.5886,-4.5848,-4.5835,-4.5808,-4.5841,-4.5822,-4.5728,-4.5679,-4.5619,-4.5543,-4.5509,-4.5543,-4.5688,-4.5822,-4.5968,-4.6099,-4.624,-4.6308,-4.6308,-4.6308,-4.6292,-4.63,-4.6245,-4.624,-4.6308,-4.626,-4.6216,0.0,0.0,0.0,0.0,0.0,0.0,0.0,0.0,0.0,0.0,0.0,0.0,-3.9425,-3.9427,-3.9483,-3.9551,-3.967,-3.9739,-3.9739,-3.9758,-3.9735,-3.9712,-4.0056,-4.0309,-4.0284,-4.0973,-4.1436,-4.1436,-4.1766,-4.1991,-4.1991,-4.2431,-4.2881,-4.3294,-4.3707,-4.412,-4.4515,-4.4515,-4.4515,-4.4515,-4.4515,-4.4515,-4.4515,-4.4524,-4.4551,-4.457,-4.4632,-4.4685,-4.4745,-4.4745,-4.4796,-4.494,-4.5786,-4.6074,-4.6142,-4.6955,-4.7447,-4.7674,-4.7325,-4.7702,-4.822,-4.7494,-4.7303,-4.7288,-4.6929,-4.6605,-4.6278,-4.5938,-4.6132,-4.6311,-4.5705,-4.5874,-4.614,-4.5827,-4.5696,-4.5648,-4.5648,-4.5752,-4.5841,-4.5841,-4.5979,-4.6098,-4.6098,-4.6076,-4.6035,-4.5947,-4.5956,-4.5914,-4.5854,-4.5928,-4.5949,-4.5822,-4.5808,-4.5783,-4.565,-4.5689,-4.5744,-4.5796,-4.5917,-4.6036,-4.6146,-4.6203,-4.625,-4.6255,-4.6255,-4.624,-4.6245,-4.6216,-4.6211,-4.6255,-4.6211,-4.6206,0.0,0.0,0.0,0.0,0.0,0.0,0.0,0.0,0.0,0.0,0.0,-3.9502,-3.9452,-3.9575,-3.967,-3.9623,-3.9712,-3.9781,-3.9781,-3.9735,-3.9689,-3.9708,-3.9698,-3.9693,-3.9693,-4.0221,-4.0591,-4.0591,-4.121,-4.1605,-4.1605,-4.1736,-4.213,-4.2844,-4.2994,-4.3463,-4.4289,-4.4289,-4.4364,-4.4515,-4.4515,-4.4515,-4.4515,-4.457,-4.4551,-4.4515,-4.4632,-4.4685,-4.4685,-4.4712,-4.4719,-4.4865,-4.5715,-4.6002,-4.607,-4.6927,-4.7608,-4.8031,-4.7561,-4.8183,-4.8983,-4.7796,-4.7424,-4.7397,-4.7271,-4.6839,-4.6363,-4.626,-4.6268,-4.6202,-4.5703,-4.5629,-4.5727,-4.5835,-4.5802,-4.5742,-4.5747,-4.5835,-4.5928,-4.5928,-4.6033,-4.6138,-4.6131,-4.6091,-4.606,-4.6035,-4.6035,-4.5988,-4.5875,-4.6068,-4.6105,-4.5886,-4.606,-4.6076,-4.584,-4.6016,-4.6091,-4.6017,-4.6096,-4.617,-4.6209,-4.6196,-4.6189,-4.6201,-4.6206,-4.6206,-4.6206,-4.6201,-4.6201,-4.6206,-4.6201,-4.6195,0.0,0.0,0.0,0.0,0.0,0.0,0.0,0.0,0.0,0.0,0.0,-3.9526,-3.9551,-3.9599,-3.9623,-3.9689,-3.9689,-3.9712,-3.9712,-3.9712,-3.9708,-3.9698,-3.9693,-3.9669,-3.962,-3.9714,-3.9771,-3.9771,-3.9858,-3.9915,-3.9915,-4.0572,-4.1004,-4.1135,-4.1811,-4.26,-4.3444,-4.3463,-4.382,-4.4515,-4.4515,-4.4515,-4.4515,-4.4515,-4.4515,-4.4496,-4.4578,-4.4605,-4.4605,-4.4685,-4.4712,-4.4787,-4.5545,-4.5838,-4.5923,-4.6732,-4.7097,-4.7237,-4.7867,-4.7843,-4.7617,-4.8144,-4.7931,-4.7384,-4.6744,-4.6485,-4.6279,-4.5638,-4.5492,-4.5534,-4.5438,-4.556,-4.5703,-4.5733,-4.5847,-4.5947,-4.5886,-4.5988,-4.6072,-4.6072,-4.6189,-4.6269,-4.6279,-4.6275,-4.625,-4.6176,-4.6176,-4.617,-4.6144,-4.6176,-4.6181,-4.6144,-4.6064,-4.6005,-4.5978,-4.5899,-4.5899,-4.5987,-4.6024,-4.6084,-4.6201,-4.6189,-4.6203,-4.6209,-4.6209,-4.6195,-4.6206,-4.6203,-4.6196,-4.6209,-4.619,-4.6203,0.0,0.0,0.0,0.0,0.0,0.0,0.0,0.0,0.0,0.0,-3.7683,-3.8573,-3.9524,-3.9693,-3.9712,-3.9689,-3.9684,-3.9679,-3.9679,-3.9656,-3.9631,-3.9626,-3.9645,-3.9645,-3.9602,-3.9602,-3.9602,-3.9602,-3.9602,-3.9602,-3.9602,-3.9983,-4.0378,-4.0848,-4.123,-4.1839,-4.2686,-4.3149,-4.3735,-4.4515,-4.4515,-4.4515,-4.4515,-4.4515,-4.4515,-4.4515,-4.4551,-4.4605,-4.4605,-4.4632,-4.4659,-4.4708,-4.5528,-4.5801,-4.5848,-4.6732,-4.7022,-4.7049,-4.7475,-4.7467,-4.7277,-4.7727,-4.7403,-4.6768,-4.6435,-4.6066,-4.5715,-4.5453,-4.538,-4.5438,-4.5594,-4.5718,-4.5829,-4.5956,-4.6056,-4.6091,-4.6074,-4.6103,-4.6164,-4.6201,-4.6264,-4.63,-4.6296,-4.6308,-4.6284,-4.626,-4.6255,-4.6255,-4.6255,-4.6264,-4.6264,-4.626,-4.6206,-4.617,-4.6164,-4.6098,-4.6118,-4.6157,-4.6157,-4.6189,-4.6206,-4.6201,-4.6195,-4.6195,-4.6203,-4.6196,-4.6203,-4.6203,-4.6203,-4.6209,-4.6203,-4.6196,0.0,0.0,0.0,0.0,0.0,0.0,0.0,0.0,0.0,0.0,-3.6443,-3.7414,-3.8893,-3.9328,-3.9513,-3.9675,-3.9679,-3.9693,-3.9693,-3.9645,-3.9602,-3.9602,-3.962,-3.9645,-3.9645,-3.9626,-3.9626,-3.9626,-3.9626,-3.9626,-3.9645,-3.9674,-4.0,-4.0597,-4.0626,-4.1071,-4.1876,-4.29,-4.3668,-4.4223,-4.4421,-4.4515,-4.4515,-4.4515,-4.4515,-4.4515,-4.4551,-4.4578,-4.4578,-4.4578,-4.4578,-4.4654,-4.5293,-4.5491,-4.5472,-4.6168,-4.644,-4.645,-4.6751,-4.6776,-4.6705,-4.7018,-4.663,-4.6039,-4.6039,-4.5709,-4.5338,-4.5398,-4.5419,-4.5475,-4.5718,-4.5848,-4.5953,-4.6138,-4.6196,-4.6209,-4.6209,-4.6201,-4.624,-4.6296,-4.63,-4.63,-4.63,-4.6296,-4.6308,-4.6308,-4.6308,-4.6308,-4.6308,-4.6296,-4.6296,-4.6308,-4.6296,-4.6296,-4.6308,-4.6296,-4.6296,-4.6308,-4.6308,-4.6284,-4.6236,-4.6236,-4.6231,-4.6231,-4.6209,-4.619,-4.619,-4.6209,-4.6203,-4.6203,-4.6203,-4.6209,0.0,0.0,0.0,0.0,0.0,0.0,0.0,0.0,0.0,0.0,-3.5951,-3.6274,-3.7263,-3.8055,-3.8826,-3.9576,-3.9679,-3.9693,-3.9693,-3.9645,-3.9602,-3.9602,-3.9669,-3.9693,-3.9693,-3.9703,-3.9689,-3.9689,-3.9689,-3.9684,-3.9693,-3.9703,-3.9722,-3.975,-3.976,-4.0184,-4.1052,-4.2617,-4.3412,-4.3469,-4.4185,-4.4515,-4.4515,-4.4515,-4.4515,-4.4515,-4.4515,-4.4515,-4.4515,-4.4515,-4.4515,-4.4515,-4.4571,-4.4571,-4.459,-4.4627,-4.471,-4.4912,-4.5712,-4.5647,-4.5346,-4.6107,-4.5913,-4.5354,-4.5354,-4.5376,-4.5398,-4.5398,-4.5438,-4.5531,-4.5665,-4.5814,-4.5922,-4.6075,-4.615,-4.6209,-4.6201,-4.6255,-4.6308,-4.63,-4.63,-4.63,-4.63,-4.63,-4.63,-4.63,-4.63,-4.63,-4.63,-4.63,-4.63,-4.63,-4.63,-4.63,-4.63,-4.63,-4.63,-4.63,-4.63,-4.63,-4.63,-4.6288,-4.6284,-4.6284,-4.6231,-4.6206,-4.6206,-4.6189,-4.6203,-4.6203,-4.6203,-4.6195,0.0,0.0,0.0,0.0,0.0,0.0,0.0,0.0,0.0,-3.4292,-3.4741,-3.5343,-3.6298,-3.7125,-3.7932,-3.8807,-3.8893,-3.9058,-3.9628,-3.9661,-3.9661,-3.9661,-3.9703,-3.9703,-3.9703,-3.9708,-3.9689,-3.9689,-3.9689,-3.9708,-3.9703,-3.9754,-3.9758,-3.9754,-3.98,-4.0239,-4.1062,-4.1642,-4.2423,-4.3393,-4.3649,-4.4035,-4.4515,-4.4515,-4.4515,-4.4515,-4.4515,-4.4515,-4.4515,-4.4515,-4.4515,-4.4515,-4.4515,-4.4515,-4.4515,-4.4605,-4.4659,-4.4775,-4.5236,-4.5261,-4.5163,-4.5535,-4.5483,-4.5297,-4.5297,-4.5338,-4.5399,-4.54,-4.5513,-4.5665,-4.5789,-4.5933,-4.6047,-4.6137,-4.6215,-4.6255,-4.626,-4.6284,-4.6308,-4.63,-4.63,-4.63,-4.63,-4.63,-4.63,-4.63,-4.63,-4.63,-4.63,-4.63,-4.63,-4.63,-4.63,-4.63,-4.63,-4.63,-4.63,-4.63,-4.63,-4.63,-4.63,-4.6296,-4.6296,-4.6296,-4.6284,-4.6238,-4.6206,-4.6201,-4.6192,-4.6209,-4.6248,-4.6248,0.0,0.0,0.0,0.0,0.0,0.0,0.0,0.0,0.0,-3.3252,-3.3853,-3.4494,-3.5367,-3.5988,-3.6742,-3.7901,-3.8294,-3.8629,-3.9218,-3.9519,-3.9689,-3.9689,-3.9712,-3.9735,-3.9735,-3.9758,-3.9777,-3.9777,-3.9777,-3.9758,-3.9735,-3.9804,-3.9826,-3.9826,-3.9889,-4.0173,-4.0696,-4.0976,-4.1604,-4.2624,-4.3137,-4.3676,-4.4148,-4.4383,-4.4515,-4.4515,-4.4515,-4.4515,-4.4515,-4.4515,-4.4515,-4.4515,-4.4515,-4.4515,-4.4515,-4.4659,-4.4738,-4.4796,-4.5014,-4.5125,-4.517,-4.5275,-4.5297,-4.5317,-4.5361,-4.5419,-4.5476,-4.5507,-4.5658,-4.5808,-4.5917,-4.6074,-4.6183,-4.6226,-4.6264,-4.6292,-4.6292,-4.6292,-4.6292,-4.63,-4.63,-4.63,-4.63,-4.63,-4.63,-4.63,-4.63,-4.63,-4.63,-4.63,-4.63,-4.63,-4.63,-4.63,-4.63,-4.63,-4.63,-4.63,-4.63,-4.63,-4.63,-4.63,-4.6303,-4.6309,-4.6297,-4.6276,-4.6238,-4.6228,-4.6225,-4.6236,-4.6279,-4.6304,0.0,0.0,0.0,0.0,0.0,0.0,0.0,0.0,0.0,-3.272,-3.3325,-3.3688,-3.4435,-3.4647,-3.5235,-3.6939,-3.7904,-3.8429,-3.8448,-3.9165,-3.967,-3.9651,-3.9739,-3.9804,-3.9804,-3.9848,-3.9889,-3.9889,-3.9889,-3.9867,-3.9804,-3.9848,-3.9889,-3.9889,-3.9908,-3.9927,-3.9889,-4.0715,-4.1085,-4.1123,-4.2624,-4.3363,-4.3412,-4.4148,-4.4477,-4.4515,-4.4496,-4.4515,-4.4515,-4.4515,-4.4515,-4.4515,-4.4496,-4.4515,-4.4524,-4.4659,-4.4796,-4.4938,-4.5057,-4.5192,-4.5297,-4.5297,-4.5297,-4.5319,-4.5455,-4.5543,-4.5626,-4.5757,-4.5832,-4.5928,-4.6072,-4.6209,-4.6303,-4.6303,-4.6292,-4.63,-4.63,-4.63,-4.63,-4.63,-4.63,-4.63,-4.63,-4.63,-4.63,-4.63,-4.63,-4.63,-4.63,-4.63,-4.63,-4.63,-4.63,-4.63,-4.63,-4.63,-4.63,-4.63,-4.63,-4.63,-4.63,-4.63,-4.6309,-4.6301,-4.6301,-4.6303,-4.6306,-4.6307,-4.6305,-4.6295,-4.6306,-4.6297,-2.0144,0.0,0.0,0.0,0.0,0.0,0.0,0.0,0.0,-3.0483,-3.1807,-3.2883,-3.3671,-3.431,-3.4877,-3.535,-3.6104,-3.6858,-3.7546,-3.8316,-3.8848,-3.8893,-3.9444,-3.9826,-3.9867,-3.9889,-3.9889,-3.9889,-3.9889,-3.9889,-3.9867,-3.9889,-3.9889,-3.9889,-4.0517,-4.0555,-3.9908,-4.076,-4.115,-4.1104,-4.1534,-4.2353,-4.3472,-4.3698,-4.4086,-4.4632,-4.4578,-4.4578,-4.4551,-4.4515,-4.4515,-4.4515,-4.4605,-4.4659,-4.4685,-4.4895,-4.5014,-4.5061,-4.5192,-4.5275,-4.5297,-4.5297,-4.5297,-4.5317,-4.5341,-4.54,-4.5495,-4.5619,-4.5744,-4.5897,-4.6177,-4.626,-4.6296,-4.6296,-4.63,-4.63,-4.63,-4.63,-4.63,-4.63,-4.63,-4.63,-4.63,-4.63,-4.63,-4.63,-4.63,-4.63,-4.63,-4.63,-4.63,-4.63,-4.63,-4.63,-4.63,-4.63,-4.63,-4.63,-4.63,-4.63,-4.63,-4.63,-4.6309,-4.6301,-4.6307,-4.6308,-4.6308,-4.6308,-4.6307,-4.6306,-4.6301,-4.6307,-2.0199,-2.0208,0.0,0.0,0.0,0.0,-2.4352,-2.5668,0.0,0.0,-3.1035,-3.1959,-3.2766,-3.3614,-3.4201,-3.4201,-3.4898,-3.5748,-3.664,-3.747,-3.8131,-3.8515,-3.8968,-3.9403,-3.9785,-3.9826,-3.9867,-3.9867,-3.9889,-3.9889,-3.9889,-3.9889,-4.006,-4.0442,-4.0953,-4.0972,-4.046,-4.0953,-4.1177,-4.115,-4.1449,-4.2295,-4.3548,-4.3863,-4.4259,-4.4712,-4.4659,-4.4632,-4.4632,-4.4632,-4.4605,-4.4605,-4.4738,-4.477,-4.4796,-4.5014,-4.5103,-4.5125,-4.5235,-4.5297,-4.5297,-4.5297,-4.5297,-4.5319,-4.5438,-4.5491,-4.5577,-4.5803,-4.5919,-4.6005,-4.622,-4.6288,-4.6296,-4.6296,-4.6296,-4.63,-4.63,-4.63,-4.63,-4.63,-4.63,-4.63,-4.63,-4.63,-4.63,-4.63,-4.63,-4.63,-4.63,-4.63,-4.63,-4.63,-4.63,-4.63,-4.63,-4.63,-4.63,-4.63,-4.63,-4.63,-4.63,-4.6306,-4.6297,-4.6306,-4.6308,-4.6307,-4.6305,-4.6301,-4.6306,-4.6307,-4.6308,-4.6308,-2.038,-2.0401,-2.0441,-2.0279,-2.0363,0.0,-2.3827,-2.4561,-2.5665,0.0,-3.0171,-3.0622,-3.143,-3.243,-3.311,-3.311,-3.3922,-3.4866,-3.5752,-3.6581,-3.7448,-3.826,-3.8448,-3.8826,-3.9614,-3.9758,-3.9804,-3.9781,-3.9826,-3.9889,-3.9889,-3.9984,-4.0382,-4.1158,-4.1389,-4.1446,-4.1332,-4.1446,-4.1446,-4.1351,-4.2002,-4.2772,-4.3623,-4.4291,-4.4643,-4.4719,-4.4693,-4.4738,-4.4738,-4.4815,-4.4789,-4.4738,-4.487,-4.4919,-4.4919,-4.5061,-4.5125,-4.5148,-4.5275,-4.5297,-4.5297,-4.5317,-4.5317,-4.538,-4.5619,-4.5703,-4.577,-4.6088,-4.6189,-4.6206,-4.6206,-4.6236,-4.6284,-4.6284,-4.6292,-4.6296,-4.6296,-4.63,-4.63,-4.63,-4.63,-4.63,-4.63,-4.63,-4.63,-4.63,-4.63,-4.63,-4.63,-4.63,-4.63,-4.63,-4.63,-4.63,-4.63,-4.63,-4.63,-4.63,-4.6303,-4.6303,-4.6303,-4.6295,-4.6305,-4.6308,-4.6305,-4.63,-4.6301,-4.6293,-4.6306,-4.6306,-4.6307,-4.6308,-2.1531,-2.1684,-2.2039,-2.1311,-2.1722,0.0,-2.2182,-2.27,-2.359,0.0,-2.6246,-2.7424,-2.8175,-2.9604,-3.0693,-3.0693,-3.1993,-3.3498,-3.4848,-3.569,-3.6497,-3.743,-3.8109,-3.8826,-3.9614,-3.9758,-3.9781,-3.9712,-3.9735,-3.9735,-3.9735,-4.0465,-4.0942,-4.1113,-4.2484,-4.2886,-4.2185,-4.2867,-4.2867,-4.2185,-4.2314,-4.2844,-4.3677,-4.3848,-4.424,-4.4846,-4.4796,-4.4846,-4.4943,-4.5014,-4.4919,-4.4796,-4.501,-4.5057,-4.508,-4.5213,-4.5275,-4.5256,-4.5297,-4.5297,-4.5317,-4.5359,-4.5419,-4.5473,-4.5594,-4.565,-4.5744,-4.5988,-4.6118,-4.6206,-4.6206,-4.6211,-4.6211,-4.6211,-4.6211,-4.6216,-4.6216,-4.626,-4.6308,-4.6308,-4.6296,-4.63,-4.63,-4.63,-4.63,-4.63,-4.63,-4.63,-4.63,-4.63,-4.63,-4.63,-4.63,-4.63,-4.63,-4.63,-4.63,-4.63,-4.6293,-4.63,-4.63,-4.629,-4.6301,-4.6305,-4.6293,-4.6293,-4.6301,-4.6306,-4.6307,-4.6307,-4.6308,-4.6308,-2.1732,-2.1723,-2.2058,-2.2048,-2.2403,0.0,0.0,-2.3271,-2.3739,-2.5279,-2.5582,-2.582,-2.6645,-2.7865,-2.8764,-2.8764,-3.0977,-3.2649,-3.253,-3.4207,-3.5754,-3.6516,-3.6949,-3.7514,-3.8319,-3.8863,-3.9324,-3.9721,-3.9758,-3.9735,-3.9689,-4.0174,-4.0655,-4.1089,-4.237,-4.2848,-4.2412,-4.3265,-4.3474,-4.3057,-4.3057,-4.3493,-4.4308,-4.4308,-4.4516,-4.4876,-4.4483,-4.4588,-4.5042,-4.4734,-4.481,-4.5125,-4.5216,-4.5237,-4.5275,-4.5317,-4.5317,-4.5297,-4.5297,-4.5297,-4.5317,-4.5419,-4.5475,-4.5524,-4.5747,-4.5879,-4.5978,-4.6074,-4.615,-4.6203,-4.6203,-4.6189,-4.6195,-4.6195,-4.6201,-4.6206,-4.6206,-4.6231,-4.626,-4.6284,-4.6308,-4.6296,-4.63,-4.63,-4.63,-4.63,-4.63,-4.63,-4.63,-4.63,-4.63,-4.63,-4.63,-4.63,-4.63,-4.63,-4.63,-4.63,-4.6295,-4.6301,-4.6301,-4.6305,-4.6308,-4.6293,-4.6306,-4.6303,-4.6293,-4.6307,-4.6308,-4.6308,-4.6308,-4.6308,-2.2402,-2.2249,-2.2517,-2.3054,-2.3323,-2.3649,0.0,0.0,0.0,-2.6108,-2.5489,0.0,0.0,0.0,0.0,-2.7037,0.0,0.0,0.0,-3.2016,0.0,-3.5145,-3.5628,-3.6174,-3.6848,-3.7269,-3.8014,-3.9233,-3.9025,-3.9022,-3.9444,-3.9834,-4.0371,-4.1047,-4.193,-4.2488,-4.2659,-4.336,-4.3777,-4.3929,-4.3929,-4.427,-4.4895,-4.4895,-4.4895,-4.4857,-4.4121,-4.4303,-4.509,-4.4381,-4.4633,-4.5438,-4.54,-4.54,-4.5398,-4.5398,-4.5338,-4.5297,-4.5297,-4.5297,-4.5319,-4.5455,-4.5558,-4.565,-4.5956,-4.6102,-4.6196,-4.6196,-4.6196,-4.6196,-4.6196,-4.6209,-4.6196,-4.6196,-4.6209,-4.6201,-4.6201,-4.6201,-4.6226,-4.6279,-4.6284,-4.6308,-4.63,-4.63,-4.63,-4.63,-4.63,-4.63,-4.63,-4.63,-4.63,-4.63,-4.63,-4.63,-4.63,-4.6303,-4.6306,-4.6306,-4.6301,-4.6306,-4.6306,-4.6307,-4.63,-4.6306,-4.6303,-4.63,-4.63,-4.629,-4.6273,-4.6273,-4.6273,-4.6278,-2.5195,-2.5324,-2.5768,-2.5154,-2.5597,-2.5608,-2.3456,0.0,-2.383,-2.3258,0.0,0.0,0.0,0.0,0.0,0.0,0.0,0.0,-2.6883,-2.8528,-3.0567,-3.2721,-3.4699,-3.5993,-3.6192,-3.4862,-3.499,-3.7392,-3.6203,-3.6314,-3.8432,-4.0075,-4.0972,-4.0995,-4.1907,-4.2773,-4.3549,-4.3644,-4.4061,-4.4762,-4.4762,-4.4819,-4.4895,-4.4895,-4.4895,-4.4857,-4.4121,-4.4347,-4.522,-4.448,-4.4728,-4.5569,-4.5438,-4.5399,-4.5398,-4.5338,-4.5317,-4.5297,-4.5297,-4.5297,-4.5319,-4.5528,-4.5756,-4.5978,-4.6127,-4.6189,-4.6196,-4.6196,-4.6196,-4.6196,-4.6196,-4.6203,-4.6203,-4.6203,-4.6203,-4.6203,-4.6203,-4.6196,-4.6189,-4.6206,-4.626,-4.6308,-4.63,-4.63,-4.63,-4.63,-4.63,-4.63,-4.63,-4.63,-4.63,-4.63,-4.63,-4.63,-4.63,-4.6293,-4.63,-4.63,-4.6308,-4.6305,-4.6305,-4.6293,-4.629,-4.63,-4.6309,-4.63,-4.63,-4.6241,-4.6215,-4.6215,-4.6215,-4.6173,-2.5439,-2.586,-2.6427,-2.6135,-2.6672,-2.6749,-2.4686,-2.4091,-2.4034,-2.4138,0.0,0.0,0.0,0.0,0.0,0.0,-2.5707,0.0,0.0,0.0,-2.9187,-2.9594,-3.0465,-3.1801,-3.3752,-3.4111,-3.507,-3.7152,-3.6187,-3.6352,-3.8346,-3.9188,-3.9792,-4.0241,-4.1118,-4.1997,-4.2877,-4.3388,-4.4075,-4.4895,-4.4895,-4.4895,-4.4895,-4.4895,-4.4654,-4.4212,-4.3469,-4.3461,-4.3886,-4.3654,-4.407,-4.4893,-4.5303,-4.5438,-4.54,-4.5361,-4.5339,-4.5297,-4.5297,-4.5297,-4.5339,-4.5574,-4.5871,-4.6127,-4.6169,-4.6203,-4.6196,-4.6196,-4.6203,-4.6209,-4.6209,-4.6209,-4.6209,-4.6209,-4.6209,-4.6203,-4.6196,-4.6196,-4.6209,-4.6195,-4.6226,-4.626,-4.6288,-4.6296,-4.63,-4.63,-4.63,-4.63,-4.63,-4.63,-4.63,-4.63,-4.63,-4.6303,-4.6293,-4.6293,-4.6295,-4.6305,-4.6308,-4.6305,-4.6293,-4.6303,-4.6293,-4.6307,-4.6248,-4.6241,-4.6241,-4.6173,-4.6119,-4.6085,-4.6123,-4.6132,-2.6726,-2.7098,-2.7416,-2.6751,-2.7201,-2.7305,-2.5379,-2.4822,-2.4812,-2.5205,-2.4474,0.0,0.0,0.0,-2.4071,-2.4312,0.0,-2.5774,0.0,-2.636,0.0,0.0,-2.7433,-2.8484,-3.081,-3.1915,-3.3355,-3.5473,-3.5057,-3.5623,-3.7734,-3.8282,-3.8792,-3.9354,-4.0203,-4.108,-4.1935,-4.2583,-4.3326,-4.4189,-4.4459,-4.4535,-4.4464,-4.454,-4.4288,-4.3675,-4.2773,-4.2737,-4.3284,-4.3176,-4.3759,-4.4812,-4.5379,-4.558,-4.5509,-4.5475,-4.5438,-4.54,-4.54,-4.5457,-4.5528,-4.5722,-4.5968,-4.6196,-4.6203,-4.6196,-4.6203,-4.6209,-4.6201,-4.6206,-4.6206,-4.6206,-4.6206,-4.6206,-4.6206,-4.6206,-4.6195,-4.6209,-4.6203,-4.6189,-4.6195,-4.6226,-4.6284,-4.6292,-4.63,-4.63,-4.63,-4.63,-4.63,-4.63,-4.6303,-4.6306,-4.6306,-4.6293,-4.6305,-4.6301,-4.6305,-4.6308,-4.6308,-4.6305,-4.6303,-4.6284,-4.626,-4.6277,-4.6211,-4.6183,-4.6162,-4.6113,-4.6055,-4.6007,-4.6046,-4.6046,-3.0369,-3.0203,-2.9682,-2.7225,-2.7196,-2.7135,-2.461,-2.533,-2.6271,-2.5376,-2.5885,-2.6203,-2.5308,-2.4532,-2.4273,-2.5109,-2.4649,0.0,0.0,0.0,0.0,0.0,0.0,0.0,-2.7566,-2.7012,-2.7979,-3.1159,-3.1433,-3.2838,-3.6001,-3.7724,-3.8572,-3.8543,-3.9384,-4.0235,-4.1033,-4.1142,-4.1581,-4.2399,-4.3298,-4.3611,-4.3369,-4.3684,-4.3732,-4.3452,-4.2183,-4.2631,-4.4195,-4.349,-4.424,-4.5844,-4.5883,-4.5847,-4.5769,-4.5642,-4.5638,-4.5689,-4.5689,-4.5803,-4.5986,-4.5997,-4.6084,-4.6203,-4.6196,-4.6203,-4.6209,-4.6201,-4.6206,-4.6206,-4.6206,-4.6206,-4.6206,-4.6206,-4.6206,-4.6206,-4.6206,-4.6195,-4.6209,-4.6206,-4.6195,-4.6215,-4.6279,-4.6292,-4.63,-4.63,-4.63,-4.63,-4.63,-4.63,-4.6306,-4.63,-4.6301,-4.6305,-4.6308,-4.6307,-4.63,-4.6303,-4.6297,-4.6297,-4.63,-4.6242,-4.6192,-4.6189,-4.6153,-4.6105,-4.6104,-4.6027,-4.5988,-4.6007,-4.6007,-4.593,-3.1142,-3.1597,-3.1527,-2.9598,-2.8887,-2.8145,-2.6177,-2.5735,-2.5812,-2.6069,-2.6387,-2.6502,-2.6124,-2.5405,-2.4955,-2.5253,-2.4591,-2.4053,0.0,-2.385,0.0,0.0,0.0,0.0,0.0,-2.6828,-2.8844,-3.104,-3.1669,-3.3166,-3.5946,-3.7137,-3.7986,-3.8553,-3.9343,-4.0151,-4.0995,-4.1019,-4.1458,-4.23,-4.2607,-4.2957,-4.3293,-4.3099,-4.2867,-4.2619,-4.2011,-4.1832,-4.2009,-4.233,-4.3167,-4.4303,-4.4816,-4.542,-4.5917,-4.5783,-4.5708,-4.5703,-4.5703,-4.5828,-4.6008,-4.6008,-4.608,-4.6195,-4.6201,-4.6226,-4.6275,-4.6279,-4.6264,-4.6269,-4.6269,-4.6269,-4.6269,-4.6269,-4.6269,-4.6269,-4.626,-4.6275,-4.625,-4.6215,-4.6195,-4.622,-4.624,-4.6279,-4.6292,-4.63,-4.63,-4.63,-4.63,-4.629,-4.6297,-4.6301,-4.6306,-4.6308,-4.6306,-4.6297,-4.6295,-4.6305,-4.6307,-4.628,-4.6231,-4.6205,-4.6171,-4.6123,-4.608,-4.6041,-4.6027,-4.593,-4.5858,-4.5858,-4.5858,-4.5838,-3.2481,-3.2929,-3.2839,-3.0898,-3.0213,-2.9425,-2.711,-2.664,-2.6726,-2.7003,-2.683,-2.6858,-2.7731,-2.6463,-2.5494,-2.6109,-2.5235,-2.4274,0.0,-2.3638,0.0,0.0,0.0,0.0,0.0,-2.5436,-2.7828,-3.0666,-3.1324,-3.283,-3.5663,-3.6578,-3.7414,-3.8289,-3.9003,-3.9794,-4.0715,-4.0666,-4.0953,-4.1597,-4.2208,-4.2385,-4.2104,-4.2604,-4.2403,-4.1682,-4.1519,-4.1408,-4.1388,-4.1952,-4.2691,-4.3594,-4.4403,-4.5082,-4.5624,-4.58,-4.5883,-4.5875,-4.5875,-4.5959,-4.6072,-4.6072,-4.6118,-4.6206,-4.6231,-4.6279,-4.6303,-4.6308,-4.6296,-4.63,-4.63,-4.63,-4.63,-4.63,-4.63,-4.63,-4.6292,-4.6284,-4.6255,-4.6215,-4.6195,-4.6209,-4.6203,-4.624,-4.6279,-4.6292,-4.63,-4.63,-4.63,-4.6295,-4.6303,-4.6306,-4.6308,-4.6306,-4.6297,-4.6306,-4.6287,-4.6278,-4.6256,-4.6226,-4.6177,-4.6138,-4.6104,-4.6065,-4.5988,-4.593,-4.593,-4.5838,-4.58,-4.58,-4.58,-4.58]}]]